Letzte Messung
Zeitpunkt Temperatur Luftfeuchte Luftdruck
2021-06-12 15:29:27 20.08 ℃ 88.66 % 1016.13 hPa

Zeitpunkt Temperatur Luftfeuchte Luftdruck
2021-06-12 15:29:27 20.08 ℃ 88.66 % 1016.13 hPa
2021-06-12 15:19:27 20.51 ℃ 86.95 % 1016.06 hPa
2021-06-12 15:09:27 20.3 ℃ 88.52 % 1015.94 hPa
2021-06-12 14:59:27 20.37 ℃ 93.14 % 1015.88 hPa
2021-06-12 14:49:27 19.96 ℃ 98.57 % 1015.91 hPa
2021-06-12 14:39:27 19.55 ℃ 98.99 % 1015.91 hPa
2021-06-12 14:29:27 19.54 ℃ 97.97 % 1015.8 hPa
2021-06-12 14:19:27 19.4 ℃ 95.94 % 1015.72 hPa
2021-06-12 14:09:27 20.18 ℃ 91.88 % 1015.56 hPa
2021-06-12 13:59:27 21.28 ℃ 83.77 % 1015.45 hPa
2021-06-12 13:49:27 21.42 ℃ 80.63 % 1015.47 hPa
2021-06-12 13:39:27 21.18 ℃ 76.42 % 1015.48 hPa
2021-06-12 13:29:27 21.13 ℃ 75.49 % 1015.51 hPa
2021-06-12 13:19:27 21.22 ℃ 77.27 % 1015.53 hPa
2021-06-12 13:09:27 20.85 ℃ 76.69 % 1015.51 hPa
2021-06-12 12:59:27 21.05 ℃ 75.66 % 1015.47 hPa
2021-06-12 12:49:27 20.81 ℃ 77.22 % 1015.42 hPa
2021-06-12 12:39:27 20.88 ℃ 81.81 % 1015.36 hPa
2021-06-12 12:29:27 20.62 ℃ 84.03 % 1015.36 hPa
2021-06-12 12:19:27 20.35 ℃ 83.13 % 1015.34 hPa
2021-06-12 12:09:27 20.16 ℃ 82.79 % 1015.36 hPa
2021-06-12 11:59:27 19.87 ℃ 82.4 % 1015.3 hPa
2021-06-12 11:49:27 19.92 ℃ 83.49 % 1015.18 hPa
2021-06-12 11:39:27 20.1 ℃ 80.72 % 1015.13 hPa
2021-06-12 11:29:27 20.66 ℃ 77.92 % 1014.97 hPa
2021-06-12 11:19:27 21 ℃ 74.75 % 1014.9 hPa
2021-06-12 11:09:27 21.14 ℃ 75.3 % 1014.96 hPa
2021-06-12 10:59:27 20.96 ℃ 78.03 % 1014.91 hPa
2021-06-12 10:49:27 20.92 ℃ 80.66 % 1014.94 hPa
2021-06-12 10:39:27 20.43 ℃ 86.06 % 1014.98 hPa
2021-06-12 10:29:27 20.59 ℃ 91.64 % 1014.99 hPa
2021-06-12 10:19:27 20.28 ℃ 95.18 % 1015.04 hPa
2021-06-12 10:09:27 20.14 ℃ 97.55 % 1015.03 hPa
2021-06-12 09:59:27 19.7 ℃ 99.77 % 1015.02 hPa
2021-06-12 09:49:27 19.41 ℃ 100 % 1015.1 hPa
2021-06-12 09:39:27 19.05 ℃ 100 % 1015.11 hPa
2021-06-12 09:29:27 19.13 ℃ 100 % 1015.13 hPa
2021-06-12 09:19:27 19.4 ℃ 100 % 1015.01 hPa
2021-06-12 09:09:27 19.26 ℃ 100 % 1014.93 hPa
2021-06-12 08:59:27 19.19 ℃ 100 % 1014.97 hPa
2021-06-12 08:49:28 19.01 ℃ 100 % 1014.99 hPa
2021-06-12 08:39:28 18.92 ℃ 100 % 1015.01 hPa
2021-06-12 08:29:28 19.06 ℃ 100 % 1014.97 hPa
2021-06-12 08:19:27 19.24 ℃ 100 % 1014.91 hPa
2021-06-12 08:09:27 19.27 ℃ 100 % 1014.92 hPa
2021-06-12 07:59:27 19.33 ℃ 100 % 1014.94 hPa
2021-06-12 07:49:27 19.4 ℃ 100 % 1014.99 hPa
2021-06-12 07:39:28 19.49 ℃ 100 % 1015.05 hPa
2021-06-12 07:29:28 19.52 ℃ 100 % 1015.1 hPa
2021-06-12 07:19:28 19.43 ℃ 100 % 1015.08 hPa
2021-06-12 07:09:28 19.47 ℃ 100 % 1015.08 hPa
2021-06-12 06:59:28 19.34 ℃ 100 % 1015.15 hPa
2021-06-12 06:49:28 19.44 ℃ 100 % 1015.21 hPa
2021-06-12 06:39:28 19.38 ℃ 100 % 1015.29 hPa
2021-06-12 06:29:28 19.38 ℃ 100 % 1015.28 hPa
2021-06-12 06:19:28 19.24 ℃ 100 % 1015.31 hPa
2021-06-12 06:09:28 18.93 ℃ 100 % 1015.38 hPa
2021-06-12 05:59:28 18.89 ℃ 100 % 1015.4 hPa
2021-06-12 05:49:28 19.07 ℃ 100 % 1015.36 hPa
2021-06-12 05:39:28 19.04 ℃ 100 % 1015.35 hPa
2021-06-12 05:29:28 19.25 ℃ 100 % 1015.36 hPa
2021-06-12 05:19:28 19.43 ℃ 100 % 1015.37 hPa
2021-06-12 05:09:28 19.41 ℃ 100 % 1015.43 hPa
2021-06-12 04:59:28 19.5 ℃ 100 % 1015.53 hPa
2021-06-12 04:49:28 20.02 ℃ 100 % 1015.49 hPa
2021-06-12 04:39:28 19.9 ℃ 100 % 1015.54 hPa
2021-06-12 04:29:28 19.71 ℃ 100 % 1015.67 hPa
2021-06-12 04:19:28 19.83 ℃ 100 % 1015.81 hPa
2021-06-12 04:09:28 19.54 ℃ 100 % 1015.91 hPa
2021-06-12 03:59:28 19.18 ℃ 100 % 1016.07 hPa
2021-06-12 03:49:28 18.99 ℃ 100 % 1016.11 hPa
2021-06-12 03:39:28 19.06 ℃ 100 % 1016.08 hPa
2021-06-12 03:29:28 18.89 ℃ 100 % 1016.1 hPa
2021-06-12 03:19:28 19.09 ℃ 100 % 1016.02 hPa
2021-06-12 03:09:28 19.24 ℃ 100 % 1016 hPa
2021-06-12 02:59:28 19.65 ℃ 100 % 1016 hPa
2021-06-12 02:49:28 19.73 ℃ 100 % 1016.02 hPa
2021-06-12 02:39:28 19.61 ℃ 100 % 1016.12 hPa
2021-06-12 02:29:28 19.76 ℃ 100 % 1016.22 hPa
2021-06-12 02:19:28 19.82 ℃ 100 % 1016.36 hPa
2021-06-12 02:09:28 20 ℃ 100 % 1016.4 hPa
2021-06-12 01:59:28 19.96 ℃ 100 % 1016.46 hPa
2021-06-12 01:49:28 19.99 ℃ 100 % 1016.48 hPa
2021-06-12 01:39:28 20.61 ℃ 100 % 1016.5 hPa
2021-06-12 01:29:28 20.56 ℃ 100 % 1016.59 hPa
2021-06-12 01:19:28 20.42 ℃ 100 % 1016.69 hPa
2021-06-12 01:09:28 20.15 ℃ 100 % 1016.76 hPa
2021-06-12 00:59:28 19.86 ℃ 100 % 1016.87 hPa
2021-06-12 00:49:28 19.95 ℃ 100 % 1016.96 hPa
2021-06-12 00:39:28 19.86 ℃ 100 % 1017.05 hPa
2021-06-12 00:29:28 19.96 ℃ 100 % 1017.03 hPa
2021-06-12 00:19:28 20.32 ℃ 100 % 1017.03 hPa
2021-06-12 00:09:28 20.24 ℃ 100 % 1017.01 hPa
2021-06-11 23:59:28 20.38 ℃ 100 % 1016.99 hPa
2021-06-11 23:49:28 20.45 ℃ 100 % 1016.95 hPa
2021-06-11 23:39:28 20.78 ℃ 100 % 1016.89 hPa
2021-06-11 23:29:28 21.06 ℃ 100 % 1016.91 hPa
2021-06-11 23:19:28 21.08 ℃ 100 % 1016.97 hPa
2021-06-11 23:09:28 21.35 ℃ 100 % 1016.97 hPa
2021-06-11 22:59:28 21.45 ℃ 100 % 1016.97 hPa
2021-06-11 22:49:28 21.89 ℃ 100 % 1017.04 hPa
2021-06-11 22:39:28 22.04 ℃ 100 % 1017.08 hPa
2021-06-11 22:29:28 22.46 ℃ 100 % 1017.15 hPa
2021-06-11 22:19:28 22.34 ℃ 100 % 1017.14 hPa
2021-06-11 22:09:28 22.22 ℃ 100 % 1017.14 hPa
2021-06-11 21:59:28 22.29 ℃ 100 % 1017.15 hPa
2021-06-11 21:49:28 21.97 ℃ 100 % 1017.15 hPa
2021-06-11 21:39:28 22.04 ℃ 100 % 1017.12 hPa
2021-06-11 21:29:28 22.7 ℃ 99.99 % 1017.13 hPa
2021-06-11 21:19:28 22.7 ℃ 99.99 % 1017.15 hPa
2021-06-11 21:09:28 22.69 ℃ 99.98 % 1017.22 hPa
2021-06-11 20:59:28 22.58 ℃ 99.96 % 1017.21 hPa
2021-06-11 20:49:29 22.52 ℃ 99.92 % 1017.23 hPa
2021-06-11 20:39:29 22.51 ℃ 99.84 % 1017.22 hPa
2021-06-11 20:29:28 22.75 ℃ 99.67 % 1017.21 hPa
2021-06-11 20:19:29 23.08 ℃ 99.35 % 1017.13 hPa
2021-06-11 20:09:29 23.63 ℃ 98.69 % 1017.08 hPa
2021-06-11 19:59:29 24.05 ℃ 97.38 % 1017.01 hPa
2021-06-11 19:49:29 24.41 ℃ 94.95 % 1016.99 hPa
2021-06-11 19:39:29 24.39 ℃ 94 % 1016.98 hPa
2021-06-11 19:29:29 24.56 ℃ 91.76 % 1016.99 hPa
2021-06-11 19:19:29 24.78 ℃ 87.57 % 1016.95 hPa
2021-06-11 19:09:29 24.95 ℃ 84.15 % 1016.92 hPa
2021-06-11 18:59:29 24.98 ℃ 83.61 % 1016.9 hPa
2021-06-11 18:49:29 25.38 ℃ 81.06 % 1016.88 hPa
2021-06-11 18:39:29 25.55 ℃ 80.89 % 1016.95 hPa
2021-06-11 18:29:29 25.79 ℃ 79.29 % 1016.99 hPa
2021-06-11 18:19:29 25.74 ℃ 79.53 % 1017.07 hPa
2021-06-11 18:09:29 26.04 ℃ 76.73 % 1017.11 hPa
2021-06-11 17:59:29 25.76 ℃ 77.23 % 1017.18 hPa
2021-06-11 17:49:29 25.87 ℃ 75.42 % 1017.32 hPa
2021-06-11 17:39:29 26.1 ℃ 73.21 % 1017.39 hPa
2021-06-11 17:29:29 25.86 ℃ 73.41 % 1017.47 hPa
2021-06-11 17:19:29 25.75 ℃ 73.72 % 1017.55 hPa
2021-06-11 17:09:29 26.04 ℃ 73.11 % 1017.65 hPa
2021-06-11 16:59:29 25.79 ℃ 74.56 % 1017.86 hPa
2021-06-11 16:49:29 25.48 ℃ 74.45 % 1017.97 hPa
2021-06-11 16:39:29 25.46 ℃ 73.06 % 1018 hPa
2021-06-11 16:29:29 25.51 ℃ 72.12 % 1018.02 hPa
2021-06-11 16:19:29 25.57 ℃ 71.57 % 1017.99 hPa
2021-06-11 16:09:29 26.02 ℃ 70.5 % 1017.91 hPa
2021-06-11 15:59:29 26.27 ℃ 70.93 % 1017.89 hPa
2021-06-11 15:49:29 26.13 ℃ 71.21 % 1017.89 hPa
2021-06-11 15:39:29 26.11 ℃ 72.44 % 1017.85 hPa
2021-06-11 15:29:29 26.58 ℃ 70.41 % 1017.81 hPa
2021-06-11 15:19:29 26.83 ℃ 67.97 % 1017.8 hPa
2021-06-11 15:09:29 26.5 ℃ 70.18 % 1017.9 hPa
2021-06-11 14:59:29 26.69 ℃ 67.96 % 1017.95 hPa
2021-06-11 14:49:29 26.6 ℃ 67.6 % 1018.01 hPa
2021-06-11 14:39:29 26.7 ℃ 67.96 % 1018.09 hPa
2021-06-11 14:29:29 26.75 ℃ 67.77 % 1018.1 hPa
2021-06-11 14:19:29 26.5 ℃ 68.87 % 1018.14 hPa
2021-06-11 14:09:29 26.59 ℃ 68.21 % 1018.18 hPa
2021-06-11 13:59:29 26.26 ℃ 69.83 % 1018.24 hPa
2021-06-11 13:49:29 26.51 ℃ 69.62 % 1018.27 hPa
2021-06-11 13:39:29 26.3 ℃ 71.05 % 1018.33 hPa
2021-06-11 13:29:29 26.12 ℃ 72.95 % 1018.4 hPa
2021-06-11 13:19:29 26.09 ℃ 73.14 % 1018.46 hPa
2021-06-11 13:09:29 26.36 ℃ 70.72 % 1018.54 hPa
2021-06-11 12:59:29 26.09 ℃ 74.91 % 1018.58 hPa
2021-06-11 12:49:29 26.05 ℃ 74.34 % 1018.64 hPa
2021-06-11 12:39:29 25.73 ℃ 77.25 % 1018.78 hPa
2021-06-11 12:29:29 25.38 ℃ 79.37 % 1018.87 hPa
2021-06-11 12:19:29 25.11 ℃ 80.48 % 1018.92 hPa
2021-06-11 12:09:29 25.18 ℃ 79.33 % 1018.96 hPa
2021-06-11 11:59:29 25.12 ℃ 78.16 % 1018.94 hPa
2021-06-11 11:49:29 25.2 ℃ 76.8 % 1018.91 hPa
2021-06-11 11:39:29 25.37 ℃ 75.89 % 1018.92 hPa
2021-06-11 11:29:29 24.98 ℃ 78.47 % 1018.95 hPa
2021-06-11 11:19:29 24.74 ℃ 80 % 1018.94 hPa
2021-06-11 11:09:29 25.08 ℃ 77.48 % 1018.9 hPa
2021-06-11 10:59:29 24.74 ℃ 78.57 % 1018.91 hPa
2021-06-11 10:49:29 25.28 ℃ 75.51 % 1018.9 hPa
2021-06-11 10:39:29 25.47 ℃ 73.05 % 1018.94 hPa
2021-06-11 10:29:29 25.84 ℃ 69.43 % 1018.92 hPa
2021-06-11 10:19:29 25.5 ℃ 68.95 % 1018.97 hPa
2021-06-11 10:09:29 25.33 ℃ 69.16 % 1018.94 hPa
2021-06-11 09:59:29 24.96 ℃ 69.22 % 1018.97 hPa
2021-06-11 09:49:29 24.65 ℃ 68.75 % 1018.91 hPa
2021-06-11 09:39:29 24.5 ℃ 65.98 % 1018.9 hPa
2021-06-11 09:29:30 24.58 ℃ 64.51 % 1018.91 hPa
2021-06-11 09:19:29 24.29 ℃ 64.46 % 1018.93 hPa
2021-06-11 09:09:29 24.01 ℃ 65.2 % 1018.9 hPa
2021-06-11 08:59:29 24.15 ℃ 66.92 % 1018.91 hPa
2021-06-11 08:49:29 24.27 ℃ 67.46 % 1018.92 hPa
2021-06-11 08:39:29 24.65 ℃ 69 % 1018.92 hPa
2021-06-11 08:29:30 24.4 ℃ 69.65 % 1018.92 hPa
2021-06-11 08:19:30 24.3 ℃ 71.92 % 1018.91 hPa
2021-06-11 08:09:30 24.15 ℃ 72.34 % 1018.88 hPa
2021-06-11 07:59:30 23.78 ℃ 74.04 % 1018.84 hPa
2021-06-11 07:49:30 23.85 ℃ 72.82 % 1018.83 hPa
2021-06-11 07:39:30 23.73 ℃ 72.57 % 1018.86 hPa
2021-06-11 07:29:30 23.53 ℃ 72.89 % 1018.93 hPa
2021-06-11 07:19:30 23.08 ℃ 75.48 % 1018.96 hPa
2021-06-11 07:09:30 23.02 ℃ 77.44 % 1018.97 hPa
2021-06-11 06:59:30 23.09 ℃ 78.5 % 1019.03 hPa
2021-06-11 06:49:30 23.26 ℃ 78.7 % 1019.04 hPa
2021-06-11 06:39:30 23.37 ℃ 78.23 % 1019.04 hPa
2021-06-11 06:29:30 23.54 ℃ 77.91 % 1019.02 hPa
2021-06-11 06:19:30 23.54 ℃ 77.4 % 1019.04 hPa
2021-06-11 06:09:30 23.44 ℃ 77.57 % 1019.06 hPa
2021-06-11 05:59:30 22.9 ℃ 81.12 % 1019.1 hPa
2021-06-11 05:49:30 22.25 ℃ 86.06 % 1019.13 hPa
2021-06-11 05:39:30 21.67 ℃ 90.16 % 1019.15 hPa
2021-06-11 05:29:30 20.79 ℃ 96.44 % 1019.18 hPa
2021-06-11 05:19:30 19.78 ℃ 100 % 1019.23 hPa
2021-06-11 05:09:30 19.09 ℃ 100 % 1019.21 hPa
2021-06-11 04:59:30 19.02 ℃ 100 % 1019.24 hPa
2021-06-11 04:49:30 18.91 ℃ 100 % 1019.25 hPa
2021-06-11 04:39:30 18.59 ℃ 100 % 1019.3 hPa
2021-06-11 04:29:30 18.51 ℃ 100 % 1019.37 hPa
2021-06-11 04:19:30 18.61 ℃ 100 % 1019.36 hPa
2021-06-11 04:09:30 18.81 ℃ 100 % 1019.37 hPa
2021-06-11 03:59:30 18.91 ℃ 100 % 1019.34 hPa
2021-06-11 03:49:30 19.16 ℃ 100 % 1019.3 hPa
2021-06-11 03:39:30 19.29 ℃ 100 % 1019.33 hPa
2021-06-11 03:29:30 19.42 ℃ 100 % 1019.34 hPa
2021-06-11 03:19:30 19.39 ℃ 99.99 % 1019.36 hPa
2021-06-11 03:09:30 19.5 ℃ 99.98 % 1019.43 hPa
2021-06-11 02:59:30 19.62 ℃ 99.97 % 1019.47 hPa
2021-06-11 02:49:30 19.64 ℃ 99.93 % 1019.52 hPa
2021-06-11 02:39:30 19.67 ℃ 99.87 % 1019.56 hPa
2021-06-11 02:29:30 19.75 ℃ 99.73 % 1019.65 hPa
2021-06-11 02:19:30 19.67 ℃ 99.46 % 1019.73 hPa
2021-06-11 02:09:30 19.78 ℃ 98.93 % 1019.77 hPa
2021-06-11 01:59:30 19.99 ℃ 97.85 % 1019.77 hPa
2021-06-11 01:49:30 20.09 ℃ 96.65 % 1019.77 hPa
2021-06-11 01:39:30 20.39 ℃ 94.63 % 1019.83 hPa
2021-06-11 01:29:30 20.68 ℃ 92.8 % 1019.88 hPa
2021-06-11 01:19:30 20.92 ℃ 91.33 % 1019.93 hPa
2021-06-11 01:09:30 20.72 ℃ 93.01 % 1019.98 hPa
2021-06-11 00:59:30 20.35 ℃ 95.26 % 1019.98 hPa
2021-06-11 00:49:30 20.18 ℃ 95.94 % 1019.97 hPa
2021-06-11 00:39:30 20.27 ℃ 95.28 % 1019.95 hPa
2021-06-11 00:29:30 20.33 ℃ 94.84 % 1019.99 hPa
2021-06-11 00:19:30 20.29 ℃ 95.39 % 1020.01 hPa
2021-06-11 00:09:30 20.21 ℃ 96.09 % 1020.04 hPa
2021-06-10 23:59:30 20.4 ℃ 94.91 % 1020.11 hPa
2021-06-10 23:49:30 20.7 ℃ 93.09 % 1020.11 hPa
2021-06-10 23:39:30 21.18 ℃ 89.45 % 1020.15 hPa
2021-06-10 23:29:30 21.37 ℃ 88 % 1020.12 hPa
2021-06-10 23:19:30 21.46 ℃ 87.08 % 1020.08 hPa
2021-06-10 23:09:30 21.58 ℃ 86.01 % 1020.02 hPa
2021-06-10 22:59:30 21.81 ℃ 84.08 % 1019.93 hPa
2021-06-10 22:49:30 22.02 ℃ 81.96 % 1019.9 hPa
2021-06-10 22:39:30 22.16 ℃ 80.24 % 1019.84 hPa
2021-06-10 22:29:30 22.13 ℃ 79.06 % 1019.84 hPa
2021-06-10 22:19:30 22.26 ℃ 75.8 % 1019.82 hPa
2021-06-10 22:09:30 22.47 ℃ 72.38 % 1019.8 hPa
2021-06-10 21:59:31 22.71 ℃ 68.96 % 1019.76 hPa
2021-06-10 21:49:31 22.93 ℃ 65.95 % 1019.75 hPa
2021-06-10 21:39:31 23.23 ℃ 62.71 % 1019.68 hPa
2021-06-10 21:29:31 23.48 ℃ 60.55 % 1019.6 hPa
2021-06-10 21:19:31 23.82 ℃ 58.33 % 1019.53 hPa
2021-06-10 21:09:31 23.88 ℃ 57.25 % 1019.5 hPa
2021-06-10 20:59:31 23.77 ℃ 55.79 % 1019.48 hPa
2021-06-10 20:49:31 23.91 ℃ 52.38 % 1019.48 hPa
2021-06-10 20:39:31 24.16 ℃ 47.92 % 1019.51 hPa
2021-06-10 20:29:31 24.31 ℃ 44.46 % 1019.48 hPa
2021-06-10 20:19:31 24.5 ℃ 42.42 % 1019.46 hPa
2021-06-10 20:09:31 24.53 ℃ 42.71 % 1019.47 hPa
2021-06-10 19:59:31 24.36 ℃ 43.69 % 1019.44 hPa
2021-06-10 19:49:31 24.5 ℃ 44.04 % 1019.44 hPa
2021-06-10 19:39:31 24.38 ℃ 45.77 % 1019.47 hPa
2021-06-10 19:29:31 24.59 ℃ 46.5 % 1019.49 hPa
2021-06-10 19:19:31 24.74 ℃ 46.69 % 1019.51 hPa
2021-06-10 19:09:31 24.8 ℃ 46.57 % 1019.54 hPa
2021-06-10 18:59:31 24.89 ℃ 46.66 % 1019.58 hPa
2021-06-10 18:49:31 24.95 ℃ 46.77 % 1019.63 hPa
2021-06-10 18:39:31 25.1 ℃ 46.33 % 1019.68 hPa
2021-06-10 18:29:31 25.27 ℃ 45.03 % 1019.74 hPa
2021-06-10 18:19:31 25.28 ℃ 44.72 % 1019.81 hPa
2021-06-10 18:09:31 25.28 ℃ 44.23 % 1019.91 hPa
2021-06-10 17:59:31 25.43 ℃ 43.47 % 1019.94 hPa
2021-06-10 17:49:31 25.4 ℃ 43.57 % 1019.96 hPa
2021-06-10 17:39:31 25.52 ℃ 43.65 % 1020.04 hPa
2021-06-10 17:29:31 25.74 ℃ 42.66 % 1020.13 hPa
2021-06-10 17:19:31 26.06 ℃ 41.63 % 1020.19 hPa
2021-06-10 17:09:31 26.18 ℃ 42.87 % 1020.2 hPa
2021-06-10 16:59:31 25.96 ℃ 44.5 % 1020.27 hPa
2021-06-10 16:49:31 26.05 ℃ 43.11 % 1020.29 hPa
2021-06-10 16:39:31 25.91 ℃ 44.11 % 1020.37 hPa
2021-06-10 16:29:31 25.75 ℃ 44.3 % 1020.47 hPa
2021-06-10 16:19:31 25.8 ℃ 45.14 % 1020.52 hPa
2021-06-10 16:09:31 25.73 ℃ 48.9 % 1020.56 hPa
2021-06-10 15:59:31 25.2 ℃ 50.38 % 1020.66 hPa
2021-06-10 15:49:31 25.33 ℃ 49.63 % 1020.75 hPa
2021-06-10 15:39:31 25.45 ℃ 49 % 1020.83 hPa
2021-06-10 15:29:31 25.65 ℃ 50.28 % 1020.85 hPa
2021-06-10 15:19:31 25.9 ℃ 49.95 % 1020.92 hPa
2021-06-10 15:09:31 25.56 ℃ 51.75 % 1021.01 hPa
2021-06-10 14:59:31 25.64 ℃ 50.93 % 1021.08 hPa
2021-06-10 14:49:31 25.21 ℃ 51.78 % 1021.13 hPa
2021-06-10 14:39:31 25.25 ℃ 51.52 % 1021.17 hPa
2021-06-10 14:29:31 25.46 ℃ 50.17 % 1021.18 hPa
2021-06-10 14:19:31 25.82 ℃ 49.56 % 1021.15 hPa
2021-06-10 14:09:31 25.56 ℃ 50.51 % 1021.16 hPa
2021-06-10 13:59:31 25.38 ℃ 51.51 % 1021.18 hPa
2021-06-10 13:49:31 25.74 ℃ 50.82 % 1021.2 hPa
2021-06-10 13:39:31 26.27 ℃ 49.35 % 1021.23 hPa
2021-06-10 13:29:31 25.8 ℃ 50.21 % 1021.29 hPa
2021-06-10 13:19:31 25.72 ℃ 49.4 % 1021.31 hPa
2021-06-10 13:09:31 25.52 ℃ 48.45 % 1021.34 hPa
2021-06-10 12:59:31 25.25 ℃ 48.13 % 1021.38 hPa
2021-06-10 12:49:31 25.15 ℃ 47.63 % 1021.39 hPa
2021-06-10 12:39:31 25.25 ℃ 47.5 % 1021.38 hPa
2021-06-10 12:29:31 25.1 ℃ 48.98 % 1021.39 hPa
2021-06-10 12:19:31 25.18 ℃ 49.4 % 1021.41 hPa
2021-06-10 12:09:31 25.39 ℃ 48.29 % 1021.45 hPa
2021-06-10 11:59:31 25.49 ℃ 49.78 % 1021.46 hPa
2021-06-10 11:49:31 25.68 ℃ 48.82 % 1021.45 hPa
2021-06-10 11:39:31 25.57 ℃ 48.77 % 1021.45 hPa
2021-06-10 11:29:31 25.45 ℃ 48.98 % 1021.47 hPa
2021-06-10 11:19:31 25.55 ℃ 50 % 1021.51 hPa
2021-06-10 11:09:31 25.24 ℃ 53 % 1021.48 hPa
2021-06-10 10:59:31 25.01 ℃ 56.33 % 1021.46 hPa
2021-06-10 10:49:31 24.78 ℃ 56.99 % 1021.47 hPa
2021-06-10 10:39:31 25.05 ℃ 58.36 % 1021.5 hPa
2021-06-10 10:29:31 24.68 ℃ 62.86 % 1021.52 hPa
2021-06-10 10:19:31 24.66 ℃ 62.4 % 1021.53 hPa
2021-06-10 10:09:32 24.82 ℃ 62.98 % 1021.55 hPa
2021-06-10 09:59:31 24.54 ℃ 64.52 % 1021.56 hPa
2021-06-10 09:49:32 24.57 ℃ 63.75 % 1021.52 hPa
2021-06-10 09:39:32 24.38 ℃ 64.35 % 1021.54 hPa
2021-06-10 09:29:32 24.73 ℃ 62.68 % 1021.49 hPa
2021-06-10 09:19:32 24.71 ℃ 64.41 % 1021.44 hPa
2021-06-10 09:09:32 24.18 ℃ 66.98 % 1021.43 hPa
2021-06-10 08:59:32 23.77 ℃ 69.77 % 1021.35 hPa
2021-06-10 08:49:32 23.9 ℃ 68.12 % 1021.26 hPa
2021-06-10 08:39:32 24.16 ℃ 68.28 % 1021.2 hPa
2021-06-10 08:29:32 23.82 ℃ 69.7 % 1021.11 hPa
2021-06-10 08:19:32 24.32 ℃ 66.5 % 1021.07 hPa
2021-06-10 08:09:32 23.79 ℃ 72.57 % 1021.06 hPa
2021-06-10 07:59:32 23.85 ℃ 73.02 % 1021.07 hPa
2021-06-10 07:49:32 23.43 ℃ 76.81 % 1021.03 hPa
2021-06-10 07:39:32 23.07 ℃ 76.33 % 1020.94 hPa
2021-06-10 07:29:32 23.06 ℃ 75.69 % 1020.88 hPa
2021-06-10 07:19:32 22.81 ℃ 76.73 % 1020.85 hPa
2021-06-10 07:09:32 22.44 ℃ 78.54 % 1020.9 hPa
2021-06-10 06:59:32 22.75 ℃ 75.61 % 1020.85 hPa
2021-06-10 06:49:32 22.86 ℃ 73.28 % 1020.82 hPa
2021-06-10 06:39:32 23.32 ℃ 69.2 % 1020.81 hPa
2021-06-10 06:29:32 23.45 ℃ 68.04 % 1020.8 hPa
2021-06-10 06:19:32 23.39 ℃ 67.9 % 1020.81 hPa
2021-06-10 06:09:32 23.36 ℃ 66.57 % 1020.78 hPa
2021-06-10 05:59:32 22.94 ℃ 69.14 % 1020.79 hPa
2021-06-10 05:49:32 21.94 ℃ 75.55 % 1020.87 hPa
2021-06-10 05:39:32 20.82 ℃ 82.19 % 1020.95 hPa
2021-06-10 05:29:32 20.41 ℃ 84.64 % 1020.98 hPa
2021-06-10 05:19:32 19.71 ℃ 89.34 % 1021.01 hPa
2021-06-10 05:09:32 19.4 ℃ 91.76 % 1021.04 hPa
2021-06-10 04:59:32 19.11 ℃ 93.76 % 1021.07 hPa
2021-06-10 04:49:32 18.98 ℃ 94.29 % 1021.11 hPa
2021-06-10 04:39:32 18.62 ℃ 96.76 % 1021.13 hPa
2021-06-10 04:29:32 18.39 ℃ 98.27 % 1021.16 hPa
2021-06-10 04:19:32 18.51 ℃ 98.15 % 1021.18 hPa
2021-06-10 04:09:32 18.72 ℃ 97.14 % 1021.2 hPa
2021-06-10 03:59:32 18.65 ℃ 97.85 % 1021.25 hPa
2021-06-10 03:49:32 18.58 ℃ 98.91 % 1021.31 hPa
2021-06-10 03:39:32 18.62 ℃ 98.77 % 1021.41 hPa
2021-06-10 03:29:32 18.6 ℃ 98.78 % 1021.48 hPa
2021-06-10 03:19:32 18.62 ℃ 98.11 % 1021.55 hPa
2021-06-10 03:09:32 18.88 ℃ 96.22 % 1021.6 hPa
2021-06-10 02:59:32 19.21 ℃ 93.35 % 1021.65 hPa
2021-06-10 02:49:32 19.46 ℃ 91.07 % 1021.67 hPa
2021-06-10 02:39:32 19.46 ℃ 90.76 % 1021.69 hPa
2021-06-10 02:29:32 19.69 ℃ 88.64 % 1021.76 hPa
2021-06-10 02:19:32 19.98 ℃ 85.7 % 1021.81 hPa
2021-06-10 02:09:32 20.24 ℃ 83.68 % 1021.81 hPa
2021-06-10 01:59:32 20.12 ℃ 85.09 % 1021.85 hPa
2021-06-10 01:49:32 19.71 ℃ 88.4 % 1021.87 hPa
2021-06-10 01:39:32 19.55 ℃ 90.23 % 1021.88 hPa
2021-06-10 01:29:32 19.64 ℃ 89.2 % 1021.88 hPa
2021-06-10 01:19:32 19.87 ℃ 87.26 % 1021.83 hPa
2021-06-10 01:09:32 20.16 ℃ 84.47 % 1021.79 hPa
2021-06-10 00:59:32 20.28 ℃ 82.84 % 1021.78 hPa
2021-06-10 00:49:32 20.72 ℃ 78.25 % 1021.8 hPa
2021-06-10 00:39:32 20.98 ℃ 75.41 % 1021.79 hPa
2021-06-10 00:29:32 21.12 ℃ 73.4 % 1021.82 hPa
2021-06-10 00:19:32 21.46 ℃ 69.79 % 1021.78 hPa
2021-06-10 00:09:32 22.04 ℃ 65.4 % 1021.74 hPa
2021-06-09 23:59:32 22.37 ℃ 62.73 % 1021.69 hPa
2021-06-09 23:49:32 22.35 ℃ 62.36 % 1021.63 hPa
2021-06-09 23:39:32 22.49 ℃ 61.14 % 1021.63 hPa
2021-06-09 23:29:33 22.44 ℃ 60.6 % 1021.58 hPa
2021-06-09 23:19:33 22.5 ℃ 59.35 % 1021.5 hPa
2021-06-09 23:09:32 22.35 ℃ 59.55 % 1021.44 hPa
2021-06-09 22:59:32 22.5 ℃ 58.04 % 1021.39 hPa
2021-06-09 22:49:33 22.68 ℃ 56.91 % 1021.34 hPa
2021-06-09 22:39:32 22.98 ℃ 54.84 % 1021.27 hPa
2021-06-09 22:29:33 23.19 ℃ 53.5 % 1021.23 hPa
2021-06-09 22:19:33 23.29 ℃ 52.72 % 1021.21 hPa
2021-06-09 22:09:33 23.38 ℃ 51.93 % 1021.19 hPa
2021-06-09 21:59:33 23.38 ℃ 51.54 % 1021.19 hPa
2021-06-09 20:26:08 23.69 ℃ 45.5 % 1020.91 hPa
2021-06-09 20:15:57 23.85 ℃ 46.54 % 1020.93 hPa
2021-06-09 20:05:57 23.75 ℃ 46.61 % 1020.97 hPa
2021-06-09 19:55:57 24.09 ℃ 47.88 % 1021.01 hPa
2021-06-09 19:45:57 24.22 ℃ 47.61 % 1021.03 hPa
2021-06-09 19:35:57 24.37 ℃ 48.51 % 1021.08 hPa
2021-06-09 19:25:57 24.46 ℃ 49.47 % 1021.1 hPa
2021-06-09 19:15:57 24.76 ℃ 49.49 % 1021.1 hPa
2021-06-09 19:05:57 24.81 ℃ 50.04 % 1021.12 hPa
2021-06-09 18:55:57 24.6 ℃ 51.27 % 1021.14 hPa
2021-06-09 18:45:58 24.44 ℃ 49.77 % 1021.17 hPa
2021-06-09 18:35:58 24.64 ℃ 48.94 % 1021.19 hPa
2021-06-09 18:25:57 24.49 ℃ 49.38 % 1021.22 hPa
2021-06-09 18:15:58 24.67 ℃ 49.21 % 1021.26 hPa
2021-06-09 18:05:58 24.79 ℃ 48.37 % 1021.28 hPa
2021-06-09 17:55:58 24.93 ℃ 47.93 % 1021.27 hPa
2021-06-09 17:45:58 25.08 ℃ 47.97 % 1021.28 hPa
2021-06-09 17:35:58 25.38 ℃ 46.99 % 1021.32 hPa
2021-06-09 17:25:58 25.27 ℃ 47.35 % 1021.36 hPa
2021-06-09 17:15:58 25.45 ℃ 46.6 % 1021.39 hPa
2021-06-09 17:05:58 25.7 ℃ 46.36 % 1021.45 hPa
2021-06-09 16:55:58 25.76 ℃ 45.4 % 1021.49 hPa
2021-06-09 16:45:58 25.68 ℃ 45.8 % 1021.57 hPa
2021-06-09 16:35:58 25.87 ℃ 45.7 % 1021.61 hPa
2021-06-09 16:25:58 25.71 ℃ 45.02 % 1021.67 hPa
2021-06-09 16:15:58 25.94 ℃ 44.17 % 1021.71 hPa
2021-06-09 16:05:58 25.96 ℃ 43.71 % 1021.8 hPa
2021-06-09 15:55:58 25.91 ℃ 44.41 % 1021.84 hPa
2021-06-09 15:45:58 25.79 ℃ 43.94 % 1021.93 hPa
2021-06-09 15:35:58 25.69 ℃ 44.45 % 1022.01 hPa
2021-06-09 15:25:58 25.66 ℃ 43.84 % 1022.08 hPa
2021-06-09 15:15:58 25.71 ℃ 43.24 % 1022.1 hPa
2021-06-09 15:05:58 25.64 ℃ 44.37 % 1022.15 hPa
2021-06-09 14:55:58 25.58 ℃ 44.38 % 1022.16 hPa
2021-06-09 14:45:58 25.61 ℃ 44.69 % 1022.18 hPa
2021-06-09 14:35:58 25.58 ℃ 45.63 % 1022.22 hPa
2021-06-09 14:25:58 25.85 ℃ 45.06 % 1022.26 hPa
2021-06-09 14:15:58 25.43 ℃ 46.36 % 1022.26 hPa
2021-06-09 14:05:58 25.36 ℃ 48.48 % 1022.31 hPa
2021-06-09 13:55:58 25.65 ℃ 48.45 % 1022.32 hPa
2021-06-09 13:45:58 25.64 ℃ 48.62 % 1022.36 hPa
2021-06-09 13:35:58 26 ℃ 46.39 % 1022.38 hPa
2021-06-09 13:25:58 26.4 ℃ 43.53 % 1022.35 hPa
2021-06-09 13:15:58 26.28 ℃ 44.34 % 1022.38 hPa
2021-06-09 13:05:58 26.56 ℃ 44.36 % 1022.42 hPa
2021-06-09 12:55:58 26.8 ℃ 42.07 % 1022.45 hPa
2021-06-09 12:45:58 26.4 ℃ 42.06 % 1022.5 hPa
2021-06-09 12:35:59 26.38 ℃ 41.89 % 1022.58 hPa
2021-06-09 12:25:58 26.55 ℃ 41.04 % 1022.66 hPa
2021-06-09 12:15:58 26.28 ℃ 41.7 % 1022.73 hPa
2021-06-09 12:05:58 25.99 ℃ 41.52 % 1022.74 hPa
2021-06-09 11:55:58 25.81 ℃ 41.95 % 1022.74 hPa
2021-06-09 11:45:58 25.92 ℃ 42.18 % 1022.7 hPa
2021-06-09 11:35:58 25.9 ℃ 43.01 % 1022.7 hPa
2021-06-09 11:25:58 25.98 ℃ 43.17 % 1022.7 hPa
2021-06-09 11:15:58 25.86 ℃ 43.95 % 1022.71 hPa
2021-06-09 11:05:58 25.44 ℃ 46.49 % 1022.72 hPa
2021-06-09 10:55:58 25.09 ℃ 47.07 % 1022.76 hPa
2021-06-09 10:45:58 25.3 ℃ 47.6 % 1022.75 hPa
2021-06-09 10:35:58 25.15 ℃ 48.93 % 1022.74 hPa
2021-06-09 10:25:58 25.26 ℃ 50.73 % 1022.77 hPa
2021-06-09 10:15:58 25.13 ℃ 50.03 % 1022.82 hPa
2021-06-09 10:05:58 25.02 ℃ 50.61 % 1022.83 hPa
2021-06-09 09:55:58 24.82 ℃ 51.26 % 1022.87 hPa
2021-06-09 09:45:58 24.98 ℃ 51.2 % 1022.87 hPa
2021-06-09 09:35:58 24.89 ℃ 50.57 % 1022.91 hPa
2021-06-09 09:25:58 25.06 ℃ 49.46 % 1022.9 hPa
2021-06-09 09:15:58 24.67 ℃ 50.16 % 1022.99 hPa
2021-06-09 09:05:58 24.39 ℃ 49.36 % 1023.06 hPa
2021-06-09 08:55:58 24.38 ℃ 48.75 % 1023.06 hPa
2021-06-09 08:45:58 24.02 ℃ 49.43 % 1023.09 hPa
2021-06-09 08:35:58 24.1 ℃ 49.26 % 1023.12 hPa
2021-06-09 08:25:59 23.84 ℃ 50.34 % 1023.12 hPa
2021-06-09 08:15:58 23.86 ℃ 50.46 % 1023.14 hPa
2021-06-09 08:05:58 23.9 ℃ 50.23 % 1023.15 hPa
2021-06-09 07:55:58 23.59 ℃ 52.69 % 1023.2 hPa
2021-06-09 07:45:58 23.48 ℃ 57.62 % 1023.18 hPa
2021-06-09 07:35:58 22.98 ℃ 59.64 % 1023.19 hPa
2021-06-09 07:25:59 23.15 ℃ 60.63 % 1023.2 hPa
2021-06-09 07:15:58 22.8 ℃ 65.92 % 1023.21 hPa
2021-06-09 07:05:58 22.62 ℃ 69.85 % 1023.19 hPa
2021-06-09 06:55:58 22.36 ℃ 71.64 % 1023.17 hPa
2021-06-09 06:45:58 22.61 ℃ 71.79 % 1023.19 hPa
2021-06-09 06:35:58 22.46 ℃ 74.63 % 1023.2 hPa
2021-06-09 06:25:59 21.91 ℃ 78.57 % 1023.2 hPa
2021-06-09 06:15:59 21.62 ℃ 80.96 % 1023.24 hPa
2021-06-09 06:05:59 20.2 ℃ 91.46 % 1023.26 hPa
2021-06-09 05:55:59 21.09 ℃ 84.88 % 1023.26 hPa
2021-06-09 05:45:59 22.73 ℃ 74.66 % 1023.22 hPa
2021-06-09 05:35:59 21.72 ℃ 83.1 % 1023.25 hPa
2021-06-09 05:25:59 19.62 ℃ 97.18 % 1023.33 hPa
2021-06-09 05:15:59 19.13 ℃ 99.16 % 1023.38 hPa
2021-06-09 05:05:59 18.98 ℃ 99.47 % 1023.39 hPa
2021-06-09 04:55:59 18.49 ℃ 99.99 % 1023.45 hPa
2021-06-09 04:45:59 18.27 ℃ 99.99 % 1023.45 hPa
2021-06-09 04:35:59 18.47 ℃ 99.97 % 1023.46 hPa
2021-06-09 04:25:59 18.36 ℃ 99.95 % 1023.48 hPa
2021-06-09 04:15:59 18.24 ℃ 99.9 % 1023.52 hPa
2021-06-09 04:05:59 18.3 ℃ 99.79 % 1023.5 hPa
2021-06-09 03:55:59 18.36 ℃ 99.58 % 1023.5 hPa
2021-06-09 03:45:59 18.46 ℃ 99.17 % 1023.51 hPa
2021-06-09 03:35:59 18.58 ℃ 98.33 % 1023.56 hPa
2021-06-09 03:25:59 18.75 ℃ 96.67 % 1023.6 hPa
2021-06-09 03:15:59 18.78 ℃ 94.76 % 1023.62 hPa
2021-06-09 03:05:59 19.16 ℃ 90.54 % 1023.62 hPa
2021-06-09 02:55:59 19.27 ℃ 89.43 % 1023.64 hPa
2021-06-09 02:45:59 19.55 ℃ 87.56 % 1023.61 hPa
2021-06-09 02:35:59 19.64 ℃ 86.33 % 1023.64 hPa
2021-06-09 02:25:59 19.58 ℃ 89 % 1023.66 hPa
2021-06-09 02:15:59 19.27 ℃ 93.27 % 1023.74 hPa
2021-06-09 02:05:59 19.41 ℃ 93.68 % 1023.76 hPa
2021-06-09 01:55:59 19.59 ℃ 92.34 % 1023.79 hPa
2021-06-09 01:45:59 19.7 ℃ 90.42 % 1023.83 hPa
2021-06-09 01:35:59 19.89 ℃ 87.51 % 1023.88 hPa
2021-06-09 01:25:59 19.79 ℃ 86.72 % 1023.9 hPa
2021-06-09 01:15:59 19.63 ℃ 86.39 % 1023.94 hPa
2021-06-09 01:05:59 19.77 ℃ 83.61 % 1023.97 hPa
2021-06-09 00:55:59 19.94 ℃ 81.86 % 1023.99 hPa
2021-06-09 00:45:59 20.43 ℃ 79.67 % 1024.01 hPa
2021-06-09 00:35:59 20.72 ℃ 75.5 % 1024.04 hPa
2021-06-09 00:25:59 21.18 ℃ 71.39 % 1024.06 hPa
2021-06-09 00:15:59 21.51 ℃ 67.31 % 1024.09 hPa
2021-06-09 00:05:59 21.33 ℃ 67.97 % 1024.1 hPa
2021-06-08 23:55:59 21.47 ℃ 65.78 % 1024.09 hPa
2021-06-08 23:45:59 21.57 ℃ 62.14 % 1024.08 hPa
2021-06-08 23:35:59 21.5 ℃ 60.04 % 1024.05 hPa
2021-06-08 23:25:59 21.22 ℃ 59.23 % 1024.03 hPa
2021-06-08 23:15:59 20.71 ℃ 61.42 % 1024.05 hPa
2021-06-08 23:05:59 20.74 ℃ 59.75 % 1023.99 hPa
2021-06-08 22:55:59 21.01 ℃ 58.13 % 1023.93 hPa
2021-06-08 22:45:59 21.17 ℃ 57.76 % 1023.88 hPa
2021-06-08 22:35:59 21.19 ℃ 58.1 % 1023.85 hPa
2021-06-08 22:25:59 21 ℃ 59.4 % 1023.77 hPa
2021-06-08 22:15:59 20.96 ℃ 59.99 % 1023.75 hPa
2021-06-08 22:05:59 20.95 ℃ 60.31 % 1023.71 hPa
2021-06-08 21:55:59 21.07 ℃ 60.01 % 1023.64 hPa
2021-06-08 21:45:59 21.16 ℃ 60.27 % 1023.57 hPa
2021-06-08 21:35:59 21.27 ℃ 60.27 % 1023.52 hPa
2021-06-08 21:25:59 21.38 ℃ 60.4 % 1023.48 hPa
2021-06-08 21:15:59 21.57 ℃ 59.91 % 1023.44 hPa
2021-06-08 21:05:59 21.97 ℃ 58.25 % 1023.37 hPa
2021-06-08 20:55:59 22.19 ℃ 57.06 % 1023.29 hPa
2021-06-08 20:46:00 22.25 ℃ 56.51 % 1023.24 hPa
2021-06-08 20:35:59 22.3 ℃ 56.34 % 1023.23 hPa
2021-06-08 20:26:00 22.2 ℃ 56.34 % 1023.28 hPa
2021-06-08 20:15:59 22.42 ℃ 56.03 % 1023.24 hPa
2021-06-08 20:05:59 22.54 ℃ 57.27 % 1023.21 hPa
2021-06-08 19:55:59 22.77 ℃ 56.62 % 1023.22 hPa
2021-06-08 19:46:00 22.92 ℃ 54.08 % 1023.2 hPa
2021-06-08 19:35:59 22.96 ℃ 52.5 % 1023.16 hPa
2021-06-08 19:25:59 23.49 ℃ 49.57 % 1023.16 hPa
2021-06-08 19:16:00 23.66 ℃ 48.71 % 1023.17 hPa
2021-06-08 19:06:00 23.76 ℃ 48.42 % 1023.24 hPa
2021-06-08 18:55:59 23.85 ℃ 48.31 % 1023.25 hPa
2021-06-08 18:46:00 24.37 ℃ 46.62 % 1023.24 hPa
2021-06-08 18:36:00 24.14 ℃ 46.94 % 1023.3 hPa
2021-06-08 18:26:00 24.17 ℃ 47.03 % 1023.33 hPa
2021-06-08 18:16:00 24.1 ℃ 47.49 % 1023.39 hPa
2021-06-08 18:06:00 24.74 ℃ 45.24 % 1023.45 hPa
2021-06-08 17:56:00 24.56 ℃ 46.16 % 1023.52 hPa
2021-06-08 17:46:00 24.4 ℃ 46.65 % 1023.6 hPa
2021-06-08 17:36:00 24.63 ℃ 45.76 % 1023.61 hPa
2021-06-08 17:26:00 24.37 ℃ 45.78 % 1023.66 hPa
2021-06-08 17:16:00 24.22 ℃ 45.96 % 1023.72 hPa
2021-06-08 17:06:00 23.91 ℃ 47.73 % 1023.79 hPa
2021-06-08 16:56:00 23.7 ℃ 48.8 % 1023.88 hPa
2021-06-08 16:46:00 23.3 ℃ 49.43 % 1023.94 hPa
2021-06-08 16:36:00 23.34 ℃ 48.69 % 1023.99 hPa
2021-06-08 16:26:00 23.07 ℃ 48.77 % 1024.1 hPa
2021-06-08 16:16:00 22.97 ℃ 48.53 % 1024.15 hPa
2021-06-08 16:06:00 22.97 ℃ 47.76 % 1024.22 hPa
2021-06-08 15:56:00 22.81 ℃ 47.91 % 1024.26 hPa
2021-06-08 15:46:00 22.22 ℃ 48.4 % 1024.32 hPa
2021-06-08 15:36:00 22.03 ℃ 47.64 % 1024.34 hPa
2021-06-08 15:26:00 21.85 ℃ 46.77 % 1024.37 hPa
2021-06-08 15:16:00 21.9 ℃ 44.52 % 1024.41 hPa
2021-06-08 15:06:00 21.96 ℃ 43.73 % 1024.48 hPa
2021-06-08 14:56:00 21.83 ℃ 42.59 % 1024.57 hPa
2021-06-08 14:46:00 22.2 ℃ 42.49 % 1024.59 hPa
2021-06-08 14:36:00 22.21 ℃ 43.11 % 1024.69 hPa
2021-06-08 14:26:00 22.14 ℃ 43.77 % 1024.72 hPa
2021-06-08 14:16:00 22.02 ℃ 45.64 % 1024.76 hPa
2021-06-08 14:06:00 21.82 ℃ 48.19 % 1024.79 hPa
2021-06-08 13:56:00 22.12 ℃ 48.39 % 1024.85 hPa
2021-06-08 13:46:00 22 ℃ 49.41 % 1024.89 hPa
2021-06-08 13:36:00 21.87 ℃ 50.53 % 1024.91 hPa
2021-06-08 13:26:00 21.51 ℃ 52.22 % 1024.89 hPa
2021-06-08 13:16:00 21.57 ℃ 52.33 % 1024.93 hPa
2021-06-08 13:06:00 21.59 ℃ 51.55 % 1024.92 hPa
2021-06-08 12:56:00 21.75 ℃ 49.72 % 1024.92 hPa
2021-06-08 12:46:00 21.78 ℃ 46.62 % 1024.95 hPa
2021-06-08 12:36:00 21.69 ℃ 44.02 % 1025.06 hPa
2021-06-08 12:26:00 21.37 ℃ 43.3 % 1025.07 hPa
2021-06-08 12:16:00 21.05 ℃ 44.74 % 1025.06 hPa
2021-06-08 12:06:00 20.91 ℃ 45.95 % 1025.08 hPa
2021-06-08 11:56:00 20.71 ℃ 47.73 % 1025.09 hPa
2021-06-08 11:46:00 20.73 ℃ 50.51 % 1025.1 hPa
2021-06-08 11:36:00 20.87 ℃ 52.78 % 1025.14 hPa
2021-06-08 11:26:00 20.97 ℃ 52.97 % 1025.18 hPa
2021-06-08 11:16:00 20.7 ℃ 56.33 % 1025.17 hPa
2021-06-08 11:06:00 20.41 ℃ 61.23 % 1025.23 hPa
2021-06-08 10:56:00 20.43 ℃ 61.24 % 1025.27 hPa
2021-06-08 10:46:00 20.26 ℃ 62.34 % 1025.29 hPa
2021-06-08 10:36:00 20.43 ℃ 60.65 % 1025.27 hPa
2021-06-08 10:26:00 20.14 ℃ 62.66 % 1025.27 hPa
2021-06-08 10:16:00 20.33 ℃ 63.63 % 1025.25 hPa
2021-06-08 10:06:00 20.58 ℃ 65.98 % 1025.22 hPa
2021-06-08 09:56:00 19.99 ℃ 70.32 % 1025.24 hPa
2021-06-08 09:46:00 20.12 ℃ 74.38 % 1025.21 hPa
2021-06-08 09:36:00 19.98 ℃ 78.47 % 1025.13 hPa
2021-06-08 09:26:00 19.96 ℃ 86.69 % 1025.07 hPa
2021-06-08 09:16:00 19.4 ℃ 88.68 % 1025.03 hPa
2021-06-08 09:06:00 19.31 ℃ 90.4 % 1025.04 hPa
2021-06-08 08:56:00 19.32 ℃ 94.14 % 1024.97 hPa
2021-06-08 08:46:01 19.03 ℃ 98.71 % 1024.91 hPa
2021-06-08 08:36:00 18.86 ℃ 100 % 1024.89 hPa
2021-06-08 08:26:00 18.69 ℃ 100 % 1024.87 hPa
2021-06-08 08:16:01 18.84 ℃ 100 % 1024.84 hPa
2021-06-08 08:06:00 19.3 ℃ 100 % 1024.82 hPa
2021-06-08 07:56:01 19.23 ℃ 100 % 1024.76 hPa
2021-06-08 07:46:01 18.98 ℃ 100 % 1024.77 hPa
2021-06-08 07:36:01 18.88 ℃ 100 % 1024.8 hPa
2021-06-08 07:26:01 18.62 ℃ 100 % 1024.81 hPa
2021-06-08 07:16:01 18.65 ℃ 100 % 1024.79 hPa
2021-06-08 07:06:01 18.81 ℃ 100 % 1024.8 hPa
2021-06-08 06:56:01 17.99 ℃ 100 % 1024.77 hPa
2021-06-08 06:46:01 18.11 ℃ 100 % 1024.73 hPa
2021-06-08 06:36:01 17.98 ℃ 100 % 1024.66 hPa
2021-06-08 06:26:01 18.04 ℃ 100 % 1024.62 hPa
2021-06-08 06:16:01 18.45 ℃ 100 % 1024.56 hPa
2021-06-08 06:06:01 18.22 ℃ 100 % 1024.57 hPa
2021-06-08 05:56:01 17.73 ℃ 100 % 1024.57 hPa
2021-06-08 05:46:01 17.1 ℃ 100 % 1024.59 hPa
2021-06-08 05:36:01 16.64 ℃ 100 % 1024.57 hPa
2021-06-08 05:26:01 16.37 ℃ 100 % 1024.53 hPa
2021-06-08 05:16:01 16.19 ℃ 100 % 1024.49 hPa
2021-06-08 05:06:01 16.03 ℃ 100 % 1024.47 hPa
2021-06-08 04:56:01 16.37 ℃ 100 % 1024.43 hPa
2021-06-08 04:46:01 16.78 ℃ 100 % 1024.4 hPa
2021-06-08 04:36:01 16.71 ℃ 100 % 1024.37 hPa
2021-06-08 04:26:01 16.59 ℃ 100 % 1024.35 hPa
2021-06-08 04:16:01 16.51 ℃ 100 % 1024.33 hPa
2021-06-08 04:06:01 16.54 ℃ 100 % 1024.3 hPa
2021-06-08 03:56:01 16.81 ℃ 100 % 1024.27 hPa
2021-06-08 03:46:01 16.93 ℃ 100 % 1024.26 hPa
2021-06-08 03:36:01 16.97 ℃ 100 % 1024.26 hPa
2021-06-08 03:26:01 17.02 ℃ 100 % 1024.24 hPa
2021-06-08 03:16:01 17.22 ℃ 100 % 1024.24 hPa
2021-06-08 03:06:01 17.24 ℃ 100 % 1024.24 hPa
2021-06-08 02:56:01 17.35 ℃ 100 % 1024.24 hPa
2021-06-08 02:46:01 17.49 ℃ 100 % 1024.28 hPa
2021-06-08 02:36:01 17.61 ℃ 100 % 1024.3 hPa
2021-06-08 02:26:01 17.63 ℃ 100 % 1024.34 hPa
2021-06-08 02:16:01 17.74 ℃ 100 % 1024.34 hPa
2021-06-08 02:06:01 17.89 ℃ 100 % 1024.34 hPa
2021-06-08 01:56:01 18.12 ℃ 100 % 1024.33 hPa
2021-06-08 01:46:01 18.17 ℃ 100 % 1024.25 hPa
2021-06-08 01:36:01 18.26 ℃ 100 % 1024.27 hPa
2021-06-08 01:26:01 18.37 ℃ 100 % 1024.3 hPa
2021-06-08 01:16:01 18.51 ℃ 100 % 1024.29 hPa
2021-06-08 01:06:01 18.59 ℃ 100 % 1024.23 hPa
2021-06-08 00:56:01 18.67 ℃ 100 % 1024.2 hPa
2021-06-08 00:46:01 18.84 ℃ 100 % 1024.17 hPa
2021-06-08 00:36:01 19.1 ℃ 100 % 1024.14 hPa
2021-06-08 00:26:01 19.67 ℃ 100 % 1024.12 hPa
2021-06-08 00:16:01 20.22 ℃ 100 % 1024.11 hPa
2021-06-08 00:06:01 20.35 ℃ 100 % 1024.04 hPa
2021-06-07 23:56:01 20.31 ℃ 100 % 1023.99 hPa
2021-06-07 23:46:01 20.3 ℃ 100 % 1023.95 hPa
2021-06-07 23:36:01 20.08 ℃ 100 % 1023.9 hPa
2021-06-07 23:26:01 19.95 ℃ 99.99 % 1023.88 hPa
2021-06-07 23:16:01 19.81 ℃ 99.98 % 1023.87 hPa
2021-06-07 23:06:01 19.76 ℃ 99.97 % 1023.87 hPa
2021-06-07 22:56:01 19.85 ℃ 99.94 % 1023.92 hPa
2021-06-07 22:46:02 20.05 ℃ 99.87 % 1023.9 hPa
2021-06-07 22:36:01 20.17 ℃ 99.74 % 1023.88 hPa
2021-06-07 22:26:02 20.15 ℃ 99.48 % 1023.84 hPa
2021-06-07 22:16:01 20.24 ℃ 98.97 % 1023.79 hPa
2021-06-07 22:06:01 20.38 ℃ 97.93 % 1023.71 hPa
2021-06-07 21:56:01 20.45 ℃ 95.87 % 1023.62 hPa
2021-06-07 21:46:01 20.63 ℃ 91.73 % 1023.53 hPa
2021-06-07 21:36:01 20.74 ℃ 88.65 % 1023.45 hPa
2021-06-07 21:26:01 20.83 ℃ 87.32 % 1023.39 hPa
2021-06-07 21:16:01 20.62 ℃ 86.74 % 1023.34 hPa
2021-06-07 21:06:02 20.66 ℃ 86.2 % 1023.32 hPa
2021-06-07 20:56:01 20.6 ℃ 86.52 % 1023.32 hPa
2021-06-07 20:46:02 20.63 ℃ 87.35 % 1023.3 hPa
2021-06-07 20:36:02 20.75 ℃ 89.75 % 1023.27 hPa
2021-06-07 20:26:02 20.59 ℃ 90.36 % 1023.25 hPa
2021-06-07 20:16:02 20.48 ℃ 90.82 % 1023.24 hPa
2021-06-07 20:06:02 20.09 ℃ 92.5 % 1023.24 hPa
2021-06-07 19:56:02 19.67 ℃ 96.6 % 1023.27 hPa
2021-06-07 19:46:02 19.18 ℃ 100 % 1023.27 hPa
2021-06-07 19:08:44 20.51 ℃ 100 % 1023.2 hPa
2021-06-07 18:58:45 20.7 ℃ 100 % 1023.17 hPa
2021-06-07 18:48:45 20.79 ℃ 100 % 1023.17 hPa
2021-06-07 18:38:45 20.68 ℃ 100 % 1023.17 hPa
2021-06-07 18:28:45 20.62 ℃ 100 % 1023.17 hPa
2021-06-07 18:18:45 20.38 ℃ 100 % 1023.26 hPa
2021-06-07 18:08:45 20.39 ℃ 100 % 1023.28 hPa
2021-06-07 17:58:45 20.42 ℃ 100 % 1023.34 hPa
2021-06-07 17:48:45 20.11 ℃ 100 % 1023.37 hPa
2021-06-07 17:38:45 20.18 ℃ 100 % 1023.43 hPa
2021-06-07 17:28:45 20.15 ℃ 100 % 1023.45 hPa
2021-06-07 17:18:45 20.21 ℃ 100 % 1023.48 hPa
2021-06-07 17:08:45 20.21 ℃ 100 % 1023.57 hPa
2021-06-07 16:58:45 20.02 ℃ 100 % 1023.66 hPa
2021-06-07 16:48:45 20.01 ℃ 100 % 1023.72 hPa
2021-06-07 16:38:45 20.17 ℃ 100 % 1023.67 hPa
2021-06-07 16:28:45 20.14 ℃ 100 % 1023.74 hPa
2021-06-07 16:18:45 19.94 ℃ 100 % 1023.84 hPa
2021-06-07 16:08:45 20.36 ℃ 100 % 1023.85 hPa
2021-06-07 15:58:45 20.27 ℃ 100 % 1023.9 hPa
2021-06-07 15:48:45 20.22 ℃ 100 % 1023.89 hPa
2021-06-07 15:38:45 20.13 ℃ 100 % 1023.98 hPa
2021-06-07 15:28:45 20.54 ℃ 100 % 1023.92 hPa
2021-06-07 15:18:45 20.46 ℃ 100 % 1023.94 hPa
2021-06-07 15:08:45 20.46 ℃ 100 % 1023.93 hPa
2021-06-07 14:58:45 20.34 ℃ 100 % 1023.92 hPa
2021-06-07 14:48:45 20.36 ℃ 100 % 1023.99 hPa
2021-06-07 14:38:45 20.55 ℃ 100 % 1023.99 hPa
2021-06-07 14:28:45 20.55 ℃ 100 % 1023.96 hPa
2021-06-07 14:18:45 20.57 ℃ 100 % 1023.98 hPa
2021-06-07 14:08:45 20.41 ℃ 100 % 1024.03 hPa
2021-06-07 13:58:45 20.28 ℃ 100 % 1024.01 hPa
2021-06-07 13:48:45 20.1 ℃ 100 % 1024.05 hPa
2021-06-07 13:38:45 20.01 ℃ 100 % 1024.04 hPa
2021-06-07 13:28:45 20.07 ℃ 100 % 1024.03 hPa
2021-06-07 13:18:45 20.19 ℃ 100 % 1023.99 hPa
2021-06-07 13:08:45 20.13 ℃ 100 % 1023.95 hPa
2021-06-07 12:58:45 20.13 ℃ 100 % 1023.9 hPa
2021-06-07 12:48:45 20.3 ℃ 100 % 1023.88 hPa
2021-06-07 12:38:45 20.57 ℃ 100 % 1023.87 hPa
2021-06-07 12:28:45 21.14 ℃ 100 % 1023.84 hPa
2021-06-07 12:18:45 21.31 ℃ 100 % 1023.78 hPa
2021-06-07 12:08:45 20.9 ℃ 100 % 1023.8 hPa
2021-06-07 11:58:45 20.71 ℃ 100 % 1023.8 hPa
2021-06-07 11:48:45 21.07 ℃ 100 % 1023.81 hPa
2021-06-07 11:38:45 21 ℃ 100 % 1023.81 hPa
2021-06-07 11:28:45 20.82 ℃ 100 % 1023.8 hPa
2021-06-07 11:18:45 20.85 ℃ 100 % 1023.76 hPa
2021-06-07 11:08:45 20.49 ℃ 100 % 1023.74 hPa
2021-06-07 10:58:45 20.65 ℃ 100 % 1023.74 hPa
2021-06-07 10:48:46 20.56 ℃ 100 % 1023.72 hPa
2021-06-07 10:38:46 20.43 ℃ 100 % 1023.66 hPa
2021-06-07 10:28:45 20.5 ℃ 100 % 1023.6 hPa
2021-06-07 10:18:45 20.24 ℃ 100 % 1023.6 hPa
2021-06-07 10:08:45 20.01 ℃ 100 % 1023.61 hPa
2021-06-07 09:58:45 19.91 ℃ 100 % 1023.58 hPa
2021-06-07 09:48:45 20.24 ℃ 100 % 1023.55 hPa
2021-06-07 09:38:45 20.48 ℃ 100 % 1023.52 hPa
2021-06-07 09:28:45 21.23 ℃ 100 % 1023.45 hPa
2021-06-07 09:18:45 21.16 ℃ 100 % 1023.42 hPa
2021-06-07 09:08:45 21.64 ℃ 100 % 1023.36 hPa
2021-06-07 08:58:45 21.61 ℃ 100 % 1023.26 hPa
2021-06-07 08:48:45 20.88 ℃ 100 % 1023.25 hPa
2021-06-07 08:38:46 20.62 ℃ 100 % 1023.23 hPa
2021-06-07 08:28:45 20.23 ℃ 100 % 1023.19 hPa
2021-06-07 08:18:45 19.42 ℃ 100 % 1023.17 hPa
2021-06-07 08:08:45 18.77 ℃ 100 % 1023.13 hPa
2021-06-07 07:58:46 18.68 ℃ 100 % 1023.11 hPa
2021-06-07 07:48:46 18.48 ℃ 100 % 1023.13 hPa
2021-06-07 07:38:46 18.24 ℃ 100 % 1023.09 hPa
2021-06-07 07:28:46 18.08 ℃ 100 % 1023.05 hPa
2021-06-07 07:18:46 17.97 ℃ 100 % 1023.06 hPa
2021-06-07 07:08:46 17.92 ℃ 100 % 1023.05 hPa
2021-06-07 06:58:46 17.98 ℃ 100 % 1023.06 hPa
2021-06-07 06:48:46 18.15 ℃ 100 % 1023.04 hPa
2021-06-07 06:38:46 18.11 ℃ 100 % 1023.03 hPa
2021-06-07 06:28:46 18.28 ℃ 100 % 1023.03 hPa
2021-06-07 06:18:46 18.44 ℃ 100 % 1022.99 hPa
2021-06-07 06:08:46 18.45 ℃ 100 % 1022.97 hPa
2021-06-07 05:58:46 18.39 ℃ 100 % 1022.96 hPa
2021-06-07 05:48:46 18.53 ℃ 100 % 1022.96 hPa
2021-06-07 05:38:46 18.6 ℃ 100 % 1022.97 hPa
2021-06-07 05:28:46 18.56 ℃ 100 % 1022.95 hPa
2021-06-07 05:18:46 18.41 ℃ 100 % 1022.91 hPa
2021-06-07 05:08:46 18.2 ℃ 100 % 1022.9 hPa
2021-06-07 04:58:46 18.21 ℃ 100 % 1022.89 hPa
2021-06-07 04:48:46 18.43 ℃ 100 % 1022.9 hPa
2021-06-07 04:38:46 18.5 ℃ 100 % 1022.88 hPa
2021-06-07 04:28:46 18.17 ℃ 100 % 1022.88 hPa
2021-06-07 04:18:46 18.03 ℃ 100 % 1022.9 hPa
2021-06-07 04:08:46 18.01 ℃ 100 % 1022.93 hPa
2021-06-07 03:58:46 18.28 ℃ 100 % 1022.95 hPa
2021-06-07 03:48:46 18.41 ℃ 100 % 1022.95 hPa
2021-06-07 03:38:46 18.46 ℃ 100 % 1022.96 hPa
2021-06-07 03:28:46 18.21 ℃ 100 % 1022.96 hPa
2021-06-07 03:18:46 18.03 ℃ 100 % 1022.98 hPa
2021-06-07 03:08:46 18.09 ℃ 100 % 1022.98 hPa
2021-06-07 02:58:46 18.29 ℃ 100 % 1023.02 hPa
2021-06-07 02:48:46 18.52 ℃ 100 % 1023 hPa
2021-06-07 02:38:46 18.5 ℃ 100 % 1022.99 hPa
2021-06-07 02:28:46 18.56 ℃ 100 % 1023 hPa
2021-06-07 02:18:46 18.78 ℃ 100 % 1023.03 hPa
2021-06-07 02:08:46 18.79 ℃ 100 % 1023.04 hPa
2021-06-07 01:58:46 18.69 ℃ 100 % 1023.06 hPa
2021-06-07 01:48:46 19 ℃ 100 % 1023.05 hPa
2021-06-07 01:38:47 18.9 ℃ 100 % 1023.03 hPa
2021-06-07 01:28:46 18.71 ℃ 100 % 1023.04 hPa
2021-06-07 01:18:46 18.56 ℃ 100 % 1023.05 hPa
2021-06-07 01:08:46 18.27 ℃ 100 % 1023.03 hPa
2021-06-07 00:58:46 18.11 ℃ 100 % 1023.03 hPa
2021-06-07 00:48:46 17.95 ℃ 100 % 1023.06 hPa
2021-06-07 00:38:46 17.94 ℃ 100 % 1023.11 hPa
2021-06-07 00:28:46 17.95 ℃ 100 % 1023.14 hPa
2021-06-07 00:18:46 18.01 ℃ 100 % 1023.16 hPa
2021-06-07 00:08:46 18.14 ℃ 100 % 1023.12 hPa
2021-06-06 23:58:46 18.13 ℃ 100 % 1023.11 hPa
2021-06-06 23:48:47 18.26 ℃ 100 % 1023.07 hPa
2021-06-06 23:38:46 18.07 ℃ 100 % 1023.08 hPa
2021-06-06 23:28:46 18.26 ℃ 100 % 1023.08 hPa
2021-06-06 23:18:46 18.15 ℃ 100 % 1023.11 hPa
2021-06-06 23:08:46 18.25 ℃ 100 % 1023.14 hPa
2021-06-06 22:58:46 18.44 ℃ 100 % 1023.14 hPa
2021-06-06 22:48:46 18.69 ℃ 100 % 1023.13 hPa
2021-06-06 22:38:46 19.11 ℃ 100 % 1023.1 hPa
2021-06-06 22:28:46 19.68 ℃ 100 % 1023.07 hPa
2021-06-06 22:18:46 20.16 ℃ 100 % 1023.02 hPa
2021-06-06 22:08:46 20.29 ℃ 100 % 1022.97 hPa
2021-06-06 21:58:46 20.15 ℃ 100 % 1022.94 hPa
2021-06-06 21:48:46 20.38 ℃ 100 % 1022.9 hPa
2021-06-06 21:38:46 20.67 ℃ 100 % 1022.83 hPa
2021-06-06 21:28:46 20.67 ℃ 100 % 1022.81 hPa
2021-06-06 21:18:46 20.68 ℃ 100 % 1022.76 hPa
2021-06-06 21:08:46 20.45 ℃ 100 % 1022.73 hPa
2021-06-06 20:58:46 20.33 ℃ 100 % 1022.69 hPa
2021-06-06 20:48:46 20.43 ℃ 100 % 1022.62 hPa
2021-06-06 20:38:47 20.76 ℃ 100 % 1022.56 hPa
2021-06-06 20:28:46 20.78 ℃ 100 % 1022.52 hPa
2021-06-06 20:18:47 20.82 ℃ 100 % 1022.49 hPa
2021-06-06 20:08:47 20.83 ℃ 99.99 % 1022.44 hPa
2021-06-06 19:58:47 20.33 ℃ 99.99 % 1022.4 hPa
2021-06-06 19:48:47 20.43 ℃ 99.98 % 1022.39 hPa
2021-06-06 19:38:47 20.79 ℃ 99.95 % 1022.38 hPa
2021-06-06 19:28:47 20.83 ℃ 99.9 % 1022.37 hPa
2021-06-06 19:18:47 21.12 ℃ 99.8 % 1022.36 hPa
2021-06-06 19:08:49 21.33 ℃ 99.61 % 1022.35 hPa
2021-06-06 18:58:47 21.36 ℃ 99.21 % 1022.36 hPa
2021-06-06 18:48:47 21.85 ℃ 98.42 % 1022.33 hPa
2021-06-06 18:38:47 22.45 ℃ 96.84 % 1022.38 hPa
2021-06-06 18:28:47 22.54 ℃ 94.89 % 1022.41 hPa
2021-06-06 18:18:47 22.93 ℃ 91.7 % 1022.42 hPa
2021-06-06 18:08:47 22.87 ℃ 91.67 % 1022.44 hPa
2021-06-06 17:58:47 22.7 ℃ 94.5 % 1022.46 hPa
2021-06-06 17:48:47 22.33 ℃ 96.49 % 1022.49 hPa
2021-06-06 17:38:47 22.02 ℃ 98.41 % 1022.47 hPa
2021-06-06 17:28:47 22.01 ℃ 97.01 % 1022.52 hPa
2021-06-06 17:18:47 21.6 ℃ 98.75 % 1022.53 hPa
2021-06-06 17:08:47 21.86 ℃ 97.5 % 1022.54 hPa
2021-06-06 16:58:47 22.32 ℃ 95.01 % 1022.52 hPa
2021-06-06 16:48:47 21.78 ℃ 98.53 % 1022.51 hPa
2021-06-06 16:38:47 22.18 ℃ 97.47 % 1022.56 hPa
2021-06-06 16:28:47 21.9 ℃ 100 % 1022.61 hPa
2021-06-06 16:18:47 22.03 ℃ 100 % 1022.6 hPa
2021-06-06 16:08:47 22.16 ℃ 100 % 1022.57 hPa
2021-06-06 15:58:47 21.89 ℃ 100 % 1022.52 hPa
2021-06-06 15:48:47 22 ℃ 100 % 1022.47 hPa
2021-06-06 15:38:47 22.07 ℃ 100 % 1022.45 hPa
2021-06-06 15:28:47 21.86 ℃ 100 % 1022.42 hPa
2021-06-06 15:18:47 21.8 ℃ 99.99 % 1022.42 hPa
2021-06-06 15:08:47 21.8 ℃ 99.98 % 1022.44 hPa
2021-06-06 14:58:47 21.26 ℃ 99.97 % 1022.43 hPa
2021-06-06 14:48:47 21.02 ℃ 99.93 % 1022.41 hPa
2021-06-06 14:38:47 21.12 ℃ 99.86 % 1022.39 hPa
2021-06-06 14:28:47 21.47 ℃ 99.72 % 1022.4 hPa
2021-06-06 14:18:47 21.89 ℃ 99.44 % 1022.4 hPa
2021-06-06 14:08:47 22.12 ℃ 98.89 % 1022.41 hPa
2021-06-06 13:58:47 22.04 ℃ 97.77 % 1022.44 hPa
2021-06-06 13:48:47 23.1 ℃ 95.55 % 1022.43 hPa
2021-06-06 13:38:47 23.38 ℃ 91.09 % 1022.37 hPa
2021-06-06 13:28:47 23.34 ℃ 89.98 % 1022.32 hPa
2021-06-06 13:18:47 23.52 ℃ 87.37 % 1022.27 hPa
2021-06-06 13:08:47 23.24 ℃ 87.71 % 1022.26 hPa
2021-06-06 12:58:47 23.1 ℃ 88.3 % 1022.22 hPa
2021-06-06 12:48:47 22.71 ℃ 90.17 % 1022.16 hPa
2021-06-06 12:38:47 22.69 ℃ 89.82 % 1022.11 hPa
2021-06-06 12:28:47 22.82 ℃ 89.42 % 1022.07 hPa
2021-06-06 12:18:47 22.82 ℃ 88.44 % 1022.05 hPa
2021-06-06 12:08:47 22.53 ℃ 89.54 % 1022.02 hPa
2021-06-06 11:58:47 22.9 ℃ 86.98 % 1021.97 hPa
2021-06-06 11:48:47 23.01 ℃ 86.57 % 1021.95 hPa
2021-06-06 11:38:47 22.75 ℃ 86.47 % 1021.94 hPa
2021-06-06 11:28:47 22.82 ℃ 85.75 % 1021.97 hPa
2021-06-06 11:18:47 22.8 ℃ 84.91 % 1021.96 hPa
2021-06-06 11:08:47 22.38 ℃ 85.97 % 1021.93 hPa
2021-06-06 10:58:47 21.73 ℃ 89.55 % 1021.89 hPa
2021-06-06 10:48:47 22.06 ℃ 86.71 % 1021.84 hPa
2021-06-06 10:38:47 21.7 ℃ 87.97 % 1021.8 hPa
2021-06-06 10:28:47 21.86 ℃ 86.21 % 1021.73 hPa
2021-06-06 10:18:47 21.33 ℃ 87.52 % 1021.71 hPa
2021-06-06 10:08:47 21.47 ℃ 85.87 % 1021.67 hPa
2021-06-06 09:58:48 21.22 ℃ 86.6 % 1021.7 hPa
2021-06-06 09:48:48 20.95 ℃ 88.33 % 1021.71 hPa
2021-06-06 09:38:47 20.75 ℃ 89.33 % 1021.67 hPa
2021-06-06 09:28:48 20.53 ℃ 90.96 % 1021.67 hPa
2021-06-06 09:18:47 19.57 ℃ 97.29 % 1021.69 hPa
2021-06-06 09:08:48 18.94 ℃ 99.38 % 1021.67 hPa
2021-06-06 08:58:47 18.83 ℃ 98.77 % 1021.64 hPa
2021-06-06 08:48:47 19.23 ℃ 97.53 % 1021.61 hPa
2021-06-06 08:38:47 19.11 ℃ 97.16 % 1021.6 hPa
2021-06-06 08:28:48 18.57 ℃ 99.23 % 1021.56 hPa
2021-06-06 08:18:48 17.94 ℃ 100 % 1021.53 hPa
2021-06-06 08:08:48 17.34 ℃ 100 % 1021.51 hPa
2021-06-06 07:58:48 17.49 ℃ 100 % 1021.45 hPa
2021-06-06 07:48:48 17.5 ℃ 100 % 1021.42 hPa
2021-06-06 07:38:48 17.05 ℃ 100 % 1021.38 hPa
2021-06-06 07:28:48 16.98 ℃ 100 % 1021.34 hPa
2021-06-06 07:18:48 16.97 ℃ 100 % 1021.25 hPa
2021-06-06 07:08:48 16.7 ℃ 100 % 1021.16 hPa
2021-06-06 06:58:48 16.61 ℃ 100 % 1021.12 hPa
2021-06-06 06:48:48 16.63 ℃ 100 % 1021.09 hPa
2021-06-06 06:38:48 16.6 ℃ 100 % 1021.12 hPa
2021-06-06 06:28:48 16.71 ℃ 99.99 % 1021.08 hPa
2021-06-06 06:18:48 16.73 ℃ 99.99 % 1021.09 hPa
2021-06-06 06:08:48 16.71 ℃ 99.97 % 1021.09 hPa
2021-06-06 05:58:48 16.92 ℃ 99.94 % 1021.07 hPa
2021-06-06 05:48:48 17.15 ℃ 99.89 % 1021.05 hPa
2021-06-06 05:38:48 17.31 ℃ 99.77 % 1021.04 hPa
2021-06-06 05:28:48 17.49 ℃ 99.55 % 1021.04 hPa
2021-06-06 05:18:48 17.63 ℃ 99.1 % 1021.04 hPa
2021-06-06 05:08:48 18 ℃ 98.19 % 1021.06 hPa
2021-06-06 04:58:48 18.23 ℃ 96.39 % 1021.07 hPa
2021-06-06 04:48:48 18.42 ℃ 93.89 % 1021.11 hPa
2021-06-06 04:38:48 18.44 ℃ 92.04 % 1021.16 hPa
2021-06-06 04:28:48 18.77 ℃ 84.86 % 1021.15 hPa
2021-06-06 04:18:48 18.86 ℃ 84.38 % 1021.15 hPa
2021-06-06 04:08:48 18.97 ℃ 85.35 % 1021.18 hPa
2021-06-06 03:58:48 19.04 ℃ 86.38 % 1021.16 hPa
2021-06-06 03:48:48 19.02 ℃ 88.16 % 1021.19 hPa
2021-06-06 03:38:48 19.15 ℃ 87.1 % 1021.2 hPa
2021-06-06 03:28:48 18.95 ℃ 87.39 % 1021.24 hPa
2021-06-06 03:18:48 19.05 ℃ 86.34 % 1021.3 hPa
2021-06-06 03:08:48 19.28 ℃ 84.97 % 1021.34 hPa
2021-06-06 02:58:48 19.25 ℃ 85.24 % 1021.38 hPa
2021-06-06 02:48:48 19.11 ℃ 88.82 % 1021.39 hPa
2021-06-06 02:38:49 19.11 ℃ 89.69 % 1021.37 hPa
2021-06-06 02:28:48 19.23 ℃ 89.82 % 1021.35 hPa
2021-06-06 02:18:48 19.39 ℃ 88.25 % 1021.36 hPa
2021-06-06 02:08:48 19.48 ℃ 85.7 % 1021.4 hPa
2021-06-06 01:58:48 19.53 ℃ 83.93 % 1021.4 hPa
2021-06-06 01:48:48 19.7 ℃ 83.39 % 1021.39 hPa
2021-06-06 01:38:48 19.59 ℃ 84.94 % 1021.37 hPa
2021-06-06 01:28:48 19.83 ℃ 83.69 % 1021.37 hPa
2021-06-06 01:18:48 19.87 ℃ 82.41 % 1021.35 hPa
2021-06-06 01:08:48 19.98 ℃ 80.72 % 1021.39 hPa
2021-06-06 00:58:48 19.99 ℃ 80.18 % 1021.43 hPa
2021-06-06 00:48:48 20.02 ℃ 79.94 % 1021.41 hPa
2021-06-06 00:38:48 20.1 ℃ 79.78 % 1021.38 hPa
2021-06-06 00:28:48 20.13 ℃ 80.01 % 1021.39 hPa
2021-06-06 00:18:48 20.32 ℃ 79.05 % 1021.41 hPa
2021-06-06 00:08:48 20.3 ℃ 80.02 % 1021.4 hPa
2021-06-05 23:58:48 20.32 ℃ 81.48 % 1021.38 hPa
2021-06-05 23:48:48 20.38 ℃ 82.73 % 1021.4 hPa
2021-06-05 23:38:48 20.37 ℃ 84.06 % 1021.4 hPa
2021-06-05 23:28:48 20.18 ℃ 86 % 1021.38 hPa
2021-06-05 23:18:48 20.17 ℃ 87.05 % 1021.36 hPa
2021-06-05 23:08:48 20.21 ℃ 87.37 % 1021.35 hPa
2021-06-05 22:58:48 20.31 ℃ 87.35 % 1021.34 hPa
2021-06-05 22:48:48 20.26 ℃ 89.03 % 1021.29 hPa
2021-06-05 22:38:48 20.33 ℃ 89.53 % 1021.23 hPa
2021-06-05 22:28:48 20.45 ℃ 90.31 % 1021.18 hPa
2021-06-05 22:18:48 20.49 ℃ 90.83 % 1021.18 hPa
2021-06-05 22:08:48 20.5 ℃ 91.95 % 1021.1 hPa
2021-06-05 21:58:48 20.54 ℃ 93.18 % 1021.04 hPa
2021-06-05 21:48:48 20.6 ℃ 93.41 % 1020.98 hPa
2021-06-05 21:38:49 20.75 ℃ 93.27 % 1020.88 hPa
2021-06-05 21:28:49 20.8 ℃ 93.59 % 1020.78 hPa
2021-06-05 21:18:49 20.86 ℃ 93.6 % 1020.71 hPa
2021-06-05 21:08:49 21.05 ℃ 93.34 % 1020.63 hPa
2021-06-05 20:58:49 21.08 ℃ 94.44 % 1020.61 hPa
2021-06-05 20:48:49 21.16 ℃ 95.14 % 1020.59 hPa
2021-06-05 20:38:49 21.25 ℃ 96.06 % 1020.59 hPa
2021-06-05 20:28:49 21.33 ℃ 96.9 % 1020.57 hPa
2021-06-05 20:18:49 21.39 ℃ 97.81 % 1020.55 hPa
2021-06-05 20:08:49 21.45 ℃ 98.38 % 1020.54 hPa
2021-06-05 19:58:49 21.72 ℃ 97.18 % 1020.51 hPa
2021-06-05 19:48:49 21.96 ℃ 96.28 % 1020.43 hPa
2021-06-05 19:38:49 22.15 ℃ 95.54 % 1020.38 hPa
2021-06-05 19:28:49 22.12 ℃ 95.81 % 1020.35 hPa
2021-06-05 19:18:49 22.36 ℃ 94.55 % 1020.34 hPa
2021-06-05 19:08:49 22.52 ℃ 93.59 % 1020.35 hPa
2021-06-05 18:58:49 22.54 ℃ 93.39 % 1020.4 hPa
2021-06-05 18:48:49 22.64 ℃ 93.22 % 1020.47 hPa
2021-06-05 18:38:49 22.72 ℃ 93.13 % 1020.53 hPa
2021-06-05 18:28:49 23.02 ℃ 92.07 % 1020.58 hPa
2021-06-05 18:18:49 23.02 ℃ 92.82 % 1020.64 hPa
2021-06-05 18:08:49 23.07 ℃ 93.49 % 1020.68 hPa
2021-06-05 17:58:49 23.23 ℃ 93.81 % 1020.72 hPa
2021-06-05 17:48:49 23.3 ℃ 94.42 % 1020.74 hPa
2021-06-05 17:38:49 23.42 ℃ 92.77 % 1020.72 hPa
2021-06-05 17:28:49 23.49 ℃ 92.72 % 1020.77 hPa
2021-06-05 17:18:50 23.51 ℃ 91.26 % 1020.82 hPa
2021-06-05 17:08:49 23.53 ℃ 91.26 % 1020.81 hPa
2021-06-05 16:58:49 23.53 ℃ 91.23 % 1020.82 hPa
2021-06-05 16:48:49 23.7 ℃ 91.08 % 1020.71 hPa
2021-06-05 16:38:49 23.96 ℃ 92.53 % 1020.66 hPa
2021-06-05 16:28:49 23.88 ℃ 92.78 % 1020.68 hPa
2021-06-05 16:18:49 23.73 ℃ 93.26 % 1020.67 hPa
2021-06-05 16:08:49 23.78 ℃ 91.47 % 1020.72 hPa
2021-06-05 15:58:49 23.57 ℃ 91.74 % 1020.79 hPa
2021-06-05 15:48:49 23.59 ℃ 90.97 % 1020.83 hPa
2021-06-05 15:38:49 23.66 ℃ 91.43 % 1020.88 hPa
2021-06-05 15:28:49 23.92 ℃ 90.23 % 1020.91 hPa
2021-06-05 15:18:49 23.75 ℃ 92.16 % 1020.94 hPa
2021-06-05 15:08:49 23.85 ℃ 92.5 % 1020.95 hPa
2021-06-05 14:58:49 23.83 ℃ 94.11 % 1020.97 hPa
2021-06-05 14:48:49 24 ℃ 94.27 % 1020.98 hPa
2021-06-05 14:38:50 23.93 ℃ 94.67 % 1021.06 hPa
2021-06-05 14:28:49 23.98 ℃ 94.85 % 1021.1 hPa
2021-06-05 14:18:49 23.99 ℃ 94.66 % 1021.14 hPa
2021-06-05 14:08:49 23.75 ℃ 94.18 % 1021.18 hPa
2021-06-05 13:58:49 24 ℃ 90.83 % 1021.24 hPa
2021-06-05 13:48:49 24.27 ℃ 88.57 % 1021.26 hPa
2021-06-05 13:38:49 24.48 ℃ 81.95 % 1021.31 hPa
2021-06-05 13:28:49 24.71 ℃ 76.57 % 1021.36 hPa
2021-06-05 13:18:49 24.68 ℃ 76.29 % 1021.43 hPa
2021-06-05 13:08:50 24.69 ℃ 77.83 % 1021.51 hPa
2021-06-05 12:58:49 24.78 ℃ 79.33 % 1021.55 hPa
2021-06-05 12:48:49 24.71 ℃ 79.04 % 1021.62 hPa
2021-06-05 12:38:49 24.26 ℃ 82.74 % 1021.67 hPa
2021-06-05 12:28:49 23.84 ℃ 84.66 % 1021.67 hPa
2021-06-05 12:18:49 23.7 ℃ 86.26 % 1021.68 hPa
2021-06-05 12:08:49 23.41 ℃ 87.93 % 1021.7 hPa
2021-06-05 11:58:49 23.23 ℃ 89.95 % 1021.69 hPa
2021-06-05 11:48:49 23.33 ℃ 90.69 % 1021.67 hPa
2021-06-05 11:38:49 23.23 ℃ 91.74 % 1021.69 hPa
2021-06-05 11:28:49 23.27 ℃ 91.07 % 1021.7 hPa
2021-06-05 11:18:49 23.14 ℃ 92.63 % 1021.71 hPa
2021-06-05 11:08:49 23.03 ℃ 94.62 % 1021.73 hPa
2021-06-05 10:58:49 23.07 ℃ 94.62 % 1021.74 hPa
2021-06-05 10:48:49 23 ℃ 96.7 % 1021.72 hPa
2021-06-05 10:38:50 22.84 ℃ 99.46 % 1021.74 hPa
2021-06-05 10:28:49 22.71 ℃ 100 % 1021.72 hPa
2021-06-05 10:18:49 22.22 ℃ 100 % 1021.71 hPa
2021-06-05 10:08:50 22.1 ℃ 100 % 1021.68 hPa
2021-06-05 09:58:49 21.5 ℃ 100 % 1021.73 hPa
2021-06-05 09:48:50 20.88 ℃ 100 % 1021.77 hPa
2021-06-05 09:38:50 20.14 ℃ 100 % 1021.87 hPa
2021-06-05 09:28:50 19.84 ℃ 100 % 1021.9 hPa
2021-06-05 09:18:50 19.8 ℃ 100 % 1021.93 hPa
2021-06-05 09:08:50 19.45 ℃ 100 % 1021.95 hPa
2021-06-05 08:58:50 18.72 ℃ 100 % 1021.96 hPa
2021-06-05 08:48:50 18.18 ℃ 100 % 1021.99 hPa
2021-06-05 08:28:50 17.64 ℃ 100 % 1021.96 hPa
2021-06-05 08:18:50 17.21 ℃ 100 % 1021.91 hPa
2021-06-05 08:08:50 17.02 ℃ 100 % 1021.81 hPa
2021-06-05 07:58:50 17.03 ℃ 100 % 1021.77 hPa
2021-06-05 07:48:50 17.11 ℃ 100 % 1021.77 hPa
2021-06-05 07:38:50 16.97 ℃ 100 % 1021.79 hPa
2021-06-05 07:28:50 16.73 ℃ 100 % 1021.78 hPa
2021-06-05 07:18:50 16.86 ℃ 100 % 1021.81 hPa
2021-06-05 07:08:50 16.84 ℃ 100 % 1021.78 hPa
2021-06-05 06:58:50 16.87 ℃ 100 % 1021.82 hPa
2021-06-05 06:48:50 17.01 ℃ 100 % 1021.85 hPa
2021-06-05 06:38:50 17.22 ℃ 100 % 1021.84 hPa
2021-06-05 06:28:50 17.45 ℃ 100 % 1021.79 hPa
2021-06-05 06:18:50 18.06 ℃ 100 % 1021.76 hPa
2021-06-05 06:08:50 17.47 ℃ 100 % 1021.74 hPa
2021-06-05 05:58:50 17.31 ℃ 100 % 1021.77 hPa
2021-06-05 05:48:50 17.06 ℃ 100 % 1021.75 hPa
2021-06-05 05:38:50 16.95 ℃ 100 % 1021.72 hPa
2021-06-05 05:28:50 16.34 ℃ 100 % 1021.69 hPa
2021-06-05 05:18:50 15.8 ℃ 100 % 1021.62 hPa
2021-06-05 05:08:50 15.67 ℃ 100 % 1021.59 hPa
2021-06-05 04:58:50 15.64 ℃ 100 % 1021.58 hPa
2021-06-05 04:48:50 15.67 ℃ 100 % 1021.6 hPa
2021-06-05 04:38:50 15.76 ℃ 100 % 1021.64 hPa
2021-06-05 04:28:50 15.72 ℃ 100 % 1021.66 hPa
2021-06-05 04:18:50 15.7 ℃ 100 % 1021.7 hPa
2021-06-05 04:08:50 15.83 ℃ 100 % 1021.73 hPa
2021-06-05 03:58:50 15.97 ℃ 100 % 1021.75 hPa
2021-06-05 03:48:50 15.97 ℃ 100 % 1021.74 hPa
2021-06-05 03:38:50 15.81 ℃ 100 % 1021.78 hPa
2021-06-05 03:28:50 15.91 ℃ 100 % 1021.83 hPa
2021-06-05 03:18:50 15.93 ℃ 100 % 1021.86 hPa
2021-06-05 03:08:50 15.92 ℃ 100 % 1021.86 hPa
2021-06-05 02:58:50 16.04 ℃ 100 % 1021.87 hPa
2021-06-05 02:48:50 15.99 ℃ 100 % 1021.9 hPa
2021-06-05 02:38:50 16.04 ℃ 100 % 1021.92 hPa
2021-06-05 02:28:50 16.05 ℃ 100 % 1021.89 hPa
2021-06-05 02:18:50 16.02 ℃ 100 % 1021.9 hPa
2021-06-05 02:08:50 15.92 ℃ 100 % 1021.93 hPa
2021-06-05 01:58:50 16.05 ℃ 100 % 1021.97 hPa
2021-06-05 01:48:50 16.01 ℃ 100 % 1021.99 hPa
2021-06-05 01:38:50 15.91 ℃ 100 % 1022.05 hPa
2021-06-05 01:28:50 15.92 ℃ 100 % 1022.13 hPa
2021-06-05 01:18:50 15.9 ℃ 100 % 1022.24 hPa
2021-06-05 01:08:50 15.86 ℃ 100 % 1022.34 hPa
2021-06-05 00:58:50 15.92 ℃ 100 % 1022.4 hPa
2021-06-05 00:48:51 15.81 ℃ 100 % 1022.46 hPa
2021-06-05 00:38:51 15.84 ℃ 100 % 1022.51 hPa
2021-06-05 00:28:50 15.76 ℃ 100 % 1022.57 hPa
2021-06-05 00:18:50 15.9 ℃ 100 % 1022.56 hPa
2021-06-05 00:08:50 15.96 ℃ 100 % 1022.6 hPa
2021-06-04 23:58:50 15.92 ℃ 100 % 1022.61 hPa
2021-06-04 23:48:51 15.99 ℃ 100 % 1022.66 hPa
2021-06-04 23:38:50 16.13 ℃ 100 % 1022.64 hPa
2021-06-04 23:28:50 16.11 ℃ 100 % 1022.64 hPa
2021-06-04 23:18:51 16.26 ℃ 100 % 1022.64 hPa
2021-06-04 23:08:50 16.39 ℃ 100 % 1022.68 hPa
2021-06-04 22:58:51 16.73 ℃ 100 % 1022.67 hPa
2021-06-04 22:48:50 16.87 ℃ 100 % 1022.74 hPa
2021-06-04 22:38:51 17.05 ℃ 100 % 1022.72 hPa
2021-06-04 22:28:51 17.29 ℃ 100 % 1022.67 hPa
2021-06-04 22:18:51 17.55 ℃ 100 % 1022.63 hPa
2021-06-04 22:08:51 17.63 ℃ 100 % 1022.62 hPa
2021-06-04 21:58:51 17.91 ℃ 100 % 1022.53 hPa
2021-06-04 21:48:52 18.03 ℃ 100 % 1022.47 hPa
2021-06-04 21:38:51 18.39 ℃ 100 % 1022.44 hPa
2021-06-04 21:28:51 18.71 ℃ 100 % 1022.39 hPa
2021-06-04 21:18:51 18.96 ℃ 100 % 1022.34 hPa
2021-06-04 21:08:51 19.34 ℃ 100 % 1022.32 hPa
2021-06-04 20:58:51 19.5 ℃ 100 % 1022.29 hPa
2021-06-04 20:48:51 19.75 ℃ 100 % 1022.21 hPa
2021-06-04 20:38:51 19.75 ℃ 99.99 % 1022.21 hPa
2021-06-04 20:28:51 19.87 ℃ 99.99 % 1022.18 hPa
2021-06-04 20:18:51 20.18 ℃ 99.98 % 1022.09 hPa
2021-06-04 20:08:51 20.41 ℃ 99.95 % 1022 hPa
2021-06-04 19:58:51 20.71 ℃ 99.91 % 1021.96 hPa
2021-06-04 19:48:51 20.94 ℃ 99.81 % 1021.94 hPa
2021-06-04 19:38:51 21.19 ℃ 99.62 % 1021.94 hPa
2021-06-04 19:28:51 21.54 ℃ 99.24 % 1021.93 hPa
2021-06-04 19:18:51 21.57 ℃ 98.48 % 1021.94 hPa
2021-06-04 19:08:51 21.86 ℃ 97.87 % 1021.89 hPa
2021-06-04 18:58:51 21.72 ℃ 99.31 % 1021.93 hPa
2021-06-04 18:48:51 21.75 ℃ 98.82 % 1022 hPa
2021-06-04 18:38:51 21.84 ℃ 99.12 % 1022.03 hPa
2021-06-04 18:28:51 21.81 ℃ 99.94 % 1022.09 hPa
2021-06-04 18:18:51 21.82 ℃ 99.87 % 1022.14 hPa
2021-06-04 18:08:51 21.83 ℃ 100 % 1022.2 hPa
2021-06-04 17:58:51 21.81 ℃ 100 % 1022.25 hPa
2021-06-04 17:48:51 21.76 ℃ 100 % 1022.26 hPa
2021-06-04 17:38:51 21.81 ℃ 100 % 1022.26 hPa
2021-06-04 17:28:51 21.9 ℃ 100 % 1022.3 hPa
2021-06-04 17:18:51 22.04 ℃ 100 % 1022.26 hPa
2021-06-04 17:08:51 21.93 ℃ 100 % 1022.32 hPa
2021-06-04 16:58:51 21.72 ℃ 100 % 1022.38 hPa
2021-06-04 16:48:51 21.83 ℃ 100 % 1022.4 hPa
2021-06-04 16:38:51 22.09 ℃ 100 % 1022.44 hPa
2021-06-04 16:28:51 22.1 ℃ 100 % 1022.47 hPa
2021-06-04 16:18:51 22.21 ℃ 100 % 1022.49 hPa
2021-06-04 16:08:51 22.35 ℃ 100 % 1022.54 hPa
2021-06-04 15:58:51 22.77 ℃ 99.99 % 1022.54 hPa
2021-06-04 15:48:51 22.8 ℃ 99.99 % 1022.6 hPa
2021-06-04 15:38:51 22.56 ℃ 99.98 % 1022.63 hPa
2021-06-04 15:28:51 22.75 ℃ 99.96 % 1022.7 hPa
2021-06-04 15:18:51 23.03 ℃ 99.91 % 1022.69 hPa
2021-06-04 15:08:51 23.1 ℃ 99.83 % 1022.69 hPa
2021-06-04 14:58:51 23.36 ℃ 99.65 % 1022.7 hPa
2021-06-04 14:48:51 23.54 ℃ 99.3 % 1022.74 hPa
2021-06-04 14:38:51 23.73 ℃ 98.6 % 1022.77 hPa
2021-06-04 14:28:51 24.18 ℃ 97.21 % 1022.72 hPa
2021-06-04 14:18:52 24.22 ℃ 95.25 % 1022.8 hPa
2021-06-04 14:08:51 24.27 ℃ 90.78 % 1022.79 hPa
2021-06-04 13:58:51 24.34 ℃ 87.11 % 1022.81 hPa
2021-06-04 13:48:51 24.3 ℃ 86.46 % 1022.84 hPa
2021-06-04 13:38:51 24.58 ℃ 82.33 % 1022.79 hPa
2021-06-04 13:28:52 24.35 ℃ 81.16 % 1022.81 hPa
2021-06-04 13:18:51 24.36 ℃ 81.89 % 1022.82 hPa
2021-06-04 13:08:51 24.54 ℃ 81.8 % 1022.83 hPa
2021-06-04 12:58:51 24.4 ℃ 81.93 % 1022.88 hPa
2021-06-04 12:48:51 24.53 ℃ 81.96 % 1022.88 hPa
2021-06-04 12:38:51 24.11 ℃ 84.47 % 1022.91 hPa
2021-06-04 12:28:51 23.64 ℃ 86.09 % 1022.94 hPa
2021-06-04 12:18:52 23.4 ℃ 88.25 % 1023 hPa
2021-06-04 12:08:51 23.78 ℃ 88.44 % 1022.98 hPa
2021-06-04 11:58:52 24.03 ℃ 88.23 % 1022.98 hPa
2021-06-04 11:48:51 23.54 ℃ 92.31 % 1023.03 hPa
2021-06-04 11:38:51 23.2 ℃ 93.71 % 1023.06 hPa
2021-06-04 11:28:52 22.86 ℃ 95.88 % 1023.05 hPa
2021-06-04 11:18:51 22.88 ℃ 95.31 % 1023.02 hPa
2021-06-04 11:08:52 22.43 ℃ 98.09 % 1023.04 hPa
2021-06-04 10:58:52 22.61 ℃ 96.19 % 1023.08 hPa
2021-06-04 10:48:52 22.91 ℃ 92.89 % 1023.1 hPa
2021-06-04 10:38:52 23.29 ℃ 90.33 % 1023.09 hPa
2021-06-04 10:28:52 23.2 ℃ 90.42 % 1023.05 hPa
2021-06-04 10:18:52 22.67 ℃ 94.38 % 1023.07 hPa
2021-06-04 10:08:52 22.55 ℃ 96.36 % 1023.03 hPa
2021-06-04 09:58:52 22.44 ℃ 99.72 % 1022.92 hPa
2021-06-04 09:48:52 22.46 ℃ 100 % 1022.89 hPa
2021-06-04 09:38:52 21.68 ℃ 100 % 1022.87 hPa
2021-06-04 09:28:52 20.98 ℃ 100 % 1022.91 hPa
2021-06-04 09:18:52 20.67 ℃ 100 % 1022.92 hPa
2021-06-04 09:08:52 20.82 ℃ 100 % 1022.88 hPa
2021-06-04 08:58:52 20.96 ℃ 100 % 1022.83 hPa
2021-06-04 08:48:52 21.37 ℃ 100 % 1022.69 hPa
2021-06-04 08:38:55 20.99 ℃ 100 % 1022.61 hPa
2021-06-04 08:28:52 20.01 ℃ 100 % 1022.63 hPa
2021-06-04 08:18:52 19.68 ℃ 100 % 1022.64 hPa
2021-06-04 08:08:52 19.04 ℃ 100 % 1022.58 hPa
2021-06-04 07:58:52 18.39 ℃ 100 % 1022.54 hPa
2021-06-04 07:48:52 17.77 ℃ 100 % 1022.53 hPa
2021-06-04 07:38:52 17.43 ℃ 100 % 1022.56 hPa
2021-06-04 07:28:52 17.25 ℃ 100 % 1022.6 hPa
2021-06-04 07:18:52 17.13 ℃ 100 % 1022.69 hPa
2021-06-04 07:08:52 17.02 ℃ 100 % 1022.72 hPa
2021-06-04 06:58:52 16.78 ℃ 100 % 1022.73 hPa
2021-06-04 06:48:52 16.67 ℃ 100 % 1022.73 hPa
2021-06-04 06:38:52 16.4 ℃ 100 % 1022.73 hPa
2021-06-04 06:28:52 16.33 ℃ 100 % 1022.7 hPa
2021-06-04 06:18:52 16.33 ℃ 100 % 1022.69 hPa
2021-06-04 06:08:52 16.2 ℃ 100 % 1022.63 hPa
2021-06-04 05:58:52 16.09 ℃ 100 % 1022.57 hPa
2021-06-04 05:48:52 16.11 ℃ 100 % 1022.53 hPa
2021-06-04 05:38:52 15.97 ℃ 100 % 1022.47 hPa
2021-06-04 05:28:52 15.85 ℃ 100 % 1022.46 hPa
2021-06-04 05:18:52 15.67 ℃ 100 % 1022.46 hPa
2021-06-04 05:08:52 15.61 ℃ 100 % 1022.48 hPa
2021-06-04 04:58:52 15.49 ℃ 100 % 1022.49 hPa
2021-06-04 04:48:52 15.39 ℃ 100 % 1022.48 hPa
2021-06-04 04:38:52 15.47 ℃ 100 % 1022.5 hPa
2021-06-04 04:28:52 15.56 ℃ 100 % 1022.53 hPa
2021-06-04 04:18:52 15.47 ℃ 100 % 1022.59 hPa
2021-06-04 04:08:52 15.46 ℃ 100 % 1022.6 hPa
2021-06-04 03:58:52 15.39 ℃ 100 % 1022.6 hPa
2021-06-04 03:48:52 15.31 ℃ 100 % 1022.58 hPa
2021-06-04 03:38:52 15.34 ℃ 100 % 1022.59 hPa
2021-06-04 03:28:52 15.41 ℃ 100 % 1022.59 hPa
2021-06-04 03:18:52 15.53 ℃ 100 % 1022.64 hPa
2021-06-04 03:08:52 15.62 ℃ 100 % 1022.71 hPa
2021-06-04 02:58:52 15.59 ℃ 100 % 1022.78 hPa
2021-06-04 02:48:52 15.58 ℃ 100 % 1022.86 hPa
2021-06-04 02:38:52 15.59 ℃ 100 % 1022.96 hPa
2021-06-04 02:28:52 15.46 ℃ 100 % 1022.98 hPa
2021-06-04 02:18:52 15.32 ℃ 100 % 1022.99 hPa
2021-06-04 02:08:52 15.36 ℃ 100 % 1022.98 hPa
2021-06-04 01:58:52 15.24 ℃ 100 % 1022.99 hPa
2021-06-04 01:48:52 15.1 ℃ 100 % 1023.03 hPa
2021-06-04 01:38:52 15.14 ℃ 100 % 1023.05 hPa
2021-06-04 01:28:52 15.32 ℃ 100 % 1023.08 hPa
2021-06-04 01:18:52 15.41 ℃ 100 % 1023.09 hPa
2021-06-04 01:08:52 15.5 ℃ 100 % 1023.09 hPa
2021-06-04 00:58:52 15.73 ℃ 100 % 1023.09 hPa
2021-06-04 00:48:53 15.96 ℃ 100 % 1023.06 hPa
2021-06-04 00:38:53 15.99 ℃ 100 % 1023.07 hPa
2021-06-04 00:28:53 16.02 ℃ 100 % 1023.17 hPa
2021-06-04 00:18:52 15.92 ℃ 100 % 1023.29 hPa
2021-06-04 00:08:53 15.88 ℃ 100 % 1023.39 hPa
2021-06-03 23:58:52 15.69 ℃ 100 % 1023.5 hPa
2021-06-03 23:48:53 15.59 ℃ 100 % 1023.42 hPa
2021-06-03 23:38:53 15.61 ℃ 100 % 1023.33 hPa
2021-06-03 23:28:53 15.68 ℃ 100 % 1023.32 hPa
2021-06-03 23:18:53 15.81 ℃ 100 % 1023.3 hPa
2021-06-03 23:08:53 15.88 ℃ 100 % 1023.35 hPa
2021-06-03 22:58:53 16.05 ℃ 100 % 1023.5 hPa
2021-06-03 22:48:53 16.57 ℃ 100 % 1023.55 hPa
2021-06-03 22:38:53 16.99 ℃ 100 % 1023.52 hPa
2021-06-03 22:28:53 17.22 ℃ 100 % 1023.36 hPa
2021-06-03 22:18:53 17.09 ℃ 100 % 1023.26 hPa
2021-06-03 22:08:53 17.33 ℃ 100 % 1023.28 hPa
2021-06-03 21:58:53 17.48 ℃ 100 % 1023.33 hPa
2021-06-03 21:48:53 17.5 ℃ 100 % 1023.39 hPa
2021-06-03 21:38:54 17.65 ℃ 100 % 1023.46 hPa
2021-06-03 21:28:53 18.08 ℃ 100 % 1023.65 hPa
2021-06-03 21:18:53 18.73 ℃ 100 % 1023.68 hPa
2021-06-03 21:08:53 18.56 ℃ 100 % 1023.43 hPa
2021-06-03 20:58:53 18.33 ℃ 100 % 1023.2 hPa
2021-06-03 20:48:53 18.46 ℃ 100 % 1023.15 hPa
2021-06-03 20:38:53 18.68 ℃ 100 % 1023.25 hPa
2021-06-03 20:28:53 18.81 ℃ 100 % 1023.32 hPa
2021-06-03 20:18:53 19.07 ℃ 100 % 1023.39 hPa
2021-06-03 20:08:53 19.59 ℃ 100 % 1023.4 hPa
2021-06-03 19:58:53 20.05 ℃ 100 % 1023.32 hPa
2021-06-03 19:48:53 20.24 ℃ 100 % 1023.22 hPa
2021-06-03 19:38:53 20.52 ℃ 100 % 1023.12 hPa
2021-06-03 19:28:53 20.18 ℃ 100 % 1022.96 hPa
2021-06-03 19:18:53 20.12 ℃ 99.99 % 1022.84 hPa
2021-06-03 19:08:53 20.26 ℃ 99.99 % 1022.8 hPa
2021-06-03 18:58:53 20.39 ℃ 99.97 % 1022.82 hPa
2021-06-03 18:48:53 20.85 ℃ 99.94 % 1022.75 hPa
2021-06-03 18:38:53 20.68 ℃ 99.89 % 1022.68 hPa
2021-06-03 18:28:53 20.68 ℃ 99.77 % 1022.67 hPa
2021-06-03 18:18:53 21.06 ℃ 99.55 % 1022.73 hPa
2021-06-03 18:08:53 21.65 ℃ 99.09 % 1022.72 hPa
2021-06-03 17:58:53 21.99 ℃ 98.18 % 1022.81 hPa
2021-06-03 17:48:53 22.89 ℃ 96.36 % 1022.88 hPa
2021-06-03 17:38:53 23.65 ℃ 92.73 % 1022.91 hPa
2021-06-03 17:28:53 23.99 ℃ 91.09 % 1022.92 hPa
2021-06-03 17:18:53 24 ℃ 88.93 % 1022.94 hPa
2021-06-03 17:08:54 23.61 ℃ 85.54 % 1023 hPa
2021-06-03 16:58:53 23.57 ℃ 78.85 % 1022.98 hPa
2021-06-03 16:48:53 23.59 ℃ 73.47 % 1022.92 hPa
2021-06-03 16:38:53 23.72 ℃ 68.37 % 1022.83 hPa
2021-06-03 16:28:53 23.64 ℃ 67.29 % 1022.79 hPa
2021-06-03 16:18:53 23.64 ℃ 67.8 % 1022.81 hPa
2021-06-03 16:08:53 23.94 ℃ 66.2 % 1022.88 hPa
2021-06-03 15:58:53 24.31 ℃ 67.12 % 1022.95 hPa
2021-06-03 15:48:53 24.71 ℃ 62.96 % 1022.87 hPa
2021-06-03 15:38:54 25.15 ℃ 59.14 % 1022.76 hPa
2021-06-03 15:28:53 25.62 ℃ 55.48 % 1022.65 hPa
2021-06-03 15:18:53 25.94 ℃ 53.79 % 1022.58 hPa
2021-06-03 15:08:53 26.29 ℃ 50.86 % 1022.56 hPa
2021-06-03 14:58:53 26.43 ℃ 49.52 % 1022.53 hPa
2021-06-03 14:48:53 26.59 ℃ 47.26 % 1022.48 hPa
2021-06-03 14:38:53 26.8 ℃ 45.47 % 1022.41 hPa
2021-06-03 14:28:53 26.89 ℃ 44.43 % 1022.32 hPa
2021-06-03 14:18:53 26.98 ℃ 44.35 % 1022.26 hPa
2021-06-03 14:08:53 26.98 ℃ 44.4 % 1022.18 hPa
2021-06-03 13:58:53 27.07 ℃ 44.93 % 1022.12 hPa
2021-06-03 13:48:53 26.7 ℃ 45.96 % 1022.14 hPa
2021-06-03 13:38:53 26.46 ℃ 46.58 % 1022.07 hPa
2021-06-03 13:28:53 25.95 ℃ 47.79 % 1022.04 hPa
2021-06-03 13:18:53 25.82 ℃ 48.95 % 1022.02 hPa
2021-06-03 13:08:53 25.68 ℃ 49.83 % 1021.96 hPa
2021-06-03 12:58:53 25.52 ℃ 50.55 % 1021.93 hPa
2021-06-03 12:48:53 25.64 ℃ 50.89 % 1021.95 hPa
2021-06-03 12:38:54 25.55 ℃ 51.27 % 1021.93 hPa
2021-06-03 12:28:54 25.42 ℃ 50.79 % 1021.88 hPa
2021-06-03 12:18:54 25.39 ℃ 51.18 % 1021.85 hPa
2021-06-03 12:08:54 25.34 ℃ 51.21 % 1021.85 hPa
2021-06-03 11:58:54 25.48 ℃ 51.95 % 1021.81 hPa
2021-06-03 11:48:54 25.43 ℃ 52.7 % 1021.81 hPa
2021-06-03 11:38:54 25.08 ℃ 53.81 % 1021.79 hPa
2021-06-03 11:28:54 24.88 ℃ 55.31 % 1021.74 hPa
2021-06-03 11:18:54 24.62 ℃ 55.91 % 1021.75 hPa
2021-06-03 11:08:54 24.77 ℃ 55.68 % 1021.89 hPa
2021-06-03 10:58:54 24.55 ℃ 56.56 % 1021.9 hPa
2021-06-03 10:48:54 24.41 ℃ 57.64 % 1021.95 hPa
2021-06-03 10:38:54 24.15 ℃ 58.87 % 1021.97 hPa
2021-06-03 10:28:54 24.08 ℃ 59.82 % 1021.98 hPa
2021-06-03 10:18:54 23.8 ℃ 61.12 % 1022 hPa
2021-06-03 10:08:54 23.81 ℃ 61.79 % 1022.03 hPa
2021-06-03 09:58:54 23.65 ℃ 62.86 % 1021.95 hPa
2021-06-03 09:48:54 23.62 ℃ 63.08 % 1021.98 hPa
2021-06-03 09:38:54 23.5 ℃ 64.25 % 1021.96 hPa
2021-06-03 09:28:54 23.27 ℃ 65.72 % 1021.93 hPa
2021-06-03 09:18:54 22.94 ℃ 68.18 % 1021.9 hPa
2021-06-03 09:08:54 22.89 ℃ 71.45 % 1021.89 hPa
2021-06-03 08:58:54 22.67 ℃ 72.66 % 1021.81 hPa
2021-06-03 08:48:54 22.45 ℃ 74.62 % 1021.72 hPa
2021-06-03 08:38:54 22.26 ℃ 75.88 % 1021.65 hPa
2021-06-03 08:28:54 22.03 ℃ 76.87 % 1021.6 hPa
2021-06-03 08:18:54 21.69 ℃ 78.63 % 1021.55 hPa
2021-06-03 08:08:54 21.5 ℃ 80.07 % 1021.49 hPa
2021-06-03 07:58:54 21.26 ℃ 82.02 % 1021.47 hPa
2021-06-03 07:48:54 21.16 ℃ 82.39 % 1021.44 hPa
2021-06-03 07:38:54 21.07 ℃ 83.6 % 1021.41 hPa
2021-06-03 07:28:54 21.02 ℃ 84.35 % 1021.37 hPa
2021-06-03 07:18:54 20.77 ℃ 86.13 % 1021.37 hPa
2021-06-03 07:08:54 20.37 ℃ 89.28 % 1021.37 hPa
2021-06-03 06:58:54 19.74 ℃ 93.04 % 1021.33 hPa
2021-06-03 06:48:54 19.09 ℃ 96.55 % 1021.28 hPa
2021-06-03 06:38:54 18.08 ℃ 100 % 1021.22 hPa
2021-06-03 06:28:54 18.02 ℃ 100 % 1021.18 hPa
2021-06-03 06:18:54 18.21 ℃ 99.99 % 1021.14 hPa
2021-06-03 06:08:54 18.06 ℃ 99.98 % 1021.09 hPa
2021-06-03 05:58:54 18.14 ℃ 99.97 % 1021.12 hPa
2021-06-03 05:48:54 18.28 ℃ 99.94 % 1021.09 hPa
2021-06-03 05:38:55 18.51 ℃ 99.87 % 1021.09 hPa
2021-06-03 05:28:54 17.95 ℃ 100 % 1021.06 hPa
2021-06-03 05:18:54 17.46 ℃ 100 % 1021.04 hPa
2021-06-03 05:08:55 17.32 ℃ 100 % 1021.06 hPa
2021-06-03 04:58:55 17.26 ℃ 100 % 1021 hPa
2021-06-03 04:48:54 17.28 ℃ 100 % 1020.98 hPa
2021-06-03 04:38:54 17.41 ℃ 100 % 1021.02 hPa
2021-06-03 04:28:54 17.41 ℃ 100 % 1021.01 hPa
2021-06-03 04:18:55 17.53 ℃ 100 % 1021.07 hPa
2021-06-03 04:08:54 17.75 ℃ 100 % 1021.11 hPa
2021-06-03 03:58:54 17.89 ℃ 100 % 1021.12 hPa
2021-06-03 03:48:54 18.01 ℃ 100 % 1021.13 hPa
2021-06-03 03:38:54 18.1 ℃ 100 % 1021.11 hPa
2021-06-03 03:28:54 18.08 ℃ 100 % 1021.11 hPa
2021-06-03 03:18:54 18.15 ℃ 100 % 1021.14 hPa
2021-06-03 03:08:54 18.18 ℃ 100 % 1021.11 hPa
2021-06-03 02:58:55 18.14 ℃ 100 % 1021.09 hPa
2021-06-03 02:48:55 18.15 ℃ 100 % 1021.14 hPa
2021-06-03 02:38:54 18.15 ℃ 100 % 1021.14 hPa
2021-06-03 02:28:54 18.05 ℃ 100 % 1021.09 hPa
2021-06-03 02:18:54 18.02 ℃ 100 % 1021.06 hPa
2021-06-03 02:08:55 18.04 ℃ 100 % 1021.06 hPa
2021-06-03 01:58:54 18.1 ℃ 100 % 1021.06 hPa
2021-06-03 01:48:54 18.19 ℃ 100 % 1021.02 hPa
2021-06-03 01:38:55 18.28 ℃ 100 % 1020.97 hPa
2021-06-03 01:28:54 18.31 ℃ 100 % 1020.96 hPa
2021-06-03 01:18:54 18.38 ℃ 100 % 1020.95 hPa
2021-06-03 01:08:54 18.51 ℃ 100 % 1020.89 hPa
2021-06-03 00:58:55 18.47 ℃ 100 % 1020.84 hPa
2021-06-03 00:48:55 18.49 ℃ 100 % 1020.72 hPa
2021-06-03 00:38:55 18.62 ℃ 100 % 1020.64 hPa
2021-06-03 00:28:55 18.65 ℃ 100 % 1020.69 hPa
2021-06-03 00:18:55 18.65 ℃ 100 % 1020.85 hPa
2021-06-03 00:08:55 18.81 ℃ 100 % 1020.96 hPa
2021-06-02 23:58:55 18.67 ℃ 100 % 1020.94 hPa
2021-06-02 23:48:55 18.59 ℃ 100 % 1020.94 hPa
2021-06-02 23:38:55 18.55 ℃ 100 % 1020.95 hPa
2021-06-02 23:28:55 18.47 ℃ 100 % 1020.96 hPa
2021-06-02 23:18:55 18.37 ℃ 100 % 1020.94 hPa
2021-06-02 23:08:55 18.31 ℃ 100 % 1020.92 hPa
2021-06-02 22:58:55 18.27 ℃ 100 % 1020.88 hPa
2021-06-02 22:48:55 18.31 ℃ 100 % 1020.86 hPa
2021-06-02 22:38:55 18.32 ℃ 100 % 1020.81 hPa
2021-06-02 22:28:55 18.26 ℃ 100 % 1020.75 hPa
2021-06-02 22:18:55 18.14 ℃ 100 % 1020.72 hPa
2021-06-02 22:08:55 18.06 ℃ 100 % 1020.69 hPa
2021-06-02 21:58:55 17.96 ℃ 100 % 1020.63 hPa
2021-06-02 21:48:55 17.93 ℃ 100 % 1020.58 hPa
2021-06-02 21:38:55 17.92 ℃ 100 % 1020.51 hPa
2021-06-02 21:28:55 17.9 ℃ 100 % 1020.48 hPa
2021-06-02 21:18:55 17.87 ℃ 100 % 1020.42 hPa
2021-06-02 21:08:55 17.89 ℃ 100 % 1020.4 hPa
2021-06-02 20:58:55 17.81 ℃ 100 % 1020.38 hPa
2021-06-02 20:48:55 17.8 ℃ 100 % 1020.43 hPa
2021-06-02 20:38:55 17.67 ℃ 100 % 1020.49 hPa
2021-06-02 20:28:55 17.85 ℃ 100 % 1020.58 hPa
2021-06-02 20:18:55 17.95 ℃ 100 % 1020.6 hPa
2021-06-02 20:08:55 18.12 ℃ 100 % 1020.54 hPa
2021-06-02 19:58:55 18.12 ℃ 100 % 1020.54 hPa
2021-06-02 19:48:55 18.32 ℃ 100 % 1020.5 hPa
2021-06-02 19:38:55 18.51 ℃ 100 % 1020.48 hPa
2021-06-02 19:28:55 18.45 ℃ 100 % 1020.5 hPa
2021-06-02 19:18:55 18.54 ℃ 100 % 1020.54 hPa
2021-06-02 19:08:55 18.62 ℃ 100 % 1020.56 hPa
2021-06-02 18:58:55 18.89 ℃ 100 % 1020.56 hPa
2021-06-02 18:48:56 18.85 ℃ 100 % 1020.55 hPa
2021-06-02 18:38:55 18.82 ℃ 100 % 1020.54 hPa
2021-06-02 18:28:55 18.65 ℃ 100 % 1020.56 hPa
2021-06-02 18:18:55 18.44 ℃ 100 % 1020.58 hPa
2021-06-02 18:08:55 18.36 ℃ 99.99 % 1020.59 hPa
2021-06-02 17:58:55 18.5 ℃ 99.99 % 1020.64 hPa
2021-06-02 17:48:55 18.53 ℃ 99.98 % 1020.68 hPa
2021-06-02 17:38:55 18.04 ℃ 99.96 % 1020.79 hPa
2021-06-02 17:28:55 18.11 ℃ 99.91 % 1020.8 hPa
2021-06-02 17:18:55 18.26 ℃ 99.83 % 1020.81 hPa
2021-06-02 17:08:55 18.56 ℃ 99.65 % 1020.77 hPa
2021-06-02 16:58:55 18.68 ℃ 99.31 % 1020.75 hPa
2021-06-02 16:48:55 18.94 ℃ 98.62 % 1020.72 hPa
2021-06-02 16:38:55 18.78 ℃ 99.88 % 1020.78 hPa
2021-06-02 16:28:55 18.83 ℃ 99.77 % 1020.83 hPa
2021-06-02 16:18:56 18.49 ℃ 99.74 % 1020.9 hPa
2021-06-02 16:08:55 18.67 ℃ 99.48 % 1020.83 hPa
2021-06-02 15:58:57 18.85 ℃ 98.97 % 1020.83 hPa
2021-06-02 15:48:55 18.77 ℃ 98.94 % 1020.92 hPa
2021-06-01 22:23:21 15.1 ℃ 0 % 1020.06 hPa
2021-06-01 22:13:21 15.37 ℃ 0 % 1020.05 hPa
2021-06-01 22:03:21 15.58 ℃ 0 % 1019.96 hPa
2021-06-01 21:53:21 15.67 ℃ 0 % 1019.83 hPa
2021-06-01 21:43:21 15.96 ℃ 0 % 1019.72 hPa
2021-06-01 21:33:22 16.37 ℃ 0 % 1019.57 hPa
2021-06-01 21:23:21 16.27 ℃ 0 % 1019.51 hPa
2021-06-01 21:13:21 16.44 ℃ 0 % 1019.44 hPa
2021-06-01 21:03:21 16.56 ℃ 0 % 1019.42 hPa
2021-06-01 20:43:21 17.1 ℃ 0 % 1019.32 hPa
2021-06-01 20:33:21 17.39 ℃ 0 % 1019.25 hPa
2021-06-01 20:23:22 17.65 ℃ 0 % 1019.29 hPa
2021-06-01 20:13:22 17.93 ℃ 0 % 1019.31 hPa
2021-06-01 20:03:21 18.05 ℃ 0 % 1019.36 hPa
2021-06-01 19:53:22 17.98 ℃ 0 % 1019.44 hPa
2021-06-01 19:43:21 17.94 ℃ 0 % 1019.5 hPa
2021-06-01 19:33:21 18.08 ℃ 0 % 1019.55 hPa
2021-06-01 19:23:21 18.23 ℃ 0 % 1019.59 hPa
2021-06-01 19:13:22 18.27 ℃ 0 % 1019.62 hPa
2021-06-01 19:03:22 18.55 ℃ 0 % 1019.66 hPa
2021-06-01 18:53:22 18.54 ℃ 0 % 1019.66 hPa
2021-06-01 18:43:22 18.86 ℃ 0 % 1019.6 hPa
2021-06-01 18:33:22 18.79 ℃ 0 % 1019.6 hPa
2021-06-01 18:23:22 19.03 ℃ 0 % 1019.65 hPa
2021-06-01 18:13:22 19.11 ℃ 0 % 1019.71 hPa
2021-06-01 18:03:22 19.26 ℃ 0 % 1019.76 hPa
2021-06-01 17:53:22 19.7 ℃ 0 % 1019.71 hPa
2021-06-01 17:43:22 19.93 ℃ 0 % 1019.81 hPa
2021-06-01 17:33:22 19.98 ℃ 0 % 1019.84 hPa
2021-06-01 17:23:22 19.91 ℃ 0 % 1019.95 hPa
2021-06-01 17:13:22 19.84 ℃ 0 % 1020.02 hPa
2021-06-01 17:03:22 19.91 ℃ 0 % 1020.1 hPa
2021-06-01 16:53:22 19.76 ℃ 0 % 1020.22 hPa
2021-06-01 16:43:22 19.85 ℃ 0 % 1020.29 hPa
2021-06-01 16:33:22 19.65 ℃ 0 % 1020.34 hPa
2021-06-01 16:23:22 19.74 ℃ 0 % 1020.32 hPa
2021-06-01 16:13:22 20.08 ℃ 0 % 1020.35 hPa
2021-06-01 16:03:22 20.13 ℃ 0 % 1020.38 hPa
2021-06-01 15:53:22 20.09 ℃ 0 % 1020.47 hPa
2021-06-01 15:43:22 20.37 ℃ 0 % 1020.53 hPa
2021-06-01 15:33:22 20.65 ℃ 0 % 1020.55 hPa
2021-06-01 15:23:22 21.17 ℃ 0 % 1020.51 hPa
2021-06-01 15:13:22 21.86 ℃ 0 % 1020.53 hPa
2021-06-01 15:03:22 22.13 ℃ 0 % 1020.54 hPa
2021-06-01 14:53:22 21.92 ℃ 0 % 1020.58 hPa
2021-06-01 14:43:22 21.47 ℃ 0 % 1020.66 hPa
2021-06-01 14:33:22 21.5 ℃ 0 % 1020.72 hPa
2021-06-01 14:23:22 21.52 ℃ 0 % 1020.74 hPa
2021-06-01 14:13:22 21.69 ℃ 0 % 1020.82 hPa
2021-06-01 14:03:22 21.92 ℃ 0 % 1020.88 hPa
2021-06-01 13:53:22 22.27 ℃ 0 % 1020.88 hPa
2021-06-01 13:43:22 22.1 ℃ 0 % 1020.9 hPa
2021-06-01 13:33:22 21.31 ℃ 0 % 1020.99 hPa
2021-06-01 13:23:22 21.06 ℃ 0 % 1021.02 hPa
2021-06-01 13:13:22 20.81 ℃ 0 % 1021.13 hPa
2021-06-01 13:03:22 21.08 ℃ 0 % 1021.16 hPa
2021-06-01 12:53:22 20.91 ℃ 0 % 1021.19 hPa
2021-06-01 12:43:22 20.99 ℃ 0 % 1021.23 hPa
2021-06-01 12:33:22 20.9 ℃ 0 % 1021.25 hPa
2021-06-01 12:23:22 21.39 ℃ 0 % 1021.26 hPa
2021-06-01 12:13:22 22.11 ℃ 0 % 1021.22 hPa
2021-06-01 12:03:22 21.94 ℃ 0 % 1021.34 hPa
2021-06-01 11:53:22 22 ℃ 0 % 1021.4 hPa
2021-06-01 11:43:22 21.99 ℃ 0 % 1021.46 hPa
2021-06-01 11:33:22 22.25 ℃ 0 % 1021.44 hPa
2021-06-01 11:23:22 22.13 ℃ 0 % 1021.43 hPa
2021-06-01 11:13:22 22.34 ℃ 0 % 1021.37 hPa
2021-06-01 11:03:22 21.75 ℃ 0 % 1021.42 hPa
2021-06-01 10:53:22 21.92 ℃ 0 % 1021.45 hPa
2021-06-01 10:43:22 22.01 ℃ 0 % 1021.47 hPa
2021-06-01 10:33:22 21.93 ℃ 0 % 1021.53 hPa
2021-06-01 10:23:22 21.24 ℃ 0 % 1021.62 hPa
2021-06-01 10:13:22 20.77 ℃ 0 % 1021.69 hPa
2021-06-01 10:03:22 19.97 ℃ 0 % 1021.8 hPa
2021-06-01 09:53:22 20 ℃ 0 % 1021.88 hPa
2021-06-01 09:43:22 19.84 ℃ 0 % 1021.9 hPa
2021-06-01 09:33:23 19.68 ℃ 0 % 1021.91 hPa
2021-06-01 09:23:22 19.81 ℃ 0 % 1021.96 hPa
2021-06-01 09:13:22 19.94 ℃ 0 % 1021.96 hPa
2021-06-01 09:03:22 20.07 ℃ 0 % 1022.01 hPa
2021-06-01 08:53:22 19.9 ℃ 0 % 1022.08 hPa
2021-06-01 08:43:22 19.48 ℃ 0 % 1022.14 hPa
2021-06-01 08:33:22 19.01 ℃ 0 % 1022.12 hPa
2021-06-01 08:23:23 18.77 ℃ 0 % 1022.15 hPa
2021-06-01 08:13:22 18.35 ℃ 0 % 1022.16 hPa
2021-06-01 08:03:22 18.28 ℃ 0 % 1022.13 hPa
2021-06-01 07:53:23 18.06 ℃ 0 % 1022.1 hPa
2021-06-01 07:43:22 17.9 ℃ 0 % 1022.1 hPa
2021-06-01 07:33:23 17.75 ℃ 0 % 1022.14 hPa
2021-06-01 07:23:22 17.3 ℃ 0 % 1022.14 hPa
2021-06-01 07:13:23 17.09 ℃ 0 % 1022.17 hPa
2021-06-01 07:03:23 17.26 ℃ 0 % 1022.16 hPa
2021-06-01 06:53:23 16.95 ℃ 0 % 1022.2 hPa
2021-06-01 06:43:23 16.77 ℃ 0 % 1022.18 hPa
2021-06-01 06:33:23 16.81 ℃ 0 % 1022.16 hPa
2021-06-01 06:23:23 16.84 ℃ 0 % 1022.22 hPa
2021-06-01 06:13:23 16.87 ℃ 0 % 1022.23 hPa
2021-06-01 06:03:23 16.96 ℃ 0 % 1022.24 hPa
2021-06-01 05:53:23 16.8 ℃ 0 % 1022.23 hPa
2021-06-01 05:43:23 16.77 ℃ 0 % 1022.27 hPa
2021-06-01 05:33:23 16.6 ℃ 0 % 1022.32 hPa
2021-06-01 05:23:23 16.33 ℃ 0 % 1022.38 hPa
2021-06-01 05:13:23 16.44 ℃ 0 % 1022.4 hPa
2021-06-01 05:03:23 16.54 ℃ 0 % 1022.39 hPa
2021-06-01 04:53:23 16.62 ℃ 0 % 1022.4 hPa
2021-06-01 04:43:23 16.76 ℃ 0 % 1022.4 hPa
2021-06-01 04:33:23 16.98 ℃ 0 % 1022.42 hPa
2021-06-01 04:23:23 17.36 ℃ 0 % 1022.42 hPa
2021-06-01 04:13:23 17.74 ℃ 0 % 1022.48 hPa
2021-06-01 04:03:23 17.73 ℃ 0 % 1022.54 hPa
2021-06-01 03:53:23 17.67 ℃ 0 % 1022.6 hPa
2021-06-01 03:43:23 17.74 ℃ 0 % 1022.63 hPa
2021-06-01 03:33:23 17.47 ℃ 0 % 1022.68 hPa
2021-06-01 03:23:23 17.3 ℃ 0 % 1022.71 hPa
2021-06-01 03:13:23 17.42 ℃ 0 % 1022.74 hPa
2021-06-01 03:03:23 17.46 ℃ 0 % 1022.74 hPa
2021-06-01 02:53:23 17.53 ℃ 0 % 1022.8 hPa
2021-06-01 02:43:23 17.71 ℃ 0 % 1022.83 hPa
2021-06-01 02:33:23 17.88 ℃ 94.05 % 1022.86 hPa
2021-06-01 02:23:23 17.95 ℃ 93.65 % 1022.9 hPa
2021-06-01 02:13:23 18.1 ℃ 92.83 % 1022.97 hPa
2021-06-01 02:03:23 18.22 ℃ 92.24 % 1023.01 hPa
2021-06-01 01:53:23 18.07 ℃ 93.17 % 1023.09 hPa
2021-06-01 01:43:23 17.89 ℃ 94.68 % 1023.15 hPa
2021-06-01 01:33:23 17.82 ℃ 95.01 % 1023.19 hPa
2021-06-01 01:23:23 17.74 ℃ 95.09 % 1023.19 hPa
2021-06-01 01:13:23 17.91 ℃ 92.65 % 1023.23 hPa
2021-06-01 01:03:23 18.29 ℃ 88.42 % 1023.26 hPa
2021-06-01 00:53:23 18.26 ℃ 87.28 % 1023.31 hPa
2021-06-01 00:43:23 18.15 ℃ 87.16 % 1023.34 hPa
2021-06-01 00:33:23 18.01 ℃ 87.07 % 1023.39 hPa
2021-06-01 00:23:23 17.93 ℃ 86.49 % 1023.49 hPa
2021-06-01 00:13:23 18.28 ℃ 83.15 % 1023.51 hPa
2021-06-01 00:03:23 18.72 ℃ 78.35 % 1023.48 hPa
2021-05-31 23:53:23 19.01 ℃ 73.64 % 1023.49 hPa
2021-05-31 23:43:23 19.22 ℃ 71.02 % 1023.49 hPa
2021-05-31 23:33:23 19.37 ℃ 69.3 % 1023.47 hPa
2021-05-31 23:23:23 19.52 ℃ 68.9 % 1023.53 hPa
2021-05-31 23:13:23 19.65 ℃ 68.89 % 1023.54 hPa
2021-05-31 23:03:23 19.91 ℃ 68.49 % 1023.53 hPa
2021-05-31 22:53:23 20.12 ℃ 68.32 % 1023.5 hPa
2021-05-31 22:43:23 20.22 ℃ 66.52 % 1023.43 hPa
2021-05-31 22:33:23 20.35 ℃ 65.32 % 1023.38 hPa
2021-05-31 22:23:23 20.4 ℃ 64.47 % 1023.35 hPa
2021-05-31 22:13:23 20.46 ℃ 63.68 % 1023.35 hPa
2021-05-31 22:03:23 20.54 ℃ 63.2 % 1023.3 hPa
2021-05-31 21:53:23 20.6 ℃ 63.85 % 1023.28 hPa
2021-05-31 21:43:24 20.8 ℃ 62.84 % 1023.25 hPa
2021-05-31 21:33:23 20.91 ℃ 61.84 % 1023.2 hPa
2021-05-31 21:23:23 20.97 ℃ 60.9 % 1023.18 hPa
2021-05-31 21:13:24 21.22 ℃ 59.22 % 1023.13 hPa
2021-05-31 21:03:23 21.32 ℃ 57.93 % 1023.1 hPa
2021-05-31 20:53:23 21.37 ℃ 56.72 % 1023.11 hPa
2021-05-31 20:43:23 21.36 ℃ 55.72 % 1023.17 hPa
2021-05-31 20:33:23 21.53 ℃ 53.56 % 1023.23 hPa
2021-05-31 20:23:23 21.62 ℃ 52.45 % 1023.27 hPa
2021-05-31 20:13:24 21.72 ℃ 49.95 % 1023.33 hPa
2021-05-31 20:03:24 21.91 ℃ 49.36 % 1023.33 hPa
2021-05-31 19:53:24 21.86 ℃ 48.48 % 1023.39 hPa
2021-05-31 19:43:24 21.96 ℃ 45.39 % 1023.4 hPa
2021-05-31 19:33:24 22.09 ℃ 43.51 % 1023.48 hPa
2021-05-31 19:23:24 22 ℃ 44.23 % 1023.54 hPa
2021-05-31 19:13:24 21.96 ℃ 44.03 % 1023.62 hPa
2021-05-31 19:03:24 22.14 ℃ 43.43 % 1023.64 hPa
2021-05-31 18:53:24 22.35 ℃ 41.78 % 1023.71 hPa
2021-05-31 18:43:24 22.23 ℃ 41.42 % 1023.8 hPa
2021-05-31 18:33:24 22.37 ℃ 41.77 % 1023.9 hPa
2021-05-31 18:23:24 22.29 ℃ 41.17 % 1024.07 hPa
2021-05-31 18:13:24 22.05 ℃ 40.97 % 1024.19 hPa
2021-05-31 18:03:24 22.16 ℃ 40.62 % 1024.25 hPa
2021-05-31 17:53:24 21.98 ℃ 40.59 % 1024.31 hPa
2021-05-31 17:43:24 21.99 ℃ 40.3 % 1024.37 hPa
2021-05-31 17:33:27 21.91 ℃ 40.25 % 1024.43 hPa
2021-05-31 17:23:24 22.03 ℃ 39.76 % 1024.51 hPa
2021-05-31 17:13:24 22.28 ℃ 39.39 % 1024.6 hPa
2021-05-31 17:03:24 22.51 ℃ 39.19 % 1024.67 hPa
2021-05-31 16:53:24 22.52 ℃ 39.42 % 1024.73 hPa
2021-05-31 16:43:24 22.42 ℃ 38.99 % 1024.81 hPa
2021-05-31 16:33:24 22.02 ℃ 39.98 % 1024.94 hPa
2021-05-31 16:23:24 22.09 ℃ 39.24 % 1025 hPa
2021-05-31 16:13:24 22.22 ℃ 38.8 % 1025.1 hPa
2021-05-31 16:03:24 22.05 ℃ 39.89 % 1025.22 hPa
2021-05-31 15:53:24 22.07 ℃ 39.74 % 1025.23 hPa
2021-05-31 15:43:24 21.98 ℃ 39.54 % 1025.35 hPa
2021-05-31 15:33:24 22.09 ℃ 39.51 % 1025.38 hPa
2021-05-31 15:23:24 22.07 ℃ 39.74 % 1025.48 hPa
2021-05-31 15:13:24 22.03 ℃ 40.6 % 1025.53 hPa
2021-05-31 15:03:24 22.2 ℃ 40.92 % 1025.57 hPa
2021-05-31 14:53:24 22.08 ℃ 41.52 % 1025.68 hPa
2021-05-31 14:43:24 21.98 ℃ 42.25 % 1025.73 hPa
2021-05-31 14:33:24 22.39 ℃ 41.41 % 1025.77 hPa
2021-05-31 14:23:24 22 ℃ 43.65 % 1025.79 hPa
2021-05-31 14:13:24 22.02 ℃ 44.09 % 1025.82 hPa
2021-05-31 14:03:24 21.47 ℃ 48.06 % 1025.95 hPa
2021-05-31 13:53:24 21.53 ℃ 50.91 % 1026.04 hPa
2021-05-31 13:43:24 21.59 ℃ 51.24 % 1026.04 hPa
2021-05-31 13:33:24 21.77 ℃ 49.82 % 1026.02 hPa
2021-05-31 13:23:24 21.46 ℃ 50.57 % 1026.09 hPa
2021-05-31 13:13:24 21.16 ℃ 50.07 % 1026.14 hPa
2021-05-31 13:03:24 21.1 ℃ 50.13 % 1026.2 hPa
2021-05-31 12:53:24 21.23 ℃ 49.07 % 1026.25 hPa
2021-05-31 12:43:24 21.24 ℃ 48.74 % 1026.29 hPa
2021-05-31 12:33:25 21.22 ℃ 48.41 % 1026.35 hPa
2021-05-31 12:23:24 21.56 ℃ 46.31 % 1026.42 hPa
2021-05-31 12:13:24 21.51 ℃ 47.7 % 1026.44 hPa
2021-05-31 12:03:24 21.55 ℃ 48.6 % 1026.46 hPa
2021-05-31 11:53:24 21.3 ℃ 48.52 % 1026.54 hPa
2021-05-31 11:43:24 21.04 ℃ 46.88 % 1026.6 hPa
2021-05-31 11:33:24 21.43 ℃ 43.23 % 1026.61 hPa
2021-05-31 11:23:24 21.62 ℃ 43.85 % 1026.59 hPa
2021-05-31 11:13:24 22.17 ℃ 44.77 % 1026.56 hPa
2021-05-31 11:03:24 21.96 ℃ 46.4 % 1026.65 hPa
2021-05-31 10:53:24 21.69 ℃ 48.56 % 1026.73 hPa
2021-05-31 10:43:24 21.51 ℃ 51.09 % 1026.78 hPa
2021-05-31 10:33:24 21.68 ℃ 50.93 % 1026.83 hPa
2021-05-31 10:23:24 21.75 ℃ 51.98 % 1026.89 hPa
2021-05-31 10:13:25 21.38 ℃ 53.19 % 1026.98 hPa
2021-05-31 10:03:24 21.1 ℃ 54.58 % 1027.06 hPa
2021-05-31 09:53:24 21.04 ℃ 57.81 % 1027.11 hPa
2021-05-31 09:43:24 20.7 ℃ 60.68 % 1027.13 hPa
2021-05-31 09:33:25 20.76 ℃ 61.17 % 1027.18 hPa
2021-05-31 09:23:24 20.71 ℃ 61.09 % 1027.24 hPa
2021-05-31 09:13:24 20.62 ℃ 60.4 % 1027.26 hPa
2021-05-31 09:03:25 20.68 ℃ 59.01 % 1027.29 hPa
2021-05-31 08:53:24 20.2 ℃ 60.63 % 1027.29 hPa
2021-05-31 08:43:25 20.32 ℃ 58.99 % 1027.3 hPa
2021-05-31 08:33:25 20.13 ℃ 59.33 % 1027.31 hPa
2021-05-31 08:23:25 20 ℃ 60.03 % 1027.3 hPa
2021-05-31 08:13:25 20.1 ℃ 61.07 % 1027.27 hPa
2021-05-31 08:03:25 20.03 ℃ 60.5 % 1027.21 hPa
2021-05-31 07:53:25 19.89 ℃ 64.45 % 1027.18 hPa
2021-05-31 07:43:25 19.5 ℃ 70.36 % 1027.18 hPa
2021-05-31 07:33:25 19.33 ℃ 76.67 % 1027.14 hPa
2021-05-31 07:23:25 18.82 ℃ 84.87 % 1027.15 hPa
2021-05-31 07:13:25 18.43 ℃ 89.77 % 1027.15 hPa
2021-05-31 07:03:25 18.63 ℃ 87.17 % 1027.18 hPa
2021-05-31 06:53:25 18.97 ℃ 84.23 % 1027.17 hPa
2021-05-31 06:43:25 19.27 ℃ 84.51 % 1027.17 hPa
2021-05-31 06:33:25 19.27 ℃ 86.54 % 1027.23 hPa
2021-05-31 06:23:25 19.31 ℃ 87.27 % 1027.27 hPa
2021-05-31 06:13:25 18.74 ℃ 90.62 % 1027.35 hPa
2021-05-31 06:03:25 17.81 ℃ 96.43 % 1027.39 hPa
2021-05-31 05:53:25 17.23 ℃ 100 % 1027.4 hPa
2021-05-31 05:43:25 16.8 ℃ 100 % 1027.45 hPa
2021-05-31 05:33:25 15.66 ℃ 100 % 1027.48 hPa
2021-05-31 05:23:25 14.65 ℃ 100 % 1027.49 hPa
2021-05-31 05:13:25 14.35 ℃ 100 % 1027.45 hPa
2021-05-31 05:03:25 14.3 ℃ 100 % 1027.45 hPa
2021-05-31 04:53:25 14.27 ℃ 100 % 1027.44 hPa
2021-05-31 04:43:25 14.36 ℃ 100 % 1027.42 hPa
2021-05-31 04:33:25 14.51 ℃ 100 % 1027.42 hPa
2021-05-31 04:23:25 14.23 ℃ 100 % 1027.41 hPa
2021-05-31 04:13:25 14.03 ℃ 100 % 1027.46 hPa
2021-05-31 04:03:25 14.06 ℃ 100 % 1027.5 hPa
2021-05-31 03:53:25 14.36 ℃ 100 % 1027.44 hPa
2021-05-31 03:43:25 14.46 ℃ 100 % 1027.48 hPa
2021-05-31 03:33:25 14.94 ℃ 100 % 1027.51 hPa
2021-05-31 03:23:25 14.95 ℃ 100 % 1027.55 hPa
2021-05-31 03:13:25 14.94 ℃ 100 % 1027.65 hPa
2021-05-31 03:03:25 14.73 ℃ 100 % 1027.73 hPa
2021-05-31 02:53:25 14.54 ℃ 100 % 1027.82 hPa
2021-05-31 02:43:25 14.83 ℃ 100 % 1027.9 hPa
2021-05-31 02:33:25 14.67 ℃ 100 % 1027.99 hPa
2021-05-31 02:23:25 14.4 ℃ 100 % 1028.06 hPa
2021-05-31 02:13:25 14.72 ℃ 100 % 1028.07 hPa
2021-05-31 02:03:25 15.05 ℃ 100 % 1028.06 hPa
2021-05-31 01:53:25 15.25 ℃ 100 % 1028.11 hPa
2021-05-31 01:43:27 14.75 ℃ 100 % 1028.18 hPa
2021-05-31 01:33:25 14.71 ℃ 100 % 1028.25 hPa
2021-05-31 01:23:25 14.19 ℃ 100 % 1028.3 hPa
2021-05-31 01:13:25 13.88 ℃ 100 % 1028.34 hPa
2021-05-31 01:03:25 13.83 ℃ 100 % 1028.32 hPa
2021-05-31 00:53:25 13.99 ℃ 100 % 1028.3 hPa
2021-05-31 00:43:25 14.3 ℃ 100 % 1028.25 hPa
2021-05-31 00:33:25 14.37 ℃ 100 % 1028.2 hPa
2021-05-31 00:23:25 14.4 ℃ 100 % 1028.18 hPa
2021-05-31 00:13:25 14.58 ℃ 100 % 1028.15 hPa
2021-05-31 00:03:25 14.45 ℃ 100 % 1028.1 hPa
2021-05-30 23:53:25 14.79 ℃ 100 % 1028.02 hPa
2021-05-30 23:43:25 14.84 ℃ 100 % 1028.04 hPa
2021-05-30 23:33:26 14.74 ℃ 100 % 1028.02 hPa
2021-05-30 23:23:25 14.75 ℃ 100 % 1028.02 hPa
2021-05-30 23:13:25 14.74 ℃ 100 % 1028.07 hPa
2021-05-30 23:03:25 14.85 ℃ 100 % 1028.1 hPa
2021-05-30 22:53:26 14.74 ℃ 100 % 1028.08 hPa
2021-05-30 22:43:25 14.73 ℃ 100 % 1028.02 hPa
2021-05-30 22:33:25 14.95 ℃ 100 % 1027.93 hPa
2021-05-30 22:23:26 15.17 ℃ 100 % 1027.91 hPa
2021-05-30 22:13:26 15.47 ℃ 100 % 1027.88 hPa
2021-05-30 22:03:25 15.52 ℃ 100 % 1027.85 hPa
2021-05-30 21:53:25 15.6 ℃ 100 % 1027.84 hPa
2021-05-30 21:43:25 15.87 ℃ 100 % 1027.8 hPa
2021-05-30 21:33:26 16.3 ℃ 100 % 1027.76 hPa
2021-05-30 21:23:26 16.61 ℃ 100 % 1027.75 hPa
2021-05-30 21:13:26 16.73 ℃ 100 % 1027.74 hPa
2021-05-30 21:03:26 17.03 ℃ 100 % 1027.69 hPa
2021-05-30 20:53:26 17.25 ℃ 100 % 1027.65 hPa
2021-05-30 20:43:26 17.29 ℃ 100 % 1027.66 hPa
2021-05-30 20:33:26 17.25 ℃ 100 % 1027.71 hPa
2021-05-30 20:23:26 17.16 ℃ 100 % 1027.76 hPa
2021-05-30 20:13:26 17.24 ℃ 100 % 1027.84 hPa
2021-05-30 20:03:26 17.22 ℃ 100 % 1027.9 hPa
2021-05-30 19:53:26 17.26 ℃ 100 % 1027.95 hPa
2021-05-30 19:43:26 17.26 ℃ 99.99 % 1027.96 hPa
2021-05-30 19:33:26 17.38 ℃ 99.98 % 1028.03 hPa
2021-05-30 19:23:26 17.5 ℃ 99.97 % 1028.03 hPa
2021-05-30 19:13:26 17.66 ℃ 99.94 % 1028.05 hPa
2021-05-30 19:03:26 18.08 ℃ 99.87 % 1028.04 hPa
2021-05-30 18:53:26 18.3 ℃ 99.74 % 1028.02 hPa
2021-05-30 18:43:26 18.27 ℃ 99.48 % 1028.08 hPa
2021-05-30 18:33:26 18.43 ℃ 98.96 % 1028.05 hPa
2021-05-30 18:23:26 18.62 ℃ 97.93 % 1028.06 hPa
2021-05-30 18:13:26 18.69 ℃ 96.62 % 1028.08 hPa
2021-05-30 18:03:26 18.7 ℃ 94.59 % 1028.11 hPa
2021-05-30 17:53:26 18.84 ℃ 91.58 % 1028.19 hPa
2021-05-30 17:43:26 18.61 ℃ 89.7 % 1028.33 hPa
2021-05-30 17:33:26 18.49 ℃ 86.91 % 1028.44 hPa
2021-05-30 17:23:26 18.2 ℃ 89.24 % 1028.54 hPa
2021-05-30 17:13:26 17.98 ℃ 89.91 % 1028.6 hPa
2021-05-30 17:03:26 17.84 ℃ 92.81 % 1028.65 hPa
2021-05-30 16:53:26 17.61 ℃ 94.66 % 1028.76 hPa
2021-05-30 16:43:26 17.48 ℃ 95.58 % 1028.88 hPa
2021-05-30 16:33:26 17.56 ℃ 96.28 % 1028.94 hPa
2021-05-30 16:23:26 17.69 ℃ 96.28 % 1029.04 hPa
2021-05-30 16:13:26 17.9 ℃ 95.44 % 1029.09 hPa
2021-05-30 16:03:26 18.35 ℃ 93.41 % 1029.05 hPa
2021-05-30 15:53:26 18.54 ℃ 95.05 % 1029.06 hPa
2021-05-30 15:43:26 18.63 ℃ 97.48 % 1029.11 hPa
2021-05-30 15:33:26 18.52 ℃ 97.27 % 1029.17 hPa
2021-05-30 15:23:26 18.46 ℃ 94.55 % 1029.23 hPa
2021-05-30 15:13:26 18.85 ℃ 89.27 % 1029.22 hPa
2021-05-30 15:03:26 18.93 ℃ 90.24 % 1029.27 hPa
2021-05-30 14:53:26 18.96 ℃ 88.33 % 1029.31 hPa
2021-05-30 14:43:26 18.56 ℃ 93.67 % 1029.38 hPa
2021-05-30 14:33:26 18.43 ℃ 100 % 1029.39 hPa
2021-05-30 14:23:26 18.34 ℃ 100 % 1029.42 hPa
2021-05-30 14:13:27 18.26 ℃ 100 % 1029.44 hPa
2021-05-30 14:03:26 17.83 ℃ 100 % 1029.5 hPa
2021-05-30 13:53:26 17.55 ℃ 100 % 1029.55 hPa
2021-05-30 13:43:26 17.68 ℃ 100 % 1029.58 hPa
2021-05-30 13:33:26 17.62 ℃ 100 % 1029.64 hPa
2021-05-30 13:23:26 17.25 ℃ 100 % 1029.65 hPa
2021-05-30 13:13:27 17 ℃ 100 % 1029.7 hPa
2021-05-30 13:03:26 16.31 ℃ 100 % 1029.74 hPa
2021-05-30 12:53:26 16.63 ℃ 100 % 1029.78 hPa
2021-05-30 12:43:26 16.35 ℃ 100 % 1029.83 hPa
2021-05-30 12:33:26 16.26 ℃ 100 % 1029.84 hPa
2021-05-30 12:23:26 15.74 ℃ 100 % 1029.89 hPa
2021-05-30 12:13:27 15.98 ℃ 100 % 1029.89 hPa
2021-05-30 12:03:26 15.07 ℃ 100 % 1029.94 hPa
2021-05-30 11:53:26 14.57 ℃ 100 % 1029.97 hPa
2021-05-30 11:43:29 13.9 ℃ 100 % 1030.01 hPa
2021-05-30 11:33:28 14.18 ℃ 100 % 1030 hPa
2021-05-30 11:23:27 13.82 ℃ 100 % 1030 hPa
2021-05-30 11:13:26 14.09 ℃ 100 % 1029.97 hPa
2021-05-30 11:03:27 14.17 ℃ 100 % 1029.98 hPa
2021-05-30 10:53:27 13.85 ℃ 100 % 1029.9 hPa
2021-05-30 10:43:26 13.68 ℃ 100 % 1029.9 hPa
2021-05-30 10:33:27 13.38 ℃ 100 % 1029.85 hPa
2021-05-30 10:23:27 13.52 ℃ 100 % 1029.8 hPa
2021-05-30 10:13:27 13.68 ℃ 100 % 1029.77 hPa
2021-05-30 10:03:35 13.51 ℃ 100 % 1029.7 hPa
2021-05-30 09:53:28 13.37 ℃ 100 % 1029.63 hPa
2021-05-30 09:43:29 12.92 ℃ 100 % 1029.58 hPa
2021-05-30 09:33:29 12.66 ℃ 100 % 1029.55 hPa
2021-05-30 09:23:27 12.43 ℃ 100 % 1029.56 hPa
2021-05-30 09:13:27 12.13 ℃ 100 % 1029.58 hPa
2021-05-30 09:03:27 11.86 ℃ 100 % 1029.56 hPa
2021-05-30 08:53:27 11.78 ℃ 100 % 1029.52 hPa
2021-05-30 08:43:27 11.38 ℃ 100 % 1029.44 hPa
2021-05-30 08:33:27 11.65 ℃ 100 % 1029.38 hPa
2021-05-30 08:23:27 11.1 ℃ 100 % 1029.36 hPa
2021-05-30 08:13:27 10.82 ℃ 100 % 1029.35 hPa
2021-05-30 08:03:27 10.66 ℃ 100 % 1029.38 hPa
2021-05-30 07:53:27 10.51 ℃ 100 % 1029.41 hPa
2021-05-30 07:43:27 10.75 ℃ 100 % 1029.4 hPa
2021-05-30 07:33:27 10.91 ℃ 100 % 1029.35 hPa
2021-05-30 07:23:27 10.88 ℃ 100 % 1029.32 hPa
2021-05-30 07:13:27 10.87 ℃ 100 % 1029.32 hPa
2021-05-30 07:03:27 10.63 ℃ 100 % 1029.37 hPa
2021-05-30 06:53:27 10.65 ℃ 100 % 1029.41 hPa
2021-05-30 06:43:27 10.51 ℃ 100 % 1029.41 hPa
2021-05-30 06:33:27 10.62 ℃ 100 % 1029.39 hPa
2021-05-30 06:23:27 10.62 ℃ 100 % 1029.36 hPa
2021-05-30 06:13:27 10.65 ℃ 100 % 1029.35 hPa
2021-05-30 06:03:27 10.46 ℃ 100 % 1029.35 hPa
2021-05-30 05:53:27 10.33 ℃ 100 % 1029.35 hPa
2021-05-30 05:43:27 10.11 ℃ 100 % 1029.38 hPa
2021-05-30 05:33:27 10.13 ℃ 100 % 1029.35 hPa
2021-05-30 05:23:27 10.11 ℃ 100 % 1029.3 hPa
2021-05-30 05:13:27 10.07 ℃ 100 % 1029.3 hPa
2021-05-30 05:03:27 9.93 ℃ 100 % 1029.24 hPa
2021-05-30 04:53:27 10.1 ℃ 100 % 1029.22 hPa
2021-05-30 04:43:27 10.14 ℃ 100 % 1029.19 hPa
2021-05-30 04:33:27 10.13 ℃ 100 % 1029.16 hPa
2021-05-30 04:23:27 10.12 ℃ 100 % 1029.15 hPa
2021-05-30 04:13:27 10.14 ℃ 100 % 1029.14 hPa
2021-05-30 04:03:27 10.23 ℃ 100 % 1029.2 hPa
2021-05-30 03:53:27 10.52 ℃ 100 % 1029.18 hPa
2021-05-30 03:43:27 10.86 ℃ 100 % 1029.14 hPa
2021-05-30 03:33:27 10.92 ℃ 100 % 1029.11 hPa
2021-05-30 03:23:27 10.97 ℃ 100 % 1029.08 hPa
2021-05-30 03:13:27 10.76 ℃ 100 % 1029.03 hPa
2021-05-30 03:03:27 10.95 ℃ 100 % 1029.02 hPa
2021-05-30 02:53:27 11.07 ℃ 100 % 1029.05 hPa
2021-05-30 02:43:27 11.28 ℃ 100 % 1029.08 hPa
2021-05-30 02:33:27 11.36 ℃ 100 % 1029.11 hPa
2021-05-30 02:23:27 11.68 ℃ 100 % 1029.15 hPa
2021-05-30 02:13:27 11.84 ℃ 100 % 1029.17 hPa
2021-05-30 02:03:27 11.77 ℃ 100 % 1029.19 hPa
2021-05-30 01:53:27 11.6 ℃ 100 % 1029.15 hPa
2021-05-30 01:43:27 11.65 ℃ 100 % 1029.1 hPa
2021-05-30 01:33:27 11.8 ℃ 100 % 1029.07 hPa
2021-05-30 01:23:27 11.94 ℃ 100 % 1029.04 hPa
2021-05-30 01:13:27 12.43 ℃ 100 % 1029.03 hPa
2021-05-30 01:03:27 12.55 ℃ 100 % 1029.11 hPa
2021-05-30 00:53:28 12.1 ℃ 100 % 1029.19 hPa
2021-05-30 00:43:30 12.14 ℃ 100 % 1029.2 hPa
2021-05-29 13:59:18 15.89 ℃ 0 % 1027.32 hPa
2021-05-29 13:49:33 16 ℃ 0 % 1027.33 hPa
2021-05-29 13:39:17 15.88 ℃ 0 % 1027.3 hPa
2021-05-29 13:29:17 15.36 ℃ 0 % 1027.32 hPa
2021-05-29 13:19:19 15.53 ℃ 0 % 1027.28 hPa
2021-05-29 13:09:17 15.47 ℃ 0 % 1027.24 hPa
2021-05-29 12:59:17 15.38 ℃ 0 % 1027.21 hPa
2021-05-29 12:49:18 15.68 ℃ 0 % 1027.19 hPa
2021-05-29 12:39:18 15.48 ℃ 0 % 1027.17 hPa
2021-05-29 12:29:17 15.48 ℃ 93.61 % 1027.19 hPa
2021-05-29 12:19:20 15.14 ℃ 93.63 % 1027.28 hPa
2021-05-29 12:09:22 15.26 ℃ 94.29 % 1027.31 hPa
2021-05-29 11:59:19 15.06 ℃ 95.06 % 1027.36 hPa
2021-05-29 11:49:17 15.36 ℃ 95.94 % 1027.36 hPa
2021-05-29 11:08:31 13.54 ℃ 99.58 % 1027.04 hPa
2021-05-29 10:58:28 13.36 ℃ 100 % 1027 hPa
2021-05-29 10:48:28 13.2 ℃ 100 % 1027.04 hPa
2021-05-29 10:38:27 12.56 ℃ 100 % 1027.07 hPa
2021-05-29 10:28:27 12.3 ℃ 100 % 1027.07 hPa
2021-05-29 10:18:27 12.07 ℃ 100 % 1027.07 hPa
2021-05-29 10:08:27 12.24 ℃ 100 % 1027.01 hPa
2021-05-29 09:58:27 12.45 ℃ 100 % 1026.98 hPa
2021-05-29 09:48:27 12.35 ℃ 100 % 1026.92 hPa
2021-05-29 09:38:27 12.13 ℃ 100 % 1026.87 hPa
2021-05-29 09:28:27 11.67 ℃ 100 % 1026.81 hPa
2021-05-29 09:18:27 11.66 ℃ 100 % 1026.69 hPa
2021-05-29 09:08:27 11.72 ℃ 100 % 1026.62 hPa
2021-05-29 08:58:27 11.8 ℃ 100 % 1026.57 hPa
2021-05-29 08:48:27 11.59 ℃ 100 % 1026.57 hPa
2021-05-29 08:38:27 11.69 ℃ 100 % 1026.48 hPa
2021-05-29 08:28:27 11.69 ℃ 100 % 1026.36 hPa
2021-05-29 08:18:27 11.44 ℃ 100 % 1026.24 hPa
2021-05-29 08:08:27 11.29 ℃ 100 % 1026.18 hPa
2021-05-29 07:58:27 11.17 ℃ 100 % 1026.13 hPa
2021-05-29 07:48:28 11.22 ℃ 100 % 1026.07 hPa
2021-05-29 07:38:28 10.96 ℃ 100 % 1026.04 hPa
2021-05-29 07:28:31 10.76 ℃ 100 % 1026.03 hPa
2021-05-29 07:18:28 10.81 ℃ 100 % 1025.95 hPa
2021-05-29 07:08:28 11.04 ℃ 100 % 1025.91 hPa
2021-05-29 06:58:28 11.46 ℃ 100 % 1025.78 hPa
2021-05-29 06:48:28 11.49 ℃ 100 % 1025.66 hPa
2021-05-29 06:38:28 11.56 ℃ 100 % 1025.59 hPa
2021-05-29 06:28:28 11.44 ℃ 100 % 1025.52 hPa
2021-05-29 06:18:28 11.73 ℃ 100 % 1025.45 hPa
2021-05-29 06:08:28 11.59 ℃ 100 % 1025.38 hPa
2021-05-29 05:58:28 11.51 ℃ 100 % 1025.33 hPa
2021-05-29 05:48:28 11.54 ℃ 100 % 1025.31 hPa
2021-05-29 05:38:28 11.59 ℃ 100 % 1025.28 hPa
2021-05-29 05:28:28 11.4 ℃ 100 % 1025.25 hPa
2021-05-29 05:18:28 11.26 ℃ 100 % 1025.23 hPa
2021-05-29 05:08:28 11.41 ℃ 100 % 1025.21 hPa
2021-05-29 04:58:28 11.87 ℃ 100 % 1025.18 hPa
2021-05-29 04:48:28 11.81 ℃ 100 % 1025.23 hPa
2021-05-29 04:38:28 11.79 ℃ 100 % 1025.2 hPa
2021-05-29 04:28:28 11.81 ℃ 100 % 1025.16 hPa
2021-05-29 04:18:28 11.78 ℃ 100 % 1025.17 hPa
2021-05-29 04:08:28 11.43 ℃ 100 % 1025.16 hPa
2021-05-29 03:58:28 11.65 ℃ 100 % 1025.15 hPa
2021-05-29 03:48:28 11.7 ℃ 100 % 1025.18 hPa
2021-05-29 03:38:28 11.64 ℃ 100 % 1025.19 hPa
2021-05-29 03:28:36 11.59 ℃ 100 % 1025.17 hPa
2021-05-29 03:18:28 11.6 ℃ 100 % 1025.14 hPa
2021-05-29 03:08:28 11.67 ℃ 100 % 1025.06 hPa
2021-05-29 02:58:28 11.4 ℃ 100 % 1025.01 hPa
2021-05-29 02:48:28 11.31 ℃ 100 % 1024.96 hPa
2021-05-29 02:38:28 11.87 ℃ 100 % 1024.91 hPa
2021-05-29 02:28:28 11.9 ℃ 100 % 1024.92 hPa
2021-05-29 02:18:28 11.92 ℃ 100 % 1024.87 hPa
2021-05-29 02:08:28 11.8 ℃ 100 % 1024.87 hPa
2021-05-29 01:58:28 11.75 ℃ 100 % 1024.88 hPa
2021-05-29 01:48:28 11.91 ℃ 100 % 1024.93 hPa
2021-05-29 01:38:28 12.06 ℃ 100 % 1024.99 hPa
2021-05-29 01:28:28 12.01 ℃ 100 % 1024.99 hPa
2021-05-29 01:18:28 12.25 ℃ 100 % 1024.97 hPa
2021-05-29 01:08:28 12.37 ℃ 100 % 1024.97 hPa
2021-05-29 00:58:28 12.19 ℃ 100 % 1024.96 hPa
2021-05-29 00:48:28 12.17 ℃ 100 % 1024.89 hPa
2021-05-29 00:38:28 12.44 ℃ 100 % 1024.83 hPa
2021-05-29 00:28:28 12.36 ℃ 100 % 1024.8 hPa
2021-05-29 00:18:28 12.53 ℃ 100 % 1024.72 hPa
2021-05-29 00:08:28 12.39 ℃ 100 % 1024.81 hPa
2021-05-28 23:58:28 12.35 ℃ 100 % 1024.94 hPa
2021-05-28 23:48:28 12.18 ℃ 100 % 1025.02 hPa
2021-05-28 23:38:28 12.15 ℃ 100 % 1024.98 hPa
2021-05-28 23:28:31 11.87 ℃ 100 % 1024.95 hPa
2021-05-28 23:18:28 11.89 ℃ 100 % 1024.88 hPa
2021-05-28 23:08:28 11.9 ℃ 100 % 1024.79 hPa
2021-05-28 22:58:28 12.02 ℃ 100 % 1024.71 hPa
2021-05-28 22:48:28 12.16 ℃ 100 % 1024.6 hPa
2021-05-28 22:38:28 12.2 ℃ 100 % 1024.5 hPa
2021-05-28 22:28:28 12.41 ℃ 100 % 1024.42 hPa
2021-05-28 22:18:28 12.35 ℃ 100 % 1024.44 hPa
2021-05-28 22:08:28 12.5 ℃ 100 % 1024.36 hPa
2021-05-28 21:58:29 12.6 ℃ 100 % 1024.25 hPa
2021-05-28 21:48:29 12.59 ℃ 100 % 1024.21 hPa
2021-05-28 21:38:28 12.69 ℃ 100 % 1024.06 hPa
2021-05-28 21:28:29 12.81 ℃ 100 % 1023.94 hPa
2021-05-28 21:18:28 12.93 ℃ 100 % 1023.81 hPa
2021-05-28 21:08:28 13.13 ℃ 100 % 1023.75 hPa
2021-05-28 20:58:29 13.42 ℃ 100 % 1023.72 hPa
2021-05-28 20:48:29 13.59 ℃ 100 % 1023.68 hPa
2021-05-28 20:38:29 13.58 ℃ 100 % 1023.6 hPa
2021-05-28 20:28:29 13.79 ℃ 100 % 1023.53 hPa
2021-05-28 20:18:29 13.99 ℃ 100 % 1023.49 hPa
2021-05-28 20:08:29 14.15 ℃ 100 % 1023.43 hPa
2021-05-28 19:58:29 14.55 ℃ 100 % 1023.39 hPa
2021-05-28 19:48:29 14.94 ℃ 100 % 1023.44 hPa
2021-05-28 19:38:29 15.04 ℃ 100 % 1023.45 hPa
2021-05-28 19:28:29 15.29 ℃ 99.99 % 1023.47 hPa
2021-05-28 19:18:29 15.57 ℃ 99.98 % 1023.46 hPa
2021-05-28 19:08:29 15.57 ℃ 99.96 % 1023.5 hPa
2021-05-28 18:58:29 15.74 ℃ 99.92 % 1023.48 hPa
2021-05-28 18:48:29 16.06 ℃ 99.84 % 1023.43 hPa
2021-05-28 18:38:29 15.96 ℃ 99.68 % 1023.44 hPa
2021-05-28 18:28:29 16.29 ℃ 99.36 % 1023.37 hPa
2021-05-28 18:18:29 16.54 ℃ 99.33 % 1023.3 hPa
2021-05-28 18:08:29 16.57 ℃ 98.65 % 1023.26 hPa
2021-05-28 17:58:29 16.73 ℃ 97.73 % 1023.23 hPa
2021-05-28 17:48:29 16.8 ℃ 95.85 % 1023.15 hPa
2021-05-28 17:38:29 16.69 ℃ 96.02 % 1023.07 hPa
2021-05-28 17:28:29 16.65 ℃ 96.53 % 1023.09 hPa
2021-05-28 17:18:29 16.54 ℃ 96.41 % 1023.08 hPa
2021-05-28 17:08:29 16.15 ℃ 98.88 % 1023.08 hPa
2021-05-28 16:58:29 15.74 ℃ 99.66 % 1023.03 hPa
2021-05-28 16:48:29 15.58 ℃ 99.32 % 1023.09 hPa
2021-05-28 16:38:29 15.47 ℃ 98.64 % 1023.15 hPa
2021-05-28 16:28:29 15.36 ℃ 97.29 % 1023.29 hPa
2021-05-28 16:18:29 16.01 ℃ 94.57 % 1023.21 hPa
2021-05-28 16:08:29 17.19 ℃ 89.14 % 1023.02 hPa
2021-05-28 15:58:29 18.2 ℃ 84.37 % 1022.81 hPa
2021-05-28 15:48:29 17.81 ℃ 86.21 % 1022.72 hPa
2021-05-28 15:38:29 17.76 ℃ 85.27 % 1022.75 hPa
2021-05-28 15:28:29 17.79 ℃ 85.47 % 1022.73 hPa
2021-05-28 15:18:29 17.58 ℃ 87.77 % 1022.82 hPa
2021-05-28 15:08:29 17.56 ℃ 88.4 % 1022.87 hPa
2021-05-28 14:58:29 17.59 ℃ 88.17 % 1022.89 hPa
2021-05-28 14:48:29 17.63 ℃ 89.11 % 1022.94 hPa
2021-05-28 14:38:29 17.3 ℃ 91.83 % 1023.01 hPa
2021-05-28 14:28:29 17.06 ℃ 93.78 % 1023.05 hPa
2021-05-28 14:18:29 16.74 ℃ 96.27 % 1023.12 hPa
2021-05-28 14:08:29 17.2 ℃ 93.79 % 1023.11 hPa
2021-05-28 13:58:29 16.71 ℃ 95.41 % 1023.16 hPa
2021-05-28 13:48:29 16.58 ℃ 95.2 % 1023.23 hPa
2021-05-28 13:38:29 16.46 ℃ 96.33 % 1023.26 hPa
2021-05-28 13:28:29 16.39 ℃ 95.48 % 1023.23 hPa
2021-05-28 13:18:29 16.55 ℃ 94.33 % 1023.27 hPa
2021-05-28 13:08:29 16.16 ℃ 95.52 % 1023.3 hPa
2021-05-28 12:58:29 16.28 ℃ 95.19 % 1023.29 hPa
2021-05-28 12:48:29 16.19 ℃ 95.19 % 1023.3 hPa
2021-05-28 12:38:29 16.18 ℃ 96.17 % 1023.29 hPa
2021-05-28 12:28:29 16.34 ℃ 100 % 1023.28 hPa
2021-05-28 12:18:29 15.73 ℃ 100 % 1023.4 hPa
2021-05-28 12:08:29 15.62 ℃ 100 % 1023.4 hPa
2021-05-28 11:58:29 15.46 ℃ 100 % 1023.45 hPa
2021-05-28 11:48:29 15.13 ℃ 100 % 1023.44 hPa
2021-05-28 11:38:30 15.17 ℃ 100 % 1023.41 hPa
2021-05-28 11:28:29 14.68 ℃ 100 % 1023.47 hPa
2021-05-28 11:18:29 14.37 ℃ 100 % 1023.55 hPa
2021-05-28 11:08:29 13.91 ℃ 100 % 1023.56 hPa
2021-05-28 10:58:29 13.59 ℃ 100 % 1023.59 hPa
2021-05-28 10:48:29 13.37 ℃ 100 % 1023.6 hPa
2021-05-28 10:38:29 13.21 ℃ 100 % 1023.55 hPa
2021-05-28 10:28:29 12.96 ℃ 100 % 1023.47 hPa
2021-05-28 10:18:29 12.75 ℃ 100 % 1023.38 hPa
2021-05-28 10:08:29 12.57 ℃ 100 % 1023.33 hPa
2021-05-28 09:58:30 12.48 ℃ 100 % 1023.23 hPa
2021-05-28 09:48:29 12.43 ℃ 100 % 1023.17 hPa
2021-05-28 09:38:30 12.36 ℃ 100 % 1023.15 hPa
2021-05-28 09:28:30 12.03 ℃ 100 % 1023.14 hPa
2021-05-28 09:18:30 11.71 ℃ 100 % 1023.13 hPa
2021-05-28 09:08:30 11.6 ℃ 100 % 1023.13 hPa
2021-05-28 08:58:30 11.56 ℃ 100 % 1023.09 hPa
2021-05-28 08:48:30 11.38 ℃ 100 % 1023.07 hPa
2021-05-28 08:38:30 11.43 ℃ 100 % 1022.97 hPa
2021-05-28 08:28:30 11.65 ℃ 100 % 1022.88 hPa
2021-05-28 08:18:30 11.98 ℃ 100 % 1022.79 hPa
2021-05-28 08:08:30 12.06 ℃ 100 % 1022.69 hPa
2021-05-28 08:08:28 11.9 ℃ 100 % 1022.69 hPa
2021-05-28 07:45:15 11.89 ℃ 100 % 1022.57 hPa
2021-05-28 07:35:15 11.76 ℃ 100 % 1022.52 hPa
2021-05-28 07:25:15 11.4 ℃ 100 % 1022.46 hPa
2021-05-28 07:15:15 11.11 ℃ 100 % 1022.43 hPa
2021-05-28 07:05:15 11.37 ℃ 100 % 1022.34 hPa
2021-05-28 06:55:15 11.75 ℃ 100 % 1022.26 hPa
2021-05-28 06:45:15 11.5 ℃ 100 % 1022.24 hPa
2021-05-28 06:35:15 11.24 ℃ 100 % 1022.2 hPa
2021-05-28 06:25:15 11.25 ℃ 100 % 1022.13 hPa
2021-05-28 06:15:15 11.23 ℃ 100 % 1022.06 hPa
2021-05-28 06:05:15 11.5 ℃ 100 % 1021.98 hPa
2021-05-28 05:55:15 11.58 ℃ 100 % 1021.94 hPa
2021-05-28 05:45:15 11.74 ℃ 100 % 1021.87 hPa
2021-05-28 05:35:16 11.39 ℃ 100 % 1021.78 hPa
2021-05-28 05:25:15 11.24 ℃ 100 % 1021.68 hPa
2021-05-28 05:15:15 11.01 ℃ 100 % 1021.62 hPa
2021-05-28 05:05:15 10.77 ℃ 100 % 1021.61 hPa
2021-05-28 04:55:15 10.36 ℃ 100 % 1021.59 hPa
2021-05-28 04:45:16 10.12 ℃ 100 % 1021.54 hPa
2021-05-28 04:35:16 10.07 ℃ 100 % 1021.44 hPa
2021-05-28 04:25:16 10.15 ℃ 100 % 1021.36 hPa
2021-05-28 04:15:16 10.34 ℃ 100 % 1021.27 hPa
2021-05-28 04:05:15 10.4 ℃ 100 % 1021.2 hPa
2021-05-28 03:55:16 10.44 ℃ 100 % 1021.15 hPa
2021-05-28 03:45:16 10.31 ℃ 100 % 1021.11 hPa
2021-05-28 03:35:16 10.31 ℃ 100 % 1021.02 hPa
2021-05-28 03:25:16 10.4 ℃ 100 % 1020.9 hPa
2021-05-28 03:15:16 10.4 ℃ 100 % 1020.77 hPa
2021-05-28 03:05:16 10.39 ℃ 100 % 1020.62 hPa
2021-05-28 02:55:16 10.55 ℃ 100 % 1020.54 hPa
2021-05-28 02:45:16 10.84 ℃ 100 % 1020.5 hPa
2021-05-28 02:35:16 11.11 ℃ 100 % 1020.42 hPa
2021-05-28 02:25:16 11.74 ℃ 100 % 1020.37 hPa
2021-05-28 02:15:16 12.07 ℃ 100 % 1020.26 hPa
2021-05-28 02:05:16 12.28 ℃ 100 % 1020.18 hPa
2021-05-28 01:55:16 12.19 ℃ 100 % 1020.11 hPa
2021-05-28 01:45:16 12.16 ℃ 100 % 1020.04 hPa
2021-05-28 01:35:16 12.32 ℃ 100 % 1019.96 hPa
2021-05-28 01:25:16 12.25 ℃ 100 % 1019.9 hPa
2021-05-28 01:15:16 12.1 ℃ 100 % 1019.9 hPa
2021-05-28 01:05:16 12.22 ℃ 100 % 1019.9 hPa
2021-05-28 00:55:16 12.15 ℃ 100 % 1019.88 hPa
2021-05-28 00:45:16 12.1 ℃ 100 % 1019.83 hPa
2021-05-28 00:35:16 12.14 ℃ 100 % 1019.77 hPa
2021-05-28 00:25:16 12.03 ℃ 100 % 1019.7 hPa
2021-05-28 00:15:16 11.96 ℃ 100 % 1019.58 hPa
2021-05-28 00:05:16 12.1 ℃ 100 % 1019.53 hPa
2021-05-27 23:55:16 12.11 ℃ 100 % 1019.49 hPa
2021-05-27 23:45:16 12.1 ℃ 100 % 1019.43 hPa
2021-05-27 23:35:16 12.24 ℃ 100 % 1019.4 hPa
2021-05-27 23:25:16 12.38 ℃ 100 % 1019.35 hPa
2021-05-27 23:15:16 12.51 ℃ 100 % 1019.29 hPa
2021-05-27 23:05:16 12.61 ℃ 100 % 1019.2 hPa
2021-05-27 22:55:16 12.6 ℃ 100 % 1019.08 hPa
2021-05-27 22:45:16 12.69 ℃ 100 % 1018.98 hPa
2021-05-27 22:35:16 12.78 ℃ 100 % 1018.87 hPa
2021-05-27 22:25:16 12.85 ℃ 100 % 1018.79 hPa
2021-05-27 22:15:16 12.81 ℃ 100 % 1018.69 hPa
2021-05-27 22:05:16 12.8 ℃ 100 % 1018.55 hPa
2021-05-27 21:55:16 12.83 ℃ 100 % 1018.4 hPa
2021-05-27 21:45:16 13.06 ℃ 100 % 1018.23 hPa
2021-05-27 21:35:16 13.14 ℃ 100 % 1018.06 hPa
2021-05-27 21:25:16 13.24 ℃ 100 % 1017.91 hPa
2021-05-27 21:15:16 13.43 ℃ 100 % 1017.76 hPa
2021-05-27 21:05:16 13.39 ℃ 100 % 1017.58 hPa
2021-05-27 20:55:16 13.46 ℃ 100 % 1017.48 hPa
2021-05-27 20:45:16 13.59 ℃ 100 % 1017.39 hPa
2021-05-27 20:35:16 13.55 ℃ 100 % 1017.36 hPa
2021-05-27 20:25:16 13.61 ℃ 100 % 1017.28 hPa
2021-05-26 19:07:55 13.72 ℃ 98.86 % 1005.42 hPa
2021-05-26 18:57:54 14.03 ℃ 97.72 % 1005.45 hPa
2021-05-26 18:47:55 14.02 ℃ 96.84 % 1005.49 hPa
2021-05-26 18:37:55 14.2 ℃ 94.45 % 1005.56 hPa
2021-05-26 18:27:55 14.38 ℃ 91.95 % 1005.55 hPa
2021-05-26 18:17:55 14.57 ℃ 91.09 % 1005.58 hPa
2021-05-26 18:07:55 14.89 ℃ 88.48 % 1005.52 hPa
2021-05-26 17:57:55 15.34 ℃ 87.64 % 1005.47 hPa
2021-05-26 17:47:56 15.57 ℃ 87.06 % 1005.43 hPa
2021-05-26 17:37:55 15.5 ℃ 88.83 % 1005.4 hPa
2021-05-26 17:27:55 15.15 ℃ 88.54 % 1005.43 hPa
2021-05-26 17:17:56 15.07 ℃ 88.58 % 1005.53 hPa
2021-05-26 17:07:55 15.19 ℃ 87.73 % 1005.53 hPa
2021-05-26 16:57:55 15.25 ℃ 87.49 % 1005.61 hPa
2021-05-26 16:47:55 15.33 ℃ 87.21 % 1005.65 hPa
2021-05-26 16:37:55 15.25 ℃ 87.74 % 1005.67 hPa
2021-05-26 16:27:57 15.37 ℃ 88.08 % 1005.69 hPa
2021-05-26 16:17:58 15.33 ℃ 90.36 % 1005.75 hPa
2021-05-26 16:07:57 15.5 ℃ 90.74 % 1005.79 hPa
2021-05-26 15:57:58 15.43 ℃ 92.49 % 1005.79 hPa
2021-05-26 15:47:55 15.55 ℃ 94.53 % 1005.75 hPa
2021-05-26 15:37:59 16.03 ℃ 100 % 1005.74 hPa
2021-05-25 19:32:26 12.7 ℃ 98.9 % 1009.17 hPa
2021-05-25 19:22:26 12.98 ℃ 97.8 % 1009.09 hPa
2021-05-25 19:02:26 14.1 ℃ 91.19 % 1008.97 hPa
2021-05-25 18:52:26 14.27 ℃ 90.31 % 1009 hPa
2021-05-25 18:42:26 14.14 ℃ 90.04 % 1009 hPa
2021-05-22 19:42:03 21.46 ℃ 83.27 % 1001.32 hPa
2021-05-22 19:38:57 17.75 ℃ 100 % 1001.43 hPa
2021-05-22 12:51:12 14.39 ℃ 100 % 999.13 hPa
2021-05-22 12:41:12 14.24 ℃ 100 % 999.1 hPa
2021-05-22 12:31:12 13.66 ℃ 100 % 999.03 hPa
2021-05-22 12:21:12 13.26 ℃ 100 % 998.97 hPa
2021-05-22 12:11:12 13.25 ℃ 100 % 998.96 hPa
2021-05-22 12:01:12 13.24 ℃ 100 % 999 hPa
2021-05-22 11:51:12 13.41 ℃ 99.99 % 999.02 hPa
2021-05-22 11:41:12 13.81 ℃ 99.99 % 999.04 hPa
2021-05-22 11:31:13 13.83 ℃ 99.97 % 999.08 hPa
2021-05-22 11:21:13 13.66 ℃ 99.94 % 999.1 hPa
2021-05-22 11:11:13 13.84 ℃ 99.88 % 999.12 hPa
2021-05-22 11:01:13 14 ℃ 99.76 % 999.05 hPa
2021-05-22 10:51:13 13.93 ℃ 99.53 % 999.03 hPa
2021-05-22 10:41:13 13.91 ℃ 99.06 % 999.01 hPa
2021-05-22 10:31:13 13.6 ℃ 98.48 % 999.01 hPa
2021-05-22 10:21:13 13.69 ℃ 96.96 % 998.95 hPa
2021-05-22 10:11:13 13.81 ℃ 93.92 % 998.89 hPa
2021-05-22 10:01:13 13.88 ℃ 92.67 % 998.84 hPa
2021-05-22 09:51:13 14.07 ℃ 92.13 % 998.8 hPa
2021-05-22 09:41:13 13.9 ℃ 92.88 % 998.77 hPa
2021-05-22 09:31:13 13.64 ℃ 92.4 % 998.76 hPa
2021-05-22 09:21:13 13.64 ℃ 91.74 % 998.76 hPa
2021-05-22 09:11:13 13.66 ℃ 92.01 % 998.75 hPa
2021-05-22 09:01:13 13.65 ℃ 93.07 % 998.78 hPa
2021-05-22 08:51:13 13.75 ℃ 93.26 % 998.71 hPa
2021-05-22 08:41:13 13.96 ℃ 94.99 % 998.69 hPa
2021-05-22 08:31:13 14.07 ℃ 93.84 % 998.68 hPa
2021-05-22 08:21:13 13.78 ℃ 95.95 % 998.72 hPa
2021-05-22 08:11:13 13.51 ℃ 97.83 % 998.75 hPa
2021-05-22 08:01:13 13.18 ℃ 99.49 % 998.75 hPa
2021-05-22 07:51:13 13.13 ℃ 98.99 % 998.73 hPa
2021-05-22 07:41:13 13.16 ℃ 99.24 % 998.71 hPa
2021-05-22 07:31:13 13.21 ℃ 98.74 % 998.78 hPa
2021-05-22 07:21:13 13.04 ℃ 99.1 % 998.76 hPa
2021-05-22 07:11:13 12.57 ℃ 99.97 % 998.74 hPa
2021-05-22 07:01:13 12.53 ℃ 99.94 % 998.77 hPa
2021-05-22 06:51:13 12.38 ℃ 99.88 % 998.76 hPa
2021-05-22 06:41:13 12.34 ℃ 99.77 % 998.73 hPa
2021-05-22 06:31:13 12.59 ℃ 99.53 % 998.76 hPa
2021-05-22 06:21:13 12.72 ℃ 99.07 % 998.76 hPa
2021-05-22 06:11:13 12.27 ℃ 99.58 % 998.83 hPa
2021-05-22 06:01:13 12.47 ℃ 99.16 % 998.89 hPa
2021-05-22 05:51:13 11.55 ℃ 100 % 998.93 hPa
2021-05-22 05:41:13 10.81 ℃ 100 % 998.97 hPa
2021-05-22 05:31:13 10.56 ℃ 100 % 998.98 hPa
2021-05-22 05:21:13 10.66 ℃ 100 % 999.03 hPa
2021-05-22 05:11:13 10.72 ℃ 100 % 999.15 hPa
2021-05-22 05:01:13 10.83 ℃ 100 % 999.18 hPa
2021-05-22 04:51:13 10.77 ℃ 100 % 999.26 hPa
2021-05-22 04:41:13 10.76 ℃ 100 % 999.37 hPa
2021-05-22 04:31:13 10.68 ℃ 100 % 999.45 hPa
2021-05-22 04:21:13 10.63 ℃ 100 % 999.47 hPa
2021-05-22 04:11:13 10.69 ℃ 100 % 999.51 hPa
2021-05-22 04:01:13 10.6 ℃ 100 % 999.57 hPa
2021-05-22 03:51:13 10.47 ℃ 100 % 999.59 hPa
2021-05-22 03:41:13 10.48 ℃ 100 % 999.62 hPa
2021-05-22 03:31:13 10.47 ℃ 100 % 999.62 hPa
2021-05-22 03:21:13 10.5 ℃ 100 % 999.66 hPa
2021-05-22 03:11:13 10.53 ℃ 100 % 999.73 hPa
2021-05-22 03:01:13 10.47 ℃ 100 % 999.79 hPa
2021-05-22 02:51:13 10.33 ℃ 100 % 999.86 hPa
2021-05-22 02:41:13 10.24 ℃ 100 % 999.96 hPa
2021-05-22 02:31:13 10.19 ℃ 100 % 1000.07 hPa
2021-05-22 02:21:13 10.25 ℃ 100 % 1000.15 hPa
2021-05-22 02:11:13 10.39 ℃ 100 % 1000.21 hPa
2021-05-22 02:01:13 10.53 ℃ 100 % 1000.27 hPa
2021-05-22 01:51:13 10.57 ℃ 100 % 1000.33 hPa
2021-05-22 01:41:13 10.57 ℃ 100 % 1000.37 hPa
2021-05-22 01:31:13 10.58 ℃ 100 % 1000.41 hPa
2021-05-22 01:21:13 10.74 ℃ 100 % 1000.46 hPa
2021-05-22 01:11:14 10.84 ℃ 100 % 1000.53 hPa
2021-05-22 01:01:14 10.91 ℃ 100 % 1000.61 hPa
2021-05-22 00:51:14 10.99 ℃ 100 % 1000.65 hPa
2021-05-22 00:41:14 11.01 ℃ 100 % 1000.63 hPa
2021-05-22 00:31:14 10.59 ℃ 100 % 1000.73 hPa
2021-05-22 00:21:14 10.56 ℃ 100 % 1000.88 hPa
2021-05-22 00:11:14 10.56 ℃ 100 % 1000.97 hPa
2021-05-22 00:01:14 10.7 ℃ 100 % 1000.92 hPa
2021-05-21 23:51:14 10.97 ℃ 100 % 1000.82 hPa
2021-05-21 23:41:14 11.14 ℃ 100 % 1000.89 hPa
2021-05-21 23:31:14 11.24 ℃ 100 % 1000.97 hPa
2021-05-21 23:21:14 11.12 ℃ 100 % 1001.01 hPa
2021-05-21 23:11:14 10.97 ℃ 100 % 1001.06 hPa
2021-05-21 23:01:14 11.1 ℃ 100 % 1001.11 hPa
2021-05-21 22:51:14 11.07 ℃ 100 % 1001.15 hPa
2021-05-21 22:41:14 11.04 ℃ 100 % 1001.17 hPa
2021-05-21 22:31:14 11.19 ℃ 100 % 1001.2 hPa
2021-05-21 22:21:14 11.35 ℃ 100 % 1001.19 hPa
2021-05-21 22:11:14 11.6 ℃ 100 % 1001.09 hPa
2021-05-21 22:01:14 11.57 ℃ 100 % 1001.21 hPa
2021-05-21 21:51:14 11.9 ℃ 100 % 1001.43 hPa
2021-05-21 21:41:14 12.2 ℃ 100 % 1001.6 hPa
2021-05-21 21:31:14 12.66 ℃ 100 % 1001.66 hPa
2021-05-21 21:21:14 13.34 ℃ 100 % 1001.8 hPa
2021-05-21 21:11:14 14.24 ℃ 100 % 1001.96 hPa
2021-05-21 21:01:14 14.43 ℃ 100 % 1001.99 hPa
2021-05-21 20:51:14 14.27 ℃ 100 % 1001.94 hPa
2021-05-21 20:41:14 14.28 ℃ 100 % 1001.94 hPa
2021-05-21 20:31:14 13.94 ℃ 100 % 1001.95 hPa
2021-05-21 20:21:14 13.61 ℃ 100 % 1001.96 hPa
2021-05-21 20:11:14 13.55 ℃ 100 % 1001.96 hPa
2021-05-21 20:01:14 13.51 ℃ 100 % 1002.05 hPa
2021-05-21 19:51:14 13.22 ℃ 100 % 1002.19 hPa
2021-05-21 19:41:14 12.88 ℃ 100 % 1002.33 hPa
2021-05-21 19:31:14 13.09 ℃ 100 % 1002.37 hPa
2021-05-21 19:21:14 12.88 ℃ 100 % 1002.39 hPa
2021-05-21 19:11:14 12.62 ℃ 100 % 1002.36 hPa
2021-05-21 19:01:14 12.76 ℃ 100 % 1002.38 hPa
2021-05-21 18:51:14 12.75 ℃ 100 % 1002.54 hPa
2021-05-21 18:41:14 12.74 ℃ 100 % 1002.68 hPa
2021-05-21 18:31:14 12.59 ℃ 100 % 1002.76 hPa
2021-05-21 18:21:14 12.76 ℃ 100 % 1002.7 hPa
2021-05-21 18:11:14 13.2 ℃ 99.99 % 1002.58 hPa
2021-05-21 18:01:14 14.32 ℃ 99.99 % 1002.33 hPa
2021-05-21 17:51:14 15.14 ℃ 99.98 % 1002.1 hPa
2021-05-21 17:41:14 15.33 ℃ 99.95 % 1002.11 hPa
2021-05-21 17:31:14 15.61 ℃ 99.91 % 1002.09 hPa
2021-05-21 17:21:14 15.81 ℃ 99.82 % 1002.07 hPa
2021-05-21 17:11:14 15.3 ℃ 99.63 % 1002.13 hPa
2021-05-21 17:01:14 14.28 ℃ 99.26 % 1002.23 hPa
2021-05-21 16:51:14 13.54 ℃ 98.53 % 1002.29 hPa
2021-05-21 16:41:14 13.44 ℃ 97.06 % 1002.36 hPa
2021-05-21 16:31:14 14.47 ℃ 94.12 % 1002.18 hPa
2021-05-21 16:21:14 16.32 ℃ 88.24 % 1001.73 hPa
2021-05-21 16:11:14 16.98 ℃ 76.48 % 1001.2 hPa
2021-05-21 16:01:14 16.76 ℃ 80.75 % 1001.32 hPa
2021-05-21 15:51:14 16.43 ℃ 82.46 % 1001.46 hPa
2021-05-21 15:41:15 16.38 ℃ 83.4 % 1001.49 hPa
2021-05-21 15:31:14 16.21 ℃ 82.02 % 1001.64 hPa
2021-05-21 15:21:15 16.57 ℃ 76.27 % 1001.64 hPa
2021-05-21 15:11:15 16.68 ℃ 72.83 % 1001.73 hPa
2021-05-21 15:01:15 17.35 ℃ 65.28 % 1001.72 hPa
2021-05-21 14:51:14 18.46 ℃ 55.52 % 1001.7 hPa
2021-05-21 14:41:14 18.35 ℃ 53.78 % 1001.72 hPa
2021-05-21 14:31:14 18.43 ℃ 50.79 % 1001.71 hPa
2021-05-21 14:21:15 18.66 ℃ 50.62 % 1001.73 hPa
2021-05-21 14:11:14 18.62 ℃ 51.58 % 1001.76 hPa
2021-05-21 14:01:15 18.52 ℃ 53 % 1001.85 hPa
2021-05-21 13:51:14 18.65 ℃ 53.46 % 1001.88 hPa
2021-05-21 13:41:15 18.46 ℃ 52.9 % 1001.89 hPa
2021-05-21 13:31:14 18.14 ℃ 51.81 % 1001.92 hPa
2021-05-21 13:21:15 18.23 ℃ 51.75 % 1001.86 hPa
2021-05-21 13:11:15 18.44 ℃ 50.04 % 1001.88 hPa
2021-05-21 13:01:15 18.53 ℃ 50.62 % 1001.94 hPa
2021-05-21 12:51:15 18.24 ℃ 51.42 % 1002.01 hPa
2021-05-21 12:41:15 18.18 ℃ 51.63 % 1002.14 hPa
2021-05-21 12:31:15 17.82 ℃ 53 % 1002.29 hPa
2021-05-21 12:21:15 17.42 ℃ 56.09 % 1002.38 hPa
2021-05-21 12:11:15 17.49 ℃ 56.26 % 1002.42 hPa
2021-05-21 12:01:15 16.94 ℃ 59.36 % 1002.5 hPa
2021-05-21 11:51:15 16.93 ℃ 63.54 % 1002.54 hPa
2021-05-21 11:41:15 17.06 ℃ 71.9 % 1002.48 hPa
2021-05-21 11:31:15 16.97 ℃ 76.53 % 1002.53 hPa
2021-05-21 11:21:15 17.04 ℃ 82.27 % 1002.6 hPa
2021-05-21 11:11:15 17.1 ℃ 89.15 % 1002.69 hPa
2021-05-21 11:01:15 16.82 ℃ 96.68 % 1002.81 hPa
2021-05-21 10:51:15 16.56 ℃ 99.49 % 1003.01 hPa
2021-05-21 10:41:15 16.35 ℃ 100 % 1003.1 hPa
2021-05-21 10:31:15 16.29 ℃ 100 % 1003.22 hPa
2021-05-21 10:21:15 16.13 ℃ 100 % 1003.29 hPa
2021-05-21 10:11:15 15.24 ℃ 100 % 1003.39 hPa
2021-05-21 10:01:15 14.59 ℃ 100 % 1003.46 hPa
2021-05-21 09:51:15 14.24 ℃ 100 % 1003.48 hPa
2021-05-21 09:41:15 14.13 ℃ 100 % 1003.55 hPa
2021-05-21 09:31:15 14.14 ℃ 100 % 1003.62 hPa
2021-05-21 09:21:15 13.91 ℃ 100 % 1003.7 hPa
2021-05-21 09:11:15 13.28 ℃ 100 % 1003.83 hPa
2021-05-21 09:01:15 13.07 ℃ 100 % 1003.9 hPa
2021-05-21 08:51:15 13.19 ℃ 100 % 1003.97 hPa
2021-05-21 08:41:15 13.34 ℃ 100 % 1004.14 hPa
2021-05-21 08:31:15 13.34 ℃ 100 % 1004.22 hPa
2021-05-21 08:21:15 13.02 ℃ 100 % 1004.2 hPa
2021-05-21 08:11:15 13.16 ℃ 100 % 1004.2 hPa
2021-05-21 08:01:15 13.44 ℃ 100 % 1004.22 hPa
2021-05-21 07:51:15 13.24 ℃ 100 % 1004.26 hPa
2021-05-21 07:41:16 13.38 ℃ 100 % 1004.36 hPa
2021-05-21 07:31:15 13.3 ℃ 100 % 1004.48 hPa
2021-05-21 07:21:15 13.34 ℃ 100 % 1004.61 hPa
2021-05-21 07:11:15 13.15 ℃ 100 % 1004.76 hPa
2021-05-21 07:01:15 13.07 ℃ 100 % 1004.88 hPa
2021-05-21 06:51:15 12.86 ℃ 100 % 1005.03 hPa
2021-05-21 06:41:15 12.06 ℃ 100 % 1005.21 hPa
2021-05-21 06:31:15 12.07 ℃ 100 % 1005.41 hPa
2021-05-21 06:21:15 11.93 ℃ 100 % 1005.55 hPa
2021-05-21 06:11:15 11.89 ℃ 100 % 1005.76 hPa
2021-05-21 06:01:15 11.88 ℃ 100 % 1005.97 hPa
2021-05-21 05:51:15 11.78 ℃ 100 % 1006.13 hPa
2021-05-21 05:41:15 11.74 ℃ 100 % 1006.28 hPa
2021-05-21 05:31:15 11.74 ℃ 100 % 1006.44 hPa
2021-05-21 05:21:16 11.71 ℃ 100 % 1006.58 hPa
2021-05-21 05:11:15 11.75 ℃ 100 % 1006.71 hPa
2021-05-21 05:01:15 11.86 ℃ 100 % 1006.88 hPa
2021-05-21 04:51:15 11.98 ℃ 100 % 1007.05 hPa
2021-05-21 04:41:15 12.09 ℃ 100 % 1007.26 hPa
2021-05-21 04:31:15 12.03 ℃ 100 % 1007.45 hPa
2021-05-21 04:21:15 12.07 ℃ 100 % 1007.71 hPa
2021-05-21 04:11:15 12.02 ℃ 100 % 1007.91 hPa
2021-05-21 04:01:15 12.02 ℃ 100 % 1008.12 hPa
2021-05-21 03:51:15 12.1 ℃ 100 % 1008.27 hPa
2021-05-21 03:41:15 12.2 ℃ 100 % 1008.49 hPa
2021-05-21 03:31:15 12.24 ℃ 100 % 1008.75 hPa
2021-05-21 03:21:15 12.4 ℃ 100 % 1008.99 hPa
2021-05-21 03:11:15 12.46 ℃ 100 % 1009.21 hPa
2021-05-21 03:01:16 12.56 ℃ 100 % 1009.44 hPa
2021-05-21 02:51:15 12.67 ℃ 100 % 1009.63 hPa
2021-05-21 02:41:16 12.85 ℃ 100 % 1009.8 hPa
2021-05-21 02:31:16 12.52 ℃ 100 % 1009.98 hPa
2021-05-21 02:21:16 12.51 ℃ 100 % 1010.16 hPa
2021-05-21 02:11:16 12.76 ℃ 100 % 1010.42 hPa
2021-05-21 02:01:16 12.92 ℃ 99.99 % 1010.63 hPa
2021-05-21 01:51:16 12.83 ℃ 99.99 % 1010.83 hPa
2021-05-21 01:41:16 12.71 ℃ 99.97 % 1011.06 hPa
2021-05-21 01:31:16 12.77 ℃ 99.94 % 1011.32 hPa
2021-05-21 01:21:16 12.81 ℃ 99.88 % 1011.49 hPa
2021-05-21 01:11:16 12.82 ℃ 99.77 % 1011.67 hPa
2021-05-21 01:01:16 12.95 ℃ 99.54 % 1011.73 hPa
2021-05-21 00:51:16 12.92 ℃ 99.08 % 1011.89 hPa
2021-05-21 00:41:16 12.85 ℃ 98.16 % 1012.06 hPa
2021-05-21 00:31:16 12.93 ℃ 96.31 % 1012.15 hPa
2021-05-21 00:21:16 12.92 ℃ 95.07 % 1012.32 hPa
2021-05-21 00:11:16 12.92 ℃ 93.37 % 1012.49 hPa
2021-05-21 00:01:16 12.85 ℃ 91.31 % 1012.59 hPa
2021-05-20 23:51:16 12.97 ℃ 89.35 % 1012.69 hPa
2021-05-20 23:41:16 13.07 ℃ 87.41 % 1012.79 hPa
2021-05-20 23:31:16 13.32 ℃ 84.98 % 1012.92 hPa
2021-05-20 23:21:16 13.65 ℃ 82.69 % 1013.04 hPa
2021-05-20 23:11:16 13.69 ℃ 81.96 % 1013.17 hPa
2021-05-20 23:01:16 13.46 ℃ 83.71 % 1013.37 hPa
2021-05-20 22:51:16 13.65 ℃ 81.7 % 1013.53 hPa
2021-05-20 22:41:16 14.12 ℃ 76.77 % 1013.69 hPa
2021-05-20 22:31:16 14.86 ℃ 71.15 % 1013.82 hPa
2021-05-20 22:21:16 15.79 ℃ 62.2 % 1013.98 hPa
2021-05-20 22:11:16 16.71 ℃ 55.97 % 1014.09 hPa
2021-05-20 22:01:16 16.38 ℃ 56.75 % 1014.21 hPa
2021-05-20 21:51:16 16.46 ℃ 55.12 % 1014.28 hPa
2021-05-20 21:41:16 16.65 ℃ 53.35 % 1014.39 hPa
2021-05-20 21:31:16 16.65 ℃ 53.04 % 1014.53 hPa
2021-05-20 21:21:16 16.8 ℃ 52.57 % 1014.65 hPa
2021-05-20 21:11:16 17.12 ℃ 50.98 % 1014.78 hPa
2021-05-20 21:01:16 17.27 ℃ 50.4 % 1014.85 hPa
2021-05-20 20:51:16 17.21 ℃ 50.88 % 1015.01 hPa
2021-05-20 20:41:16 17.03 ℃ 51.78 % 1015.14 hPa
2021-05-20 20:31:16 16.77 ℃ 52.62 % 1015.23 hPa
2021-05-20 20:21:16 16.54 ℃ 52.79 % 1015.36 hPa
2021-05-20 20:11:16 16.24 ℃ 53.44 % 1015.51 hPa
2021-05-20 20:01:16 15.89 ℃ 54.09 % 1015.6 hPa
2021-05-20 19:51:16 16.02 ℃ 53.75 % 1015.68 hPa
2021-05-20 19:41:16 16.16 ℃ 54.34 % 1015.76 hPa
2021-05-20 19:31:16 16.41 ℃ 54.24 % 1015.84 hPa
2021-05-20 19:21:16 16.74 ℃ 55.64 % 1015.89 hPa
2021-05-20 19:11:16 16.76 ℃ 55.13 % 1015.95 hPa
2021-05-20 19:01:16 16.8 ℃ 55.66 % 1016.02 hPa
2021-05-20 18:51:16 17.25 ℃ 54.65 % 1016.1 hPa
2021-05-20 18:41:16 17.43 ℃ 54.35 % 1016.21 hPa
2021-05-20 18:31:16 17.04 ℃ 54.62 % 1016.28 hPa
2021-05-20 18:21:16 17.02 ℃ 53.95 % 1016.31 hPa
2021-05-20 18:11:16 17.24 ℃ 54.31 % 1016.33 hPa
2021-05-20 18:01:16 17.21 ℃ 55.05 % 1016.4 hPa
2021-05-20 17:51:16 16.93 ℃ 54.57 % 1016.5 hPa
2021-05-20 17:41:17 16.93 ℃ 55.22 % 1016.57 hPa
2021-05-20 17:31:16 16.95 ℃ 53.53 % 1016.58 hPa
2021-05-20 17:21:16 17.11 ℃ 53.6 % 1016.62 hPa
2021-05-20 17:11:16 17.16 ℃ 54.66 % 1016.72 hPa
2021-05-20 17:01:16 16.91 ℃ 57.62 % 1016.78 hPa
2021-05-20 16:51:16 16.79 ℃ 59.9 % 1016.85 hPa
2021-05-20 16:41:16 16.93 ℃ 61.77 % 1016.92 hPa
2021-05-20 16:31:16 17.17 ℃ 57.88 % 1017.02 hPa
2021-05-20 16:21:16 16.63 ℃ 58.86 % 1017.08 hPa
2021-05-20 16:11:17 16.54 ℃ 59.81 % 1017.13 hPa
2021-05-20 16:01:16 16.39 ℃ 64.65 % 1017.21 hPa
2021-05-20 15:51:16 16.28 ℃ 66.3 % 1017.39 hPa
2021-05-20 15:41:16 16.34 ℃ 65.89 % 1017.57 hPa
2021-05-20 15:31:16 16.4 ℃ 64.69 % 1017.67 hPa
2021-05-20 15:21:16 16.34 ℃ 65.59 % 1017.73 hPa
2021-05-20 15:11:17 16.36 ℃ 67.09 % 1017.78 hPa
2021-05-20 15:01:17 16.05 ℃ 67.15 % 1017.86 hPa
2021-05-20 14:51:17 16.14 ℃ 65.73 % 1017.93 hPa
2021-05-20 14:41:17 16.15 ℃ 65.04 % 1017.95 hPa
2021-05-20 14:31:17 15.92 ℃ 64.16 % 1018.07 hPa
2021-05-20 14:21:17 16.02 ℃ 63.39 % 1018.15 hPa
2021-05-20 14:11:17 15.73 ℃ 63.76 % 1018.26 hPa
2021-05-20 14:01:17 15.72 ℃ 63.36 % 1018.3 hPa
2021-05-20 13:51:17 15.77 ℃ 64.2 % 1018.33 hPa
2021-05-20 13:41:17 15.88 ℃ 65.05 % 1018.41 hPa
2021-05-20 13:31:17 16.02 ℃ 64.37 % 1018.44 hPa
2021-05-20 13:21:17 16.09 ℃ 66.22 % 1018.48 hPa
2021-05-20 13:11:17 15.25 ℃ 71.26 % 1018.6 hPa
2021-05-20 13:01:17 15.18 ℃ 73.73 % 1018.67 hPa
2021-05-20 12:51:17 15.08 ℃ 76.47 % 1018.75 hPa
2021-05-20 12:41:17 14.75 ℃ 77.77 % 1018.82 hPa
2021-05-20 12:31:17 14.56 ℃ 79.74 % 1018.81 hPa
2021-05-20 12:21:17 14.8 ℃ 79.27 % 1018.84 hPa
2021-05-20 12:11:17 14.44 ℃ 85.23 % 1018.88 hPa
2021-05-20 12:01:17 14.47 ℃ 86.06 % 1018.89 hPa
2021-05-20 11:51:17 14.31 ℃ 86.86 % 1018.88 hPa
2021-05-20 11:41:17 14.46 ℃ 87.27 % 1018.82 hPa
2021-05-20 11:31:17 14.34 ℃ 89.44 % 1018.86 hPa
2021-05-20 11:21:17 14.28 ℃ 92.68 % 1018.84 hPa
2021-05-20 11:11:17 14.25 ℃ 93.42 % 1018.86 hPa
2021-05-20 11:01:17 14.19 ℃ 93.89 % 1018.87 hPa
2021-05-20 10:51:17 13.94 ℃ 95.03 % 1018.89 hPa
2021-05-20 10:41:17 13.82 ℃ 95.39 % 1018.88 hPa
2021-05-20 10:31:17 13.82 ℃ 96.33 % 1018.91 hPa
2021-05-20 10:21:17 13.65 ℃ 97.39 % 1018.93 hPa
2021-05-20 10:11:17 13.4 ℃ 98.76 % 1018.94 hPa
2021-05-20 10:01:17 13.28 ℃ 99.48 % 1018.99 hPa
2021-05-20 09:51:17 12.91 ℃ 99.96 % 1018.98 hPa
2021-05-20 09:41:17 13.11 ℃ 99.92 % 1018.96 hPa
2021-05-20 09:31:17 13.23 ℃ 99.84 % 1018.96 hPa
2021-05-20 09:21:17 12.81 ℃ 100 % 1018.99 hPa
2021-05-20 09:11:17 12.49 ℃ 100 % 1019.04 hPa
2021-05-20 09:01:17 12.41 ℃ 100 % 1018.96 hPa
2021-05-20 08:51:17 12.17 ℃ 100 % 1018.93 hPa
2021-05-20 08:41:17 12.35 ℃ 100 % 1018.86 hPa
2021-05-20 08:31:17 12.52 ℃ 100 % 1018.82 hPa
2021-05-20 08:21:17 12.51 ℃ 100 % 1018.77 hPa
2021-05-20 08:11:17 12.67 ℃ 100 % 1018.75 hPa
2021-05-20 08:01:17 12.64 ℃ 100 % 1018.76 hPa
2021-05-20 07:51:17 12.34 ℃ 100 % 1018.74 hPa
2021-05-20 07:41:17 12.23 ℃ 100 % 1018.72 hPa
2021-05-20 07:31:17 11.91 ℃ 100 % 1018.69 hPa
2021-05-20 07:21:17 11.88 ℃ 100 % 1018.62 hPa
2021-05-20 07:11:17 11.54 ℃ 100 % 1018.64 hPa
2021-05-20 07:01:17 11.53 ℃ 100 % 1018.63 hPa
2021-05-20 06:51:17 11.66 ℃ 100 % 1018.57 hPa
2021-05-20 06:41:17 11.33 ℃ 100 % 1018.55 hPa
2021-05-20 06:31:17 11.23 ℃ 100 % 1018.56 hPa
2021-05-20 06:21:17 11.3 ℃ 100 % 1018.5 hPa
2021-05-20 06:11:17 11.49 ℃ 100 % 1018.48 hPa
2021-05-20 06:01:17 11.28 ℃ 100 % 1018.46 hPa
2021-05-20 05:51:17 11.44 ℃ 100 % 1018.48 hPa
2021-05-20 05:41:17 11.41 ℃ 100 % 1018.5 hPa
2021-05-20 05:31:17 11.3 ℃ 100 % 1018.5 hPa
2021-05-20 05:21:18 11.2 ℃ 100 % 1018.48 hPa
2021-05-20 05:11:17 11.33 ℃ 100 % 1018.5 hPa
2021-05-20 05:01:17 10.96 ℃ 100 % 1018.49 hPa
2021-05-20 04:51:17 10.91 ℃ 100 % 1018.48 hPa
2021-05-20 04:41:18 10.92 ℃ 100 % 1018.45 hPa
2021-05-20 04:31:17 10.68 ℃ 100 % 1018.41 hPa
2021-05-20 04:21:18 10.73 ℃ 100 % 1018.42 hPa
2021-05-20 04:11:18 10.68 ℃ 100 % 1018.46 hPa
2021-05-20 04:01:18 10.44 ℃ 100 % 1018.48 hPa
2021-05-20 03:51:18 10.58 ℃ 100 % 1018.46 hPa
2021-05-20 03:41:18 10.78 ℃ 100 % 1018.4 hPa
2021-05-20 03:31:18 11.07 ℃ 100 % 1018.35 hPa
2021-05-20 03:21:18 10.96 ℃ 100 % 1018.28 hPa
2021-05-20 03:11:18 10.79 ℃ 100 % 1018.23 hPa
2021-05-20 03:01:18 10.95 ℃ 100 % 1018.23 hPa
2021-05-20 02:51:18 11.08 ℃ 100 % 1018.15 hPa
2021-05-20 02:41:18 11 ℃ 100 % 1018.08 hPa
2021-05-20 02:31:18 10.62 ℃ 100 % 1018.03 hPa
2021-05-20 02:21:18 10.36 ℃ 100 % 1017.96 hPa
2021-05-20 02:11:18 10.35 ℃ 100 % 1017.92 hPa
2021-05-20 02:01:18 10.59 ℃ 100 % 1017.88 hPa
2021-05-20 01:51:18 10.46 ℃ 100 % 1017.9 hPa
2021-05-20 01:41:18 10.31 ℃ 100 % 1017.91 hPa
2021-05-20 01:31:18 10.35 ℃ 100 % 1017.87 hPa
2021-05-20 01:21:18 10.33 ℃ 100 % 1017.86 hPa
2021-05-20 01:11:18 10.75 ℃ 100 % 1017.78 hPa
2021-05-20 01:01:18 11.06 ℃ 100 % 1017.72 hPa
2021-05-20 00:51:18 11.28 ℃ 100 % 1017.69 hPa
2021-05-20 00:41:18 11.39 ℃ 100 % 1017.67 hPa
2021-05-20 00:31:18 11.49 ℃ 100 % 1017.66 hPa
2021-05-20 00:21:18 11.72 ℃ 100 % 1017.63 hPa
2021-05-20 00:11:18 11.46 ℃ 100 % 1017.65 hPa
2021-05-20 00:01:18 11.31 ℃ 100 % 1017.66 hPa
2021-05-19 23:51:18 11.35 ℃ 100 % 1017.63 hPa
2021-05-19 23:41:18 11.43 ℃ 100 % 1017.62 hPa
2021-05-19 23:31:18 11.59 ℃ 100 % 1017.62 hPa
2021-05-19 23:21:18 11.61 ℃ 100 % 1017.58 hPa
2021-05-19 23:11:18 11.57 ℃ 99.99 % 1017.53 hPa
2021-05-19 23:01:18 11.72 ℃ 99.98 % 1017.48 hPa
2021-05-19 22:51:18 11.75 ℃ 99.96 % 1017.39 hPa
2021-05-19 22:41:18 11.83 ℃ 99.92 % 1017.3 hPa
2021-05-19 22:31:18 12.1 ℃ 99.84 % 1017.21 hPa
2021-05-19 22:21:18 12.15 ℃ 99.69 % 1017.15 hPa
2021-05-19 22:11:18 12.43 ℃ 99.37 % 1017.06 hPa
2021-05-19 22:01:18 12.63 ℃ 98.74 % 1016.97 hPa
2021-05-19 21:51:18 12.88 ℃ 97.48 % 1016.89 hPa
2021-05-19 21:41:18 13.11 ℃ 94.97 % 1016.8 hPa
2021-05-19 21:31:18 13.51 ℃ 91.73 % 1016.68 hPa
2021-05-19 21:21:18 13.82 ℃ 88.61 % 1016.55 hPa
2021-05-19 21:11:18 14.24 ℃ 83.96 % 1016.47 hPa
2021-05-19 21:01:18 14.78 ℃ 78.01 % 1016.4 hPa
2021-05-19 20:51:18 14.99 ℃ 75.44 % 1016.32 hPa
2021-05-19 20:41:18 14.86 ℃ 75.45 % 1016.25 hPa
2021-05-19 20:31:18 14.41 ℃ 77.34 % 1016.15 hPa
2021-05-19 20:21:18 14.62 ℃ 74.07 % 1016.1 hPa
2021-05-19 20:11:18 14.82 ℃ 69.73 % 1015.99 hPa
2021-05-19 20:01:18 14.95 ℃ 66.42 % 1015.97 hPa
2021-05-19 19:51:18 15.15 ℃ 64.38 % 1015.95 hPa
2021-05-19 19:41:18 15.64 ℃ 59.21 % 1015.9 hPa
2021-05-19 19:31:18 15.75 ℃ 56.33 % 1015.87 hPa
2021-05-19 19:21:18 15.92 ℃ 57.56 % 1015.84 hPa
2021-05-19 19:11:19 16.13 ℃ 57.37 % 1015.8 hPa
2021-05-19 19:01:18 16.02 ℃ 59.17 % 1015.76 hPa
2021-05-19 18:51:18 16.04 ℃ 58.63 % 1015.72 hPa
2021-05-19 18:41:18 16.05 ℃ 58.71 % 1015.63 hPa
2021-05-19 18:31:18 16.59 ℃ 58.13 % 1015.6 hPa
2021-05-19 18:21:18 16.91 ℃ 58.7 % 1015.59 hPa
2021-05-19 18:11:18 16.83 ℃ 58.08 % 1015.58 hPa
2021-05-19 18:01:18 17.01 ℃ 57.98 % 1015.58 hPa
2021-05-19 17:51:18 16.66 ℃ 57.16 % 1015.58 hPa
2021-05-19 17:41:19 16.93 ℃ 55.67 % 1015.48 hPa
2021-05-19 17:31:19 17.03 ℃ 54.92 % 1015.41 hPa
2021-05-19 17:21:19 17.31 ℃ 53.25 % 1015.37 hPa
2021-05-19 17:11:19 17.23 ℃ 54.1 % 1015.32 hPa
2021-05-19 17:01:19 17.3 ℃ 52.85 % 1015.27 hPa
2021-05-19 16:51:19 17.12 ℃ 54.52 % 1015.25 hPa
2021-05-19 16:41:19 17.28 ℃ 52.36 % 1015.25 hPa
2021-05-19 16:31:19 17.19 ℃ 51.19 % 1015.21 hPa
2021-05-19 16:21:19 17.23 ℃ 50.57 % 1015.2 hPa
2021-05-19 16:11:19 17.54 ℃ 48.21 % 1015.15 hPa
2021-05-19 16:01:19 17.57 ℃ 47.66 % 1015.15 hPa
2021-05-19 15:51:19 18.21 ℃ 47.5 % 1015.14 hPa
2021-05-19 15:41:19 18.1 ℃ 48.14 % 1015.18 hPa
2021-05-19 15:31:19 17.71 ℃ 49.14 % 1015.19 hPa
2021-05-19 15:21:19 18.02 ℃ 47.26 % 1015.15 hPa
2021-05-19 15:11:19 17.96 ℃ 47.3 % 1015.1 hPa
2021-05-19 15:01:19 17.71 ℃ 48.91 % 1015.08 hPa
2021-05-19 14:51:19 17.37 ℃ 50.92 % 1015.11 hPa
2021-05-19 14:41:19 17.51 ℃ 52.43 % 1015.13 hPa
2021-05-19 14:31:19 17.52 ℃ 53.55 % 1015.11 hPa
2021-05-19 14:21:19 17.26 ℃ 55.49 % 1015.12 hPa
2021-05-19 14:11:19 17.15 ℃ 56.97 % 1015.18 hPa
2021-05-19 14:01:19 17.24 ℃ 55.88 % 1015.23 hPa
2021-05-19 13:51:19 16.87 ℃ 59.01 % 1015.29 hPa
2021-05-19 13:41:19 16.89 ℃ 58.33 % 1015.32 hPa
2021-05-19 13:31:19 17.14 ℃ 57.36 % 1015.34 hPa
2021-05-19 13:21:19 17.4 ℃ 57.42 % 1015.38 hPa
2021-05-19 13:11:19 17.48 ℃ 56.96 % 1015.4 hPa
2021-05-19 13:01:19 17.13 ℃ 59.04 % 1015.44 hPa
2021-05-19 12:51:19 17.23 ℃ 57.15 % 1015.48 hPa
2021-05-19 12:41:19 17.01 ℃ 59.45 % 1015.52 hPa
2021-05-19 12:31:19 17.02 ℃ 62.89 % 1015.59 hPa
2021-05-19 12:21:19 16.86 ℃ 63.81 % 1015.6 hPa
2021-05-19 12:11:19 16.43 ℃ 66.04 % 1015.63 hPa
2021-05-19 12:01:19 16.42 ℃ 66.68 % 1015.64 hPa
2021-05-19 11:51:19 16.65 ℃ 67.7 % 1015.6 hPa
2021-05-19 11:41:19 15.99 ℃ 70.16 % 1015.65 hPa
2021-05-19 11:31:19 15.76 ℃ 74 % 1015.73 hPa
2021-05-19 11:21:19 15.26 ℃ 75.51 % 1015.76 hPa
2021-05-19 11:11:19 15.43 ℃ 74.43 % 1015.77 hPa
2021-05-19 11:01:19 15.7 ℃ 72.97 % 1015.73 hPa
2021-05-19 10:51:19 15.73 ℃ 73.27 % 1015.73 hPa
2021-05-19 10:41:19 15.52 ℃ 78.78 % 1015.73 hPa
2021-05-19 10:31:19 14.74 ℃ 86.14 % 1015.76 hPa
2021-05-19 10:21:19 14.89 ℃ 87.68 % 1015.73 hPa
2021-05-19 10:11:19 14.93 ℃ 88.54 % 1015.7 hPa
2021-05-19 10:01:19 14.85 ℃ 89.33 % 1015.66 hPa
2021-05-19 09:51:19 14.7 ℃ 90.36 % 1015.67 hPa
2021-05-19 09:41:19 15.25 ℃ 88.19 % 1015.67 hPa
2021-05-19 09:31:19 15.26 ℃ 88.2 % 1015.65 hPa
2021-05-19 09:21:19 14.4 ℃ 93.38 % 1015.65 hPa
2021-05-19 09:11:19 14.26 ℃ 97.88 % 1015.64 hPa
2021-05-19 09:01:19 14.32 ℃ 98.58 % 1015.63 hPa
2021-05-19 08:51:19 14.08 ℃ 99.88 % 1015.65 hPa
2021-05-19 08:41:19 14.15 ℃ 99.77 % 1015.61 hPa
2021-05-19 08:31:19 14.43 ℃ 99.54 % 1015.53 hPa
2021-05-19 08:21:19 14.82 ℃ 99.08 % 1015.46 hPa
2021-05-19 08:11:19 14.39 ℃ 99.92 % 1015.44 hPa
2021-05-19 08:01:19 14.2 ℃ 99.83 % 1015.44 hPa
2021-05-19 07:51:19 14.08 ℃ 99.66 % 1015.41 hPa
2021-05-19 07:41:19 13.95 ℃ 99.33 % 1015.34 hPa
2021-05-19 07:31:19 14.32 ℃ 98.66 % 1015.33 hPa
2021-05-19 07:21:19 13.8 ℃ 99.57 % 1015.26 hPa
2021-05-19 07:11:19 13.82 ℃ 99.15 % 1015.19 hPa
2021-05-19 07:01:19 13.31 ℃ 100 % 1015.13 hPa
2021-05-19 06:51:20 12.93 ℃ 99.99 % 1015.1 hPa
2021-05-19 06:41:19 12.78 ℃ 99.99 % 1015.02 hPa
2021-05-19 06:31:20 12.36 ℃ 99.97 % 1014.94 hPa
2021-05-19 06:21:20 12.34 ℃ 99.94 % 1014.86 hPa
2021-05-19 06:11:20 12.94 ℃ 99.88 % 1014.84 hPa
2021-05-19 06:01:20 11.93 ℃ 100 % 1014.86 hPa
2021-05-19 05:51:20 11.27 ℃ 100 % 1014.82 hPa
2021-05-19 05:41:20 11.26 ℃ 100 % 1014.78 hPa
2021-05-19 05:31:20 9.72 ℃ 100 % 1014.79 hPa
2021-05-19 05:21:20 9.3 ℃ 100 % 1014.79 hPa
2021-05-19 05:11:20 8.91 ℃ 100 % 1014.72 hPa
2021-05-19 05:01:20 8.73 ℃ 100 % 1014.71 hPa
2021-05-19 04:51:20 8.67 ℃ 100 % 1014.71 hPa
2021-05-19 04:41:20 8.92 ℃ 100 % 1014.69 hPa
2021-05-19 04:31:20 8.83 ℃ 100 % 1014.68 hPa
2021-05-19 04:21:20 8.85 ℃ 100 % 1014.65 hPa
2021-05-19 04:11:20 8.65 ℃ 100 % 1014.68 hPa
2021-05-19 04:01:20 8.61 ℃ 100 % 1014.62 hPa
2021-05-19 03:51:20 8.88 ℃ 100 % 1014.56 hPa
2021-05-19 03:41:20 8.98 ℃ 100 % 1014.54 hPa
2021-05-19 03:31:20 9.2 ℃ 100 % 1014.51 hPa
2021-05-19 03:21:20 9.4 ℃ 100 % 1014.48 hPa
2021-05-19 03:11:20 9.48 ℃ 100 % 1014.45 hPa
2021-05-19 03:01:20 9.4 ℃ 100 % 1014.4 hPa
2021-05-19 02:51:20 9.48 ℃ 100 % 1014.39 hPa
2021-05-19 02:41:20 9.52 ℃ 100 % 1014.39 hPa
2021-05-19 02:31:20 9.7 ℃ 100 % 1014.39 hPa
2021-05-19 02:21:20 9.74 ℃ 100 % 1014.42 hPa
2021-05-19 02:11:20 10.1 ℃ 100 % 1014.4 hPa
2021-05-19 02:01:20 10.11 ℃ 100 % 1014.39 hPa
2021-05-19 01:51:20 10.09 ℃ 100 % 1014.43 hPa
2021-05-19 01:41:20 9.9 ℃ 100 % 1014.46 hPa
2021-05-19 01:31:20 9.92 ℃ 100 % 1014.44 hPa
2021-05-19 01:21:20 9.87 ℃ 100 % 1014.41 hPa
2021-05-19 01:11:20 9.82 ℃ 100 % 1014.36 hPa
2021-05-19 01:01:20 9.98 ℃ 100 % 1014.31 hPa
2021-05-19 00:51:20 10.08 ℃ 100 % 1014.29 hPa
2021-05-19 00:41:20 10.29 ℃ 100 % 1014.27 hPa
2021-05-19 00:31:20 10.37 ℃ 100 % 1014.25 hPa
2021-05-19 00:21:20 10.42 ℃ 100 % 1014.25 hPa
2021-05-19 00:11:20 10.52 ℃ 100 % 1014.2 hPa
2021-05-19 00:01:20 10.58 ℃ 100 % 1014.19 hPa
2021-05-18 23:51:20 10.56 ℃ 100 % 1014.11 hPa
2021-05-18 23:41:20 10.69 ℃ 100 % 1014.05 hPa
2021-05-18 23:31:20 10.9 ℃ 100 % 1013.99 hPa
2021-05-18 23:21:20 11.17 ℃ 100 % 1013.95 hPa
2021-05-18 23:11:20 11.36 ℃ 100 % 1013.92 hPa
2021-05-18 23:01:20 11.68 ℃ 100 % 1013.9 hPa
2021-05-18 22:51:20 11.97 ℃ 100 % 1013.86 hPa
2021-05-18 22:41:20 12.37 ℃ 100 % 1013.84 hPa
2021-05-18 22:31:20 12.46 ℃ 100 % 1013.81 hPa
2021-05-18 22:21:20 12.53 ℃ 100 % 1013.76 hPa
2021-05-18 22:11:21 12.33 ℃ 100 % 1013.68 hPa
2021-05-18 22:01:20 12.32 ℃ 99.99 % 1013.59 hPa
2021-05-18 21:51:20 12.56 ℃ 99.98 % 1013.51 hPa
2021-05-18 21:41:20 12.61 ℃ 99.96 % 1013.46 hPa
2021-05-18 21:31:21 12.76 ℃ 99.92 % 1013.37 hPa
2021-05-18 21:21:20 12.97 ℃ 99.85 % 1013.3 hPa
2021-05-18 21:11:20 13.21 ℃ 99.7 % 1013.21 hPa
2021-05-18 21:01:20 13.58 ℃ 99.4 % 1013.12 hPa
2021-05-18 20:51:20 13.92 ℃ 98.79 % 1013.03 hPa
2021-05-18 20:41:20 13.73 ℃ 98.69 % 1012.98 hPa
2021-05-18 20:31:20 13.79 ℃ 97.38 % 1012.91 hPa
2021-05-18 20:21:20 14 ℃ 95.41 % 1012.8 hPa
2021-05-18 20:11:21 14.29 ℃ 92.44 % 1012.69 hPa
2021-05-18 20:01:20 14.63 ℃ 90.64 % 1012.6 hPa
2021-05-18 19:51:20 14.9 ℃ 88.53 % 1012.53 hPa
2021-05-18 19:41:21 14.98 ℃ 87.34 % 1012.42 hPa
2021-05-18 19:31:21 14.98 ℃ 87.72 % 1012.38 hPa
2021-05-18 19:21:21 14.9 ℃ 87.6 % 1012.34 hPa
2021-05-18 19:11:21 14.84 ℃ 87.29 % 1012.28 hPa
2021-05-18 19:01:21 15.15 ℃ 85.23 % 1012.21 hPa
2021-05-18 18:51:21 15.32 ℃ 82.51 % 1012.18 hPa
2021-05-18 18:41:21 15.35 ℃ 81.85 % 1012.17 hPa
2021-05-18 18:31:21 15.39 ℃ 79.47 % 1012.17 hPa
2021-05-18 18:21:21 15.54 ℃ 77.16 % 1012.1 hPa
2021-05-18 18:11:21 15.82 ℃ 75.81 % 1012.01 hPa
2021-05-18 17:51:21 16.16 ℃ 74.33 % 1011.9 hPa
2021-05-18 17:41:21 16.41 ℃ 72.16 % 1011.85 hPa
2021-05-18 17:31:21 15.82 ℃ 74.31 % 1011.83 hPa
2021-05-18 17:21:21 16.07 ℃ 72.81 % 1011.84 hPa
2021-05-18 17:11:21 16.25 ℃ 72.17 % 1011.81 hPa
2021-05-18 17:01:21 16.09 ℃ 74.95 % 1011.8 hPa
2021-05-18 16:51:21 16.07 ℃ 76.14 % 1011.87 hPa
2021-05-18 16:41:21 16.11 ℃ 83.27 % 1011.92 hPa
2021-05-18 16:31:21 16.2 ℃ 83.86 % 1011.93 hPa
2021-05-18 16:21:21 16.12 ℃ 84.56 % 1011.88 hPa
2021-05-18 16:11:21 15.71 ℃ 86.98 % 1011.84 hPa
2021-05-18 16:01:21 15.64 ℃ 89.63 % 1011.85 hPa
2021-05-18 15:51:21 15.78 ℃ 89.84 % 1011.83 hPa
2021-05-18 15:41:21 15.72 ℃ 89.92 % 1011.83 hPa
2021-05-18 15:31:21 15.67 ℃ 90.34 % 1011.82 hPa
2021-05-18 15:21:21 15.57 ℃ 93.51 % 1011.82 hPa
2021-05-18 15:11:21 15.63 ℃ 97.83 % 1011.81 hPa
2021-05-18 15:01:21 15.57 ℃ 99.45 % 1011.78 hPa
2021-05-18 14:51:21 15.42 ℃ 99.53 % 1011.74 hPa
2021-05-18 14:41:21 15.47 ℃ 99.24 % 1011.65 hPa
2021-05-18 14:31:21 15.41 ℃ 99.46 % 1011.63 hPa
2021-05-18 14:21:21 15.94 ℃ 98.93 % 1011.57 hPa
2021-05-18 14:11:21 15.82 ℃ 100 % 1011.52 hPa
2021-05-18 14:01:21 15.89 ℃ 100 % 1011.5 hPa
2021-05-18 13:51:21 15.85 ℃ 100 % 1011.5 hPa
2021-05-18 13:41:21 16.08 ℃ 100 % 1011.52 hPa
2021-05-18 13:31:21 15.64 ℃ 100 % 1011.55 hPa
2021-05-18 13:21:21 15.32 ℃ 100 % 1011.56 hPa
2021-05-18 13:11:21 14.96 ℃ 100 % 1011.56 hPa
2021-05-18 13:01:21 14.52 ℃ 100 % 1011.5 hPa
2021-05-18 12:51:21 14.42 ℃ 100 % 1011.47 hPa
2021-05-18 12:41:21 14.72 ℃ 100 % 1011.37 hPa
2021-05-18 12:31:21 14.83 ℃ 100 % 1011.31 hPa
2021-05-18 12:21:21 14.33 ℃ 99.99 % 1011.34 hPa
2021-05-18 12:11:21 13.82 ℃ 99.98 % 1011.34 hPa
2021-05-18 12:01:21 14.05 ℃ 99.97 % 1011.26 hPa
2021-05-18 11:51:21 14.2 ℃ 99.93 % 1011.17 hPa
2021-05-18 11:41:21 14.44 ℃ 99.87 % 1011.1 hPa
2021-05-18 11:31:21 14.55 ℃ 99.73 % 1011.08 hPa
2021-05-18 11:21:21 14.16 ℃ 99.92 % 1011.08 hPa
2021-05-18 11:11:21 13.98 ℃ 99.84 % 1011.06 hPa
2021-05-18 11:01:21 14.41 ℃ 99.68 % 1011 hPa
2021-05-18 10:51:21 14.54 ℃ 99.35 % 1010.93 hPa
2021-05-18 10:41:21 14.86 ℃ 98.88 % 1010.91 hPa
2021-05-18 10:31:21 15.1 ℃ 97.75 % 1010.9 hPa
2021-05-18 10:21:21 15.13 ℃ 98.28 % 1010.9 hPa
2021-05-18 10:11:21 14.95 ℃ 100 % 1010.87 hPa
2021-05-18 10:01:21 15.03 ℃ 100 % 1010.83 hPa
2021-05-18 09:51:21 14.81 ℃ 100 % 1010.78 hPa
2021-05-18 09:41:22 14.83 ℃ 100 % 1010.73 hPa
2021-05-18 09:31:21 14.88 ℃ 100 % 1010.66 hPa
2021-05-18 09:21:21 14.43 ℃ 100 % 1010.57 hPa
2021-05-18 09:11:21 14.4 ℃ 100 % 1010.52 hPa
2021-05-18 09:01:21 14.59 ℃ 100 % 1010.45 hPa
2021-05-18 08:51:21 14.69 ℃ 99.99 % 1010.36 hPa
2021-05-18 08:41:22 14.47 ℃ 99.99 % 1010.25 hPa
2021-05-18 08:31:22 14.26 ℃ 99.98 % 1010.16 hPa
2021-05-18 08:21:22 14.05 ℃ 99.95 % 1010.11 hPa
2021-05-18 08:11:21 13.93 ℃ 99.91 % 1010.05 hPa
2021-05-18 08:01:22 14.18 ℃ 99.81 % 1009.96 hPa
2021-05-18 07:51:22 14.08 ℃ 99.63 % 1009.87 hPa
2021-05-18 07:41:22 14.15 ℃ 99.26 % 1009.81 hPa
2021-05-18 07:31:22 14.81 ℃ 98.52 % 1009.74 hPa
2021-05-18 07:21:22 15.33 ℃ 97.03 % 1009.67 hPa
2021-05-18 07:11:22 14.73 ℃ 99.36 % 1009.66 hPa
2021-05-18 07:01:22 14.44 ℃ 99.48 % 1009.61 hPa
2021-05-18 06:51:22 14.72 ℃ 98.96 % 1009.55 hPa
2021-05-18 06:41:22 14.84 ℃ 98.26 % 1009.52 hPa
2021-05-18 06:31:22 14.97 ℃ 97.15 % 1009.48 hPa
2021-05-18 06:21:22 15.12 ℃ 96.08 % 1009.42 hPa
2021-05-18 06:11:22 14.55 ℃ 97.79 % 1009.41 hPa
2021-05-18 05:51:22 12.33 ℃ 100 % 1009.36 hPa
2021-05-18 05:41:22 11.9 ℃ 100 % 1009.29 hPa
2021-05-18 05:31:22 11.64 ℃ 100 % 1009.17 hPa
2021-05-18 05:21:22 11.59 ℃ 100 % 1009.08 hPa
2021-05-18 05:11:22 11.53 ℃ 100 % 1009.01 hPa
2021-05-18 05:01:22 11.54 ℃ 100 % 1008.94 hPa
2021-05-18 04:51:22 11.68 ℃ 100 % 1008.88 hPa
2021-05-18 04:41:22 11.73 ℃ 100 % 1008.82 hPa
2021-05-18 04:31:22 11.72 ℃ 100 % 1008.77 hPa
2021-05-18 04:21:22 11.58 ℃ 100 % 1008.75 hPa
2021-05-18 04:11:22 11.47 ℃ 100 % 1008.7 hPa
2021-05-18 04:01:22 11.57 ℃ 100 % 1008.61 hPa
2021-05-18 03:51:22 11.57 ℃ 100 % 1008.53 hPa
2021-05-18 03:41:22 11.4 ℃ 100 % 1008.46 hPa
2021-05-18 03:31:23 11.46 ℃ 100 % 1008.37 hPa
2021-05-18 03:21:22 11.49 ℃ 100 % 1008.3 hPa
2021-05-18 03:11:22 11.15 ℃ 100 % 1008.19 hPa
2021-05-18 03:01:22 10.85 ℃ 100 % 1008.09 hPa
2021-05-18 02:51:22 10.84 ℃ 100 % 1008 hPa
2021-05-18 02:41:22 10.76 ℃ 100 % 1007.91 hPa
2021-05-18 02:31:22 10.71 ℃ 100 % 1007.84 hPa
2021-05-18 02:21:22 10.76 ℃ 100 % 1007.78 hPa
2021-05-18 02:11:22 10.96 ℃ 100 % 1007.65 hPa
2021-05-18 02:01:22 11.06 ℃ 100 % 1007.54 hPa
2021-05-18 01:51:22 11.45 ℃ 100 % 1007.45 hPa
2021-05-18 01:41:22 11.67 ℃ 100 % 1007.33 hPa
2021-05-18 01:31:22 11.85 ℃ 100 % 1007.27 hPa
2021-05-18 01:21:22 12.23 ℃ 100 % 1007.19 hPa
2021-05-18 01:11:22 12.56 ℃ 100 % 1007.11 hPa
2021-05-18 01:01:22 12.82 ℃ 100 % 1007.04 hPa
2021-05-18 00:51:22 13.3 ℃ 100 % 1006.99 hPa
2021-05-18 00:41:22 13.81 ℃ 100 % 1006.89 hPa
2021-05-18 00:31:22 13.83 ℃ 100 % 1006.81 hPa
2021-05-18 00:21:22 13.86 ℃ 100 % 1006.72 hPa
2021-05-18 00:11:22 14.03 ℃ 100 % 1006.67 hPa
2021-05-18 00:01:22 14.14 ℃ 100 % 1006.62 hPa
2021-05-17 23:51:22 14.07 ℃ 100 % 1006.54 hPa
2021-05-17 23:41:22 14.28 ℃ 100 % 1006.46 hPa
2021-05-17 23:31:22 14.49 ℃ 100 % 1006.39 hPa
2021-05-17 23:21:22 14.34 ℃ 100 % 1006.35 hPa
2021-05-17 23:11:22 14.38 ℃ 100 % 1006.29 hPa
2021-05-17 23:01:22 14.73 ℃ 100 % 1006.22 hPa
2021-05-17 22:51:22 14.54 ℃ 100 % 1006.15 hPa
2021-05-17 22:41:22 14.8 ℃ 100 % 1006.07 hPa
2021-05-17 22:31:22 14.72 ℃ 100 % 1006.02 hPa
2021-05-17 22:21:22 14.87 ℃ 100 % 1006.02 hPa
2021-05-17 22:11:22 14.95 ℃ 100 % 1005.98 hPa
2021-05-17 22:01:22 14.92 ℃ 100 % 1005.92 hPa
2021-05-17 21:51:23 14.94 ℃ 100 % 1005.88 hPa
2021-05-17 21:41:23 14.9 ℃ 100 % 1005.78 hPa
2021-05-17 21:31:23 14.89 ℃ 100 % 1005.71 hPa
2021-05-17 21:21:23 14.74 ℃ 100 % 1005.6 hPa
2021-05-17 21:11:23 14.7 ℃ 100 % 1005.48 hPa
2021-05-17 21:01:23 14.87 ℃ 100 % 1005.38 hPa
2021-05-17 20:51:23 15.33 ℃ 100 % 1005.32 hPa
2021-05-17 20:41:23 15.8 ℃ 100 % 1005.22 hPa
2021-05-17 20:31:23 15.87 ℃ 100 % 1005.17 hPa
2021-05-17 20:21:23 15.66 ℃ 100 % 1005.13 hPa
2021-05-17 20:11:23 15.86 ℃ 100 % 1005.09 hPa
2021-05-17 20:01:23 15.51 ℃ 100 % 1005.01 hPa
2021-05-17 19:51:23 15.33 ℃ 100 % 1004.94 hPa
2021-05-17 19:41:23 15.45 ℃ 100 % 1004.93 hPa
2021-05-17 19:31:23 14.96 ℃ 100 % 1004.84 hPa
2021-05-17 19:21:23 14.88 ℃ 100 % 1004.72 hPa
2021-05-17 19:11:23 14.66 ℃ 100 % 1004.66 hPa
2021-05-17 19:01:23 14.46 ℃ 100 % 1004.67 hPa
2021-05-17 18:51:23 14.78 ℃ 100 % 1004.67 hPa
2021-05-17 18:41:23 14.53 ℃ 100 % 1004.69 hPa
2021-05-17 18:31:23 14.48 ℃ 100 % 1004.71 hPa
2021-05-17 18:21:23 14.68 ℃ 100 % 1004.7 hPa
2021-05-17 18:11:23 14.95 ℃ 100 % 1004.67 hPa
2021-05-17 18:01:23 14.65 ℃ 100 % 1004.59 hPa
2021-05-17 17:51:23 14.43 ℃ 100 % 1004.57 hPa
2021-05-17 17:41:23 14.43 ℃ 100 % 1004.45 hPa
2021-05-17 17:31:23 14.58 ℃ 100 % 1004.34 hPa
2021-05-17 17:21:23 14.34 ℃ 100 % 1004.3 hPa
2021-05-17 17:11:23 13.84 ℃ 100 % 1004.29 hPa
2021-05-17 17:01:23 14.01 ℃ 100 % 1004.22 hPa
2021-05-17 16:51:23 14.25 ℃ 100 % 1004.2 hPa
2021-05-17 16:41:23 14.15 ℃ 100 % 1004.13 hPa
2021-05-17 16:31:23 14.27 ℃ 99.99 % 1004.11 hPa
2021-05-17 16:21:23 14.54 ℃ 99.98 % 1004.04 hPa
2021-05-17 16:11:23 14.69 ℃ 99.96 % 1004.01 hPa
2021-05-17 16:01:23 14.5 ℃ 99.93 % 1003.96 hPa
2021-05-17 15:51:23 14.36 ℃ 99.86 % 1003.91 hPa
2021-05-17 15:41:23 14.65 ℃ 99.72 % 1003.9 hPa
2021-05-17 15:31:23 14.76 ℃ 99.84 % 1003.91 hPa
2021-05-17 15:21:23 14.73 ℃ 99.68 % 1003.93 hPa
2021-05-17 15:11:23 15.09 ℃ 99.35 % 1003.85 hPa
2021-05-17 15:01:23 14.81 ℃ 99.61 % 1003.76 hPa
2021-05-17 14:51:23 15.08 ℃ 99.22 % 1003.64 hPa
2021-05-17 14:41:23 15.54 ℃ 98.45 % 1003.62 hPa
2021-05-17 14:31:23 15.82 ℃ 96.9 % 1003.54 hPa
2021-05-17 14:21:23 15.54 ℃ 97.33 % 1003.48 hPa
2021-05-17 14:11:23 15.57 ℃ 94.84 % 1003.38 hPa
2021-05-17 14:01:23 16.07 ℃ 89.67 % 1003.29 hPa
2021-05-17 13:51:23 16.84 ℃ 79.34 % 1003.11 hPa
2021-05-17 13:41:23 18.21 ℃ 60.46 % 1002.95 hPa
2021-05-17 13:31:23 18.05 ℃ 62.31 % 1002.88 hPa
2021-05-17 13:21:23 17.49 ℃ 65.41 % 1002.86 hPa
2021-05-17 13:11:23 17.69 ℃ 64.44 % 1002.85 hPa
2021-05-17 13:01:23 18.09 ℃ 65.97 % 1002.9 hPa
2021-05-17 12:51:23 17.77 ℃ 66.7 % 1002.88 hPa
2021-05-17 12:41:23 17.76 ℃ 63.51 % 1002.9 hPa
2021-05-17 12:31:23 18.07 ℃ 61.32 % 1002.89 hPa
2021-05-17 12:21:24 18.1 ℃ 62.87 % 1002.91 hPa
2021-05-17 12:11:23 18.23 ℃ 63.36 % 1002.89 hPa
2021-05-17 12:01:23 18.58 ℃ 60.73 % 1002.88 hPa
2021-05-17 11:51:23 18.71 ℃ 61.85 % 1002.87 hPa
2021-05-17 11:41:23 18.74 ℃ 63.71 % 1002.86 hPa
2021-05-17 11:31:23 18.56 ℃ 65.53 % 1002.86 hPa
2021-05-17 11:21:23 18.81 ℃ 65.69 % 1002.82 hPa
2021-05-17 11:11:23 18.61 ℃ 66.74 % 1002.81 hPa
2021-05-17 11:01:23 18.32 ℃ 66.79 % 1002.76 hPa
2021-05-17 10:51:24 18.53 ℃ 69 % 1002.77 hPa
2021-05-17 10:41:24 18.12 ℃ 73.09 % 1002.76 hPa
2021-05-17 10:31:24 18.24 ℃ 74.73 % 1002.72 hPa
2021-05-17 10:21:24 17.88 ℃ 75.11 % 1002.67 hPa
2021-05-17 10:11:24 17.71 ℃ 79.28 % 1002.64 hPa
2021-05-17 10:01:24 17.45 ℃ 83.09 % 1002.58 hPa
2021-05-17 09:51:24 17.13 ℃ 85.61 % 1002.56 hPa
2021-05-17 09:41:24 16.74 ℃ 88.19 % 1002.49 hPa
2021-05-17 09:31:24 16.73 ℃ 87.84 % 1002.49 hPa
2021-05-17 09:21:24 17.16 ℃ 85.02 % 1002.51 hPa
2021-05-17 09:11:24 17.24 ℃ 85.89 % 1002.51 hPa
2021-05-17 09:01:24 16.64 ℃ 88.62 % 1002.51 hPa
2021-05-17 08:51:24 16.57 ℃ 90.8 % 1002.47 hPa
2021-05-17 08:41:24 15.99 ℃ 95.26 % 1002.46 hPa
2021-05-17 08:31:24 16.22 ℃ 92.89 % 1002.42 hPa
2021-05-17 08:21:24 15.61 ℃ 94.9 % 1002.41 hPa
2021-05-17 08:11:27 15.76 ℃ 94.44 % 1002.32 hPa
2021-05-17 08:01:24 15.67 ℃ 95.28 % 1002.25 hPa
2021-05-17 07:51:24 16.23 ℃ 92.98 % 1002.15 hPa
2021-05-17 07:41:26 16.07 ℃ 97.57 % 1002.07 hPa
2021-05-17 07:31:24 15.89 ℃ 98.18 % 1002.03 hPa
2021-05-17 07:21:24 15.46 ℃ 99.54 % 1002.03 hPa
2021-05-17 07:11:25 15.22 ℃ 99.75 % 1002.01 hPa
2021-05-17 07:01:24 15.13 ℃ 99.68 % 1001.97 hPa
2021-05-17 06:51:25 14.91 ℃ 99.91 % 1001.9 hPa
2021-05-17 06:41:24 14.79 ℃ 99.82 % 1001.84 hPa
2021-05-17 06:31:24 14.76 ℃ 99.64 % 1001.77 hPa
2021-05-17 06:21:24 14.04 ℃ 100 % 1001.74 hPa
2021-05-17 06:11:24 13.4 ℃ 100 % 1001.67 hPa
2021-05-17 06:01:24 13.07 ℃ 100 % 1001.63 hPa
2021-05-17 05:51:24 12.79 ℃ 100 % 1001.58 hPa
2021-05-17 05:41:24 12.71 ℃ 100 % 1001.54 hPa
2021-05-17 05:31:24 12.56 ℃ 100 % 1001.52 hPa
2021-05-17 05:21:25 12.72 ℃ 100 % 1001.47 hPa
2021-05-17 05:11:26 12.34 ℃ 100 % 1001.47 hPa
2021-05-17 05:01:24 12.14 ℃ 100 % 1001.44 hPa
2021-05-17 04:41:26 12.01 ℃ 100 % 1001.42 hPa
2021-05-17 04:31:24 12.35 ℃ 100 % 1001.37 hPa
2021-05-17 04:21:24 12.34 ℃ 100 % 1001.34 hPa
2021-05-17 04:11:27 12.28 ℃ 100 % 1001.32 hPa
2021-05-17 04:01:27 12.39 ℃ 100 % 1001.31 hPa
2021-05-17 03:51:24 12.54 ℃ 100 % 1001.29 hPa
2021-05-17 03:41:26 12.55 ℃ 100 % 1001.26 hPa
2021-05-17 03:31:24 12.73 ℃ 100 % 1001.24 hPa
2021-05-17 03:21:24 12.88 ℃ 100 % 1001.23 hPa
2021-05-17 03:11:28 12.8 ℃ 100 % 1001.23 hPa
2021-05-17 03:01:24 12.76 ℃ 100 % 1001.22 hPa
2021-05-17 02:51:24 12.9 ℃ 100 % 1001.22 hPa
2021-05-17 02:41:24 13.03 ℃ 100 % 1001.23 hPa
2021-05-17 02:31:26 13.18 ℃ 100 % 1001.24 hPa
2021-05-17 02:21:24 13.04 ℃ 100 % 1001.26 hPa
2021-05-17 02:11:24 12.99 ℃ 100 % 1001.3 hPa
2021-05-17 02:01:24 12.87 ℃ 100 % 1001.33 hPa
2021-05-17 01:51:24 12.75 ℃ 100 % 1001.36 hPa
2021-05-17 01:41:24 12.62 ℃ 100 % 1001.37 hPa
2021-05-17 01:31:24 12.28 ℃ 100 % 1001.42 hPa
2021-05-17 01:21:25 12.3 ℃ 100 % 1001.56 hPa
2021-05-17 01:11:24 12.47 ℃ 100 % 1001.64 hPa
2021-05-17 01:01:25 12.4 ℃ 100 % 1001.64 hPa
2021-05-17 00:51:24 12.63 ℃ 100 % 1001.68 hPa
2021-05-17 00:41:24 13.04 ℃ 100 % 1001.69 hPa
2021-05-17 00:31:24 13.2 ℃ 100 % 1001.68 hPa
2021-05-17 00:21:24 13.47 ℃ 100 % 1001.68 hPa
2021-05-17 00:11:24 13.76 ℃ 100 % 1001.66 hPa
2021-05-17 00:01:26 14.2 ℃ 100 % 1001.59 hPa
2021-05-16 23:51:27 13.88 ℃ 100 % 1001.5 hPa
2021-05-16 23:41:24 14.05 ℃ 100 % 1001.46 hPa
2021-05-16 23:31:24 14.08 ℃ 100 % 1001.42 hPa
2021-05-16 23:21:26 14.34 ℃ 100 % 1001.41 hPa
2021-05-16 23:11:25 14.57 ℃ 100 % 1001.3 hPa
2021-05-16 23:01:25 14.37 ℃ 100 % 1001.25 hPa
2021-05-16 22:51:25 14.38 ℃ 100 % 1001.23 hPa
2021-05-16 22:41:25 14.39 ℃ 100 % 1001.2 hPa
2021-05-16 22:31:25 14.33 ℃ 99.99 % 1001.23 hPa
2021-05-16 22:11:25 14.68 ℃ 99.96 % 1001.24 hPa
2021-05-16 22:01:25 14.73 ℃ 99.92 % 1001.25 hPa
2021-05-16 21:51:27 14.62 ℃ 99.85 % 1001.25 hPa
2021-05-16 21:41:25 15.16 ℃ 99.69 % 1001.21 hPa
2021-05-16 21:31:25 15.21 ℃ 99.38 % 1001.2 hPa
2021-05-16 21:21:25 15.12 ℃ 98.76 % 1001.2 hPa
2021-05-16 21:11:25 15.37 ℃ 97.52 % 1001.17 hPa
2021-05-16 21:01:25 15.91 ℃ 95.04 % 1001.11 hPa
2021-05-16 20:51:25 16.15 ℃ 93.82 % 1001.05 hPa
2021-05-16 20:41:25 15.67 ℃ 96.83 % 1001 hPa
2021-05-16 20:31:25 15.89 ℃ 95.69 % 1000.93 hPa
2021-05-16 20:21:28 15.95 ℃ 95.39 % 1000.91 hPa
2021-05-16 20:11:25 15.75 ℃ 96.15 % 1000.88 hPa
2021-05-16 20:01:25 16.14 ℃ 93.79 % 1000.85 hPa
2021-05-16 19:51:25 16.41 ℃ 91.97 % 1000.85 hPa
2021-05-16 19:41:27 16.35 ℃ 92.84 % 1000.88 hPa
2021-05-16 19:31:25 16.26 ℃ 93.02 % 1000.87 hPa
2021-05-16 19:21:25 15.84 ℃ 96.47 % 1000.87 hPa
2021-05-16 19:11:29 15.65 ℃ 97.87 % 1000.89 hPa
2021-05-16 19:01:28 15.65 ℃ 99.74 % 1000.94 hPa
2021-05-16 18:51:25 15.76 ℃ 99.95 % 1001 hPa
2021-05-16 18:41:25 15.71 ℃ 100 % 1001.05 hPa
2021-05-16 18:31:25 15.41 ℃ 100 % 1001.16 hPa
2021-05-16 18:21:25 15.63 ℃ 100 % 1001.28 hPa
2021-05-16 18:11:25 15.4 ℃ 100 % 1001.34 hPa
2021-05-16 18:01:25 15.24 ℃ 99.99 % 1001.43 hPa
2021-05-16 17:51:25 15.05 ℃ 99.99 % 1001.48 hPa
2021-05-16 17:41:25 14.85 ℃ 99.97 % 1001.51 hPa
2021-05-16 17:31:25 14.72 ℃ 99.95 % 1001.56 hPa
2021-05-16 17:21:25 14.69 ℃ 99.9 % 1001.54 hPa
2021-05-16 17:11:25 14.97 ℃ 99.79 % 1001.52 hPa
2021-05-16 17:01:25 15.36 ℃ 99.58 % 1001.48 hPa
2021-05-16 16:51:25 15.72 ℃ 99.17 % 1001.37 hPa
2021-05-16 16:41:25 16.17 ℃ 98.33 % 1001.21 hPa
2021-05-16 16:31:25 16.71 ℃ 96.67 % 1001.14 hPa
2021-05-16 16:21:25 16.62 ℃ 98.65 % 1001.19 hPa
2021-05-16 16:11:25 16.95 ℃ 97.3 % 1001.22 hPa
2021-05-16 16:01:25 16.88 ℃ 94.6 % 1001.29 hPa
2021-05-16 15:51:26 16.37 ℃ 99.82 % 1001.34 hPa
2021-05-16 15:41:25 15.82 ℃ 99.65 % 1001.38 hPa
2021-05-16 15:31:25 15.04 ℃ 99.3 % 1001.43 hPa
2021-05-16 15:21:25 14.4 ℃ 98.6 % 1001.51 hPa
2021-05-16 15:11:25 14.75 ℃ 97.2 % 1001.49 hPa
2021-05-16 15:01:25 15.52 ℃ 94.4 % 1001.37 hPa
2021-05-16 14:51:25 16.14 ℃ 88.79 % 1001.24 hPa
2021-05-16 14:41:25 16.44 ℃ 88.34 % 1001.2 hPa
2021-05-16 14:31:25 16.55 ℃ 88.86 % 1001.13 hPa
2021-05-16 14:21:25 16.55 ℃ 80.9 % 1001.09 hPa
2021-05-16 14:11:25 17.75 ℃ 72.61 % 1001.08 hPa
2021-05-16 14:01:25 17.8 ℃ 68.3 % 1000.99 hPa
2021-05-16 13:51:25 18.05 ℃ 62.71 % 1001.03 hPa
2021-05-16 13:41:25 17.5 ℃ 64.53 % 1001.11 hPa
2021-05-16 13:31:25 17.96 ℃ 66.33 % 1001.2 hPa
2021-05-16 13:21:28 18.33 ℃ 70.82 % 1001.34 hPa
2021-05-16 13:11:26 18.92 ℃ 71.49 % 1001.39 hPa
2021-05-16 13:01:26 18.76 ℃ 74.29 % 1001.44 hPa
2021-05-16 12:51:25 18.44 ℃ 80.27 % 1001.51 hPa
2021-05-16 12:41:25 18.17 ℃ 87.68 % 1001.58 hPa
2021-05-16 12:31:26 17.87 ℃ 88.98 % 1001.61 hPa
2021-05-16 12:21:26 17.78 ℃ 90.12 % 1001.63 hPa
2021-05-16 12:11:26 17.45 ℃ 93.3 % 1001.67 hPa
2021-05-16 12:01:26 17.61 ℃ 96.16 % 1001.7 hPa
2021-05-16 11:51:26 17.74 ℃ 99.61 % 1001.72 hPa
2021-05-16 11:41:26 17.15 ℃ 100 % 1001.75 hPa
2021-05-16 11:31:26 16.7 ℃ 100 % 1001.76 hPa
2021-05-16 11:21:26 16.21 ℃ 100 % 1001.84 hPa
2021-05-16 11:11:43 16.02 ℃ 100 % 1001.84 hPa
2021-05-16 11:01:28 15.99 ℃ 100 % 1001.85 hPa
2021-05-16 10:51:26 15.69 ℃ 100 % 1001.84 hPa
2021-05-16 10:41:26 15.46 ℃ 100 % 1001.82 hPa
2021-05-16 10:31:26 15.62 ℃ 100 % 1001.76 hPa
2021-05-16 10:21:26 15.35 ℃ 100 % 1001.81 hPa
2021-05-16 10:11:29 15.05 ℃ 100 % 1001.85 hPa
2021-05-16 10:01:26 14.96 ℃ 100 % 1001.86 hPa
2021-05-16 09:51:26 14.81 ℃ 100 % 1001.86 hPa
2021-05-16 09:41:26 14.51 ℃ 100 % 1001.84 hPa
2021-05-16 09:31:26 14.67 ℃ 100 % 1001.83 hPa
2021-05-16 09:21:26 14.23 ℃ 100 % 1001.83 hPa
2021-05-16 09:11:26 14.14 ℃ 100 % 1001.81 hPa
2021-05-16 09:01:27 13.73 ℃ 100 % 1001.8 hPa
2021-05-16 08:51:26 13.19 ℃ 100 % 1001.83 hPa
2021-05-16 08:41:26 12.97 ℃ 100 % 1001.83 hPa
2021-05-16 08:31:26 12.51 ℃ 100 % 1001.83 hPa
2021-05-16 08:21:26 12.35 ℃ 100 % 1001.82 hPa
2021-05-16 08:11:26 12.15 ℃ 100 % 1001.83 hPa
2021-05-16 08:01:26 11.95 ℃ 100 % 1001.83 hPa
2021-05-16 07:51:26 11.82 ℃ 100 % 1001.81 hPa
2021-05-16 07:41:26 11.83 ℃ 100 % 1001.82 hPa
2021-05-16 07:31:26 11.53 ℃ 100 % 1001.85 hPa
2021-05-16 07:21:26 11.56 ℃ 100 % 1001.88 hPa
2021-05-16 07:11:26 11.13 ℃ 100 % 1001.89 hPa
2021-05-16 07:01:26 11.1 ℃ 100 % 1001.88 hPa
2021-05-16 06:51:26 11.01 ℃ 100 % 1001.88 hPa
2021-05-16 06:41:28 11.01 ℃ 100 % 1001.88 hPa
2021-05-16 06:31:26 10.87 ℃ 100 % 1001.85 hPa
2021-05-16 06:21:26 10.84 ℃ 100 % 1001.83 hPa
2021-05-16 06:11:26 10.54 ℃ 100 % 1001.82 hPa
2021-05-16 06:01:26 10.36 ℃ 100 % 1001.82 hPa
2021-05-16 05:51:26 10.41 ℃ 100 % 1001.79 hPa
2021-05-16 05:41:26 10.28 ℃ 100 % 1001.78 hPa
2021-05-16 05:31:26 10.25 ℃ 100 % 1001.81 hPa
2021-05-16 05:21:26 10.46 ℃ 100 % 1001.84 hPa
2021-05-16 05:11:26 10.25 ℃ 100 % 1001.86 hPa
2021-05-16 05:01:26 10.13 ℃ 100 % 1001.89 hPa
2021-05-16 04:51:26 9.9 ℃ 100 % 1001.89 hPa
2021-05-16 04:41:26 9.91 ℃ 100 % 1001.93 hPa
2021-05-16 04:31:26 10.02 ℃ 100 % 1001.98 hPa
2021-05-16 04:21:26 10.18 ℃ 100 % 1002.01 hPa
2021-05-16 04:11:26 10.38 ℃ 100 % 1002.03 hPa
2021-05-16 04:01:26 10.37 ℃ 100 % 1002.04 hPa
2021-05-16 03:51:26 10.65 ℃ 100 % 1002.04 hPa
2021-05-16 03:41:26 10.58 ℃ 100 % 1002.13 hPa
2021-05-16 03:31:26 10.37 ℃ 100 % 1002.17 hPa
2021-05-16 03:21:26 10.09 ℃ 100 % 1002.23 hPa
2021-05-16 03:11:26 10.13 ℃ 100 % 1002.26 hPa
2021-05-16 03:01:26 10.27 ℃ 100 % 1002.28 hPa
2021-05-16 02:51:26 10.13 ℃ 100 % 1002.35 hPa
2021-05-16 02:41:27 10.21 ℃ 100 % 1002.38 hPa
2021-05-16 02:31:26 10.35 ℃ 100 % 1002.41 hPa
2021-05-16 02:21:26 10.56 ℃ 100 % 1002.47 hPa
2021-05-16 02:11:26 10.09 ℃ 100 % 1002.55 hPa
2021-05-16 02:01:26 10.12 ℃ 100 % 1002.64 hPa
2021-05-16 01:51:26 10.27 ℃ 100 % 1002.69 hPa
2021-05-16 01:41:26 10.5 ℃ 100 % 1002.75 hPa
2021-05-16 01:31:27 10.47 ℃ 100 % 1002.82 hPa
2021-05-16 01:21:27 9.71 ℃ 100 % 1002.88 hPa
2021-05-16 01:11:27 9.82 ℃ 100 % 1002.92 hPa
2021-05-16 01:01:29 9.98 ℃ 100 % 1002.91 hPa
2021-05-16 00:51:27 10.04 ℃ 100 % 1002.95 hPa
2021-05-16 00:41:27 9.87 ℃ 100 % 1002.99 hPa
2021-05-16 00:31:27 9.71 ℃ 100 % 1003.06 hPa
2021-05-16 00:21:27 9.78 ℃ 100 % 1003.09 hPa
2021-05-16 00:11:27 9.86 ℃ 100 % 1003.09 hPa
2021-05-16 00:01:27 10 ℃ 100 % 1003.13 hPa
2021-05-15 23:51:27 10.34 ℃ 100 % 1003.2 hPa
2021-05-15 23:41:27 10.36 ℃ 100 % 1003.27 hPa
2021-05-15 23:31:27 10.13 ℃ 100 % 1003.34 hPa
2021-05-15 23:21:27 9.97 ℃ 100 % 1003.41 hPa
2021-05-15 23:11:27 9.91 ℃ 100 % 1003.48 hPa
2021-05-15 23:01:27 9.99 ℃ 100 % 1003.51 hPa
2021-05-15 22:51:27 10.38 ℃ 100 % 1003.53 hPa
2021-05-15 22:41:27 10.3 ℃ 100 % 1003.6 hPa
2021-05-15 22:31:27 10.47 ℃ 100 % 1003.62 hPa
2021-05-15 22:21:27 10.61 ℃ 100 % 1003.66 hPa
2021-05-15 22:11:27 10.01 ℃ 100 % 1003.67 hPa
2021-05-15 22:01:27 10.19 ℃ 100 % 1003.73 hPa
2021-05-15 21:51:27 10.44 ℃ 100 % 1003.76 hPa
2021-05-15 21:41:27 10.59 ℃ 100 % 1003.8 hPa
2021-05-15 21:31:28 10.76 ℃ 100 % 1003.81 hPa
2021-05-15 21:21:27 10.48 ℃ 100 % 1003.83 hPa
2021-05-15 21:11:27 10.47 ℃ 100 % 1003.8 hPa
2021-05-15 21:01:27 10.39 ℃ 100 % 1003.82 hPa
2021-05-15 20:51:27 10.53 ℃ 100 % 1003.85 hPa
2021-05-15 20:41:27 10.65 ℃ 100 % 1003.86 hPa
2021-05-15 20:31:27 10.92 ℃ 100 % 1003.93 hPa
2021-05-15 20:21:27 11.18 ℃ 100 % 1003.99 hPa
2021-05-15 20:11:29 11.12 ℃ 100 % 1004.06 hPa
2021-05-15 20:01:27 10.96 ℃ 100 % 1004.07 hPa
2021-05-15 19:51:27 11.31 ℃ 100 % 1004.12 hPa
2021-05-15 19:41:27 11.77 ℃ 100 % 1004.16 hPa
2021-05-15 19:31:27 11.93 ℃ 100 % 1004.13 hPa
2021-05-15 19:21:27 11.91 ℃ 100 % 1004.15 hPa
2021-05-15 19:11:27 11.54 ℃ 100 % 1004.22 hPa
2021-05-15 19:01:27 11.4 ℃ 100 % 1004.28 hPa
2021-05-15 18:51:27 11.53 ℃ 100 % 1004.36 hPa
2021-05-15 18:41:27 11.82 ℃ 100 % 1004.45 hPa
2021-05-15 18:31:27 12.13 ℃ 100 % 1004.47 hPa
2021-05-15 18:21:27 12.69 ℃ 100 % 1004.48 hPa
2021-05-15 18:11:27 13.32 ℃ 99.99 % 1004.39 hPa
2021-05-15 18:01:27 13.5 ℃ 99.99 % 1004.33 hPa
2021-05-15 17:51:30 13.11 ℃ 99.97 % 1004.26 hPa
2021-05-15 17:41:27 13.5 ℃ 99.94 % 1004.24 hPa
2021-05-15 17:31:27 13.74 ℃ 99.88 % 1004.33 hPa
2021-05-15 17:21:27 14 ℃ 99.76 % 1004.37 hPa
2021-05-15 17:11:27 14.23 ℃ 99.53 % 1004.41 hPa
2021-05-15 17:01:27 14.61 ℃ 99.05 % 1004.42 hPa
2021-05-15 16:51:27 14.62 ℃ 98.11 % 1004.53 hPa
2021-05-15 16:41:27 14.51 ℃ 96.22 % 1004.66 hPa
2021-05-15 16:31:28 15.05 ℃ 92.43 % 1004.76 hPa
2021-05-15 16:21:27 15.89 ℃ 84.86 % 1004.8 hPa
2021-05-15 16:11:27 17.07 ℃ 74.58 % 1004.85 hPa
2021-05-15 16:01:27 17.42 ℃ 72.28 % 1004.94 hPa
2021-05-15 15:51:27 17.63 ℃ 71.75 % 1005 hPa
2021-05-15 15:41:30 16.97 ℃ 77.79 % 1005.06 hPa
2021-05-15 15:31:27 16.52 ℃ 82.85 % 1005.12 hPa
2021-05-15 15:21:28 16.39 ℃ 78.5 % 1005.22 hPa
2021-05-15 15:11:27 16.63 ℃ 77.51 % 1005.25 hPa
2021-05-15 15:01:30 16.51 ℃ 81.97 % 1005.33 hPa
2021-05-15 14:51:27 16.59 ℃ 84.21 % 1005.4 hPa
2021-05-15 14:41:27 16.51 ℃ 86.57 % 1005.53 hPa
2021-05-15 14:31:28 16.26 ℃ 88.46 % 1005.61 hPa
2021-05-15 14:21:28 16.1 ℃ 89.43 % 1005.71 hPa
2021-05-15 14:11:28 16 ℃ 90.38 % 1005.77 hPa
2021-05-15 14:01:28 15.87 ℃ 91.01 % 1005.83 hPa
2021-05-15 13:51:28 15.84 ℃ 90.79 % 1005.86 hPa
2021-05-15 13:41:28 15.57 ℃ 92.08 % 1005.95 hPa
2021-05-15 13:31:28 15.02 ℃ 95.68 % 1006.04 hPa
2021-05-15 13:21:28 14.8 ℃ 94.68 % 1006.16 hPa
2021-05-15 13:11:28 14.55 ℃ 96.08 % 1006.35 hPa
2021-05-15 13:01:28 14.38 ℃ 95.93 % 1006.44 hPa
2021-05-15 12:51:28 13.83 ℃ 98.81 % 1006.57 hPa
2021-05-15 12:41:28 13.68 ℃ 98.4 % 1006.66 hPa
2021-05-15 12:31:28 13.15 ℃ 100 % 1006.7 hPa
2021-05-15 12:21:28 12.85 ℃ 100 % 1006.74 hPa
2021-05-15 12:11:28 12.77 ℃ 100 % 1006.79 hPa
2021-05-15 12:01:28 12.68 ℃ 100 % 1006.86 hPa
2021-05-15 11:51:28 12.66 ℃ 100 % 1006.9 hPa
2021-05-15 11:41:28 12.6 ℃ 100 % 1006.9 hPa
2021-05-15 11:31:28 12.45 ℃ 100 % 1006.88 hPa
2021-05-15 11:21:35 12.38 ℃ 100 % 1006.86 hPa
2021-05-15 11:11:28 12.23 ℃ 100 % 1006.91 hPa
2021-05-15 11:01:28 12.03 ℃ 100 % 1006.98 hPa
2021-05-15 10:51:28 11.54 ℃ 100 % 1007.04 hPa
2021-05-15 10:41:28 11.29 ℃ 100 % 1007.13 hPa
2021-05-15 10:31:28 11.03 ℃ 100 % 1007.16 hPa
2021-05-15 10:21:28 10.97 ℃ 100 % 1007.13 hPa
2021-05-15 10:11:28 10.92 ℃ 100 % 1007.09 hPa
2021-05-15 10:01:28 10.91 ℃ 100 % 1007.08 hPa
2021-05-15 09:51:28 10.86 ℃ 100 % 1007.06 hPa
2021-05-15 09:41:28 10.78 ℃ 100 % 1007.09 hPa
2021-05-15 09:31:28 10.64 ℃ 100 % 1007.13 hPa
2021-05-15 09:21:28 10.75 ℃ 100 % 1007.13 hPa
2021-05-15 09:11:28 10.57 ℃ 100 % 1007.1 hPa
2021-05-15 09:01:28 10.44 ℃ 100 % 1007.06 hPa
2021-05-15 08:51:28 10.4 ℃ 100 % 1007.03 hPa
2021-05-15 08:41:28 10.41 ℃ 100 % 1007.01 hPa
2021-05-15 08:31:28 10.33 ℃ 100 % 1007.01 hPa
2021-05-15 08:21:28 10.37 ℃ 100 % 1007 hPa
2021-05-15 08:11:28 10.47 ℃ 100 % 1006.97 hPa
2021-05-15 08:01:28 10.57 ℃ 100 % 1006.97 hPa
2021-05-15 07:51:28 10.84 ℃ 100 % 1006.91 hPa
2021-05-15 07:41:28 10.54 ℃ 100 % 1006.89 hPa
2021-05-15 07:31:28 10.43 ℃ 100 % 1006.85 hPa
2021-05-15 07:21:28 10.12 ℃ 100 % 1006.86 hPa
2021-05-15 07:11:28 9.96 ℃ 100 % 1006.88 hPa
2021-05-15 07:01:28 10.41 ℃ 100 % 1006.85 hPa
2021-05-15 06:51:28 10.51 ℃ 100 % 1006.86 hPa
2021-05-15 06:41:28 10.39 ℃ 100 % 1006.84 hPa
2021-05-15 06:31:28 10.03 ℃ 100 % 1006.87 hPa
2021-05-15 06:21:28 10.1 ℃ 100 % 1006.86 hPa
2021-05-15 06:11:28 10.13 ℃ 100 % 1006.85 hPa
2021-05-15 06:01:28 9.64 ℃ 100 % 1006.85 hPa
2021-05-15 05:51:29 9.49 ℃ 100 % 1006.89 hPa
2021-05-15 05:41:28 9.53 ℃ 100 % 1006.9 hPa
2021-05-15 05:31:28 9.43 ℃ 100 % 1006.88 hPa
2021-05-15 05:21:28 9.42 ℃ 100 % 1006.91 hPa
2021-05-15 05:11:28 9.42 ℃ 100 % 1006.89 hPa
2021-05-15 05:01:28 9.41 ℃ 100 % 1006.93 hPa
2021-05-15 04:51:28 9.4 ℃ 100 % 1007.03 hPa
2021-05-15 04:41:29 9.45 ℃ 100 % 1007.08 hPa
2021-05-15 04:31:29 9.54 ℃ 100 % 1007.14 hPa
2021-05-15 04:21:29 9.4 ℃ 100 % 1007.2 hPa
2021-05-15 04:11:29 9.43 ℃ 100 % 1007.26 hPa
2021-05-15 04:01:29 9.45 ℃ 100 % 1007.35 hPa
2021-05-15 03:51:29 9.39 ℃ 100 % 1007.36 hPa
2021-05-15 03:41:29 9.5 ℃ 100 % 1007.39 hPa
2021-05-15 03:31:29 9.5 ℃ 100 % 1007.43 hPa
2021-05-15 03:21:29 9.39 ℃ 100 % 1007.43 hPa
2021-05-15 03:11:29 9.38 ℃ 100 % 1007.38 hPa
2021-05-15 03:01:29 9.43 ℃ 100 % 1007.36 hPa
2021-05-15 02:51:29 9.3 ℃ 100 % 1007.37 hPa
2021-05-15 02:41:29 9.29 ℃ 100 % 1007.38 hPa
2021-05-15 02:31:29 9.23 ℃ 100 % 1007.41 hPa
2021-05-15 02:21:29 9.22 ℃ 100 % 1007.4 hPa
2021-05-15 02:11:31 9.35 ℃ 100 % 1007.41 hPa
2021-05-15 02:01:29 9.51 ℃ 100 % 1007.38 hPa
2021-05-15 01:51:29 9.47 ℃ 100 % 1007.38 hPa
2021-05-15 01:41:29 9.43 ℃ 100 % 1007.42 hPa
2021-05-15 01:31:29 9.56 ℃ 100 % 1007.42 hPa
2021-05-15 01:21:29 9.59 ℃ 100 % 1007.42 hPa
2021-05-15 01:11:29 9.45 ℃ 100 % 1007.4 hPa
2021-05-15 01:01:29 9.45 ℃ 100 % 1007.43 hPa
2021-05-15 00:51:29 9.43 ℃ 100 % 1007.46 hPa
2021-05-15 00:41:29 9.38 ℃ 100 % 1007.49 hPa
2021-05-15 00:31:29 9.35 ℃ 100 % 1007.51 hPa
2021-05-15 00:21:29 9.42 ℃ 100 % 1007.55 hPa
2021-05-15 00:11:29 9.53 ℃ 100 % 1007.61 hPa
2021-05-15 00:01:29 9.64 ℃ 100 % 1007.61 hPa
2021-05-14 23:51:29 9.69 ℃ 100 % 1007.64 hPa
2021-05-14 23:41:29 9.65 ℃ 100 % 1007.71 hPa
2021-05-14 23:31:29 9.73 ℃ 100 % 1007.75 hPa
2021-05-14 23:21:29 9.76 ℃ 100 % 1007.77 hPa
2021-05-14 23:11:29 9.8 ℃ 100 % 1007.75 hPa
2021-05-14 23:01:29 9.87 ℃ 100 % 1007.75 hPa
2021-05-14 22:51:29 9.88 ℃ 100 % 1007.7 hPa
2021-05-14 22:41:29 9.97 ℃ 100 % 1007.65 hPa
2021-05-14 22:31:29 9.94 ℃ 100 % 1007.64 hPa
2021-05-14 22:21:32 9.9 ℃ 100 % 1007.59 hPa
2021-05-14 22:11:29 9.88 ℃ 100 % 1007.56 hPa
2021-05-14 22:01:29 10.01 ℃ 100 % 1007.57 hPa
2021-05-14 21:51:29 9.99 ℃ 100 % 1007.56 hPa
2021-05-14 21:41:29 10.04 ℃ 100 % 1007.53 hPa
2021-05-14 21:31:29 10.09 ℃ 100 % 1007.47 hPa
2021-05-14 21:21:29 10.05 ℃ 100 % 1007.42 hPa
2021-05-14 21:11:29 10.06 ℃ 100 % 1007.37 hPa
2021-05-14 21:01:29 9.94 ℃ 100 % 1007.36 hPa
2021-05-14 20:51:29 10.02 ℃ 100 % 1007.31 hPa
2021-05-14 20:41:29 10.04 ℃ 100 % 1007.27 hPa
2021-05-14 20:31:29 10.06 ℃ 100 % 1007.27 hPa
2021-05-14 20:21:29 10.12 ℃ 100 % 1007.27 hPa
2021-05-14 20:11:29 10.18 ℃ 100 % 1007.23 hPa
2021-05-14 20:01:29 10.21 ℃ 100 % 1007.24 hPa
2021-05-14 19:51:29 10.24 ℃ 100 % 1007.21 hPa
2021-05-14 19:41:29 10.22 ℃ 100 % 1007.25 hPa
2021-05-14 19:31:29 10.33 ℃ 100 % 1007.22 hPa
2021-05-14 19:21:29 10.41 ℃ 100 % 1007.24 hPa
2021-05-14 19:11:29 10.46 ℃ 100 % 1007.3 hPa
2021-05-14 19:01:29 10.58 ℃ 100 % 1007.32 hPa
2021-05-14 18:51:29 10.63 ℃ 100 % 1007.31 hPa
2021-05-14 18:41:29 10.61 ℃ 100 % 1007.34 hPa
2021-05-14 18:31:29 10.64 ℃ 100 % 1007.33 hPa
2021-05-14 18:21:29 10.76 ℃ 100 % 1007.35 hPa
2021-05-14 18:11:30 10.78 ℃ 100 % 1007.38 hPa
2021-05-14 18:01:29 10.92 ℃ 100 % 1007.42 hPa
2021-05-14 17:51:32 10.96 ℃ 100 % 1007.45 hPa
2021-05-14 17:41:29 11.14 ℃ 100 % 1007.49 hPa
2021-05-14 17:31:30 11.09 ℃ 100 % 1007.46 hPa
2021-05-14 17:21:29 11.14 ℃ 100 % 1007.43 hPa
2021-05-14 17:11:30 11.12 ℃ 100 % 1007.37 hPa
2021-05-14 17:01:30 11.26 ℃ 100 % 1007.37 hPa
2021-05-14 16:51:30 11.32 ℃ 100 % 1007.31 hPa
2021-05-14 16:41:30 11.43 ℃ 100 % 1007.29 hPa
2021-05-14 16:31:30 11.47 ℃ 100 % 1007.27 hPa
2021-05-14 16:21:30 11.48 ℃ 100 % 1007.26 hPa
2021-05-14 16:11:30 11.55 ℃ 100 % 1007.23 hPa
2021-05-14 16:01:30 11.54 ℃ 100 % 1007.26 hPa
2021-05-14 15:51:30 11.59 ℃ 100 % 1007.23 hPa
2021-05-14 15:41:30 11.6 ℃ 100 % 1007.14 hPa
2021-05-14 15:31:30 11.62 ℃ 100 % 1007.14 hPa
2021-05-14 15:21:30 11.78 ℃ 100 % 1007.12 hPa
2021-05-14 15:11:30 11.66 ℃ 100 % 1007.03 hPa
2021-05-14 15:01:30 11.83 ℃ 100 % 1006.94 hPa
2021-05-14 14:51:30 12.03 ℃ 100 % 1006.84 hPa
2021-05-14 14:41:30 11.92 ℃ 100 % 1006.79 hPa
2021-05-14 14:31:30 11.83 ℃ 100 % 1006.71 hPa
2021-05-14 14:21:30 11.93 ℃ 100 % 1006.6 hPa
2021-05-14 14:11:30 12.07 ℃ 100 % 1006.52 hPa
2021-05-14 14:01:30 12.12 ℃ 100 % 1006.51 hPa
2021-05-14 13:51:30 12.25 ℃ 100 % 1006.52 hPa
2021-05-14 13:41:30 12.07 ℃ 100 % 1006.57 hPa
2021-05-14 13:31:30 11.92 ℃ 100 % 1006.57 hPa
2021-05-14 13:21:30 11.9 ℃ 100 % 1006.5 hPa
2021-05-14 13:11:30 11.9 ℃ 100 % 1006.38 hPa
2021-05-14 13:01:30 12.15 ℃ 100 % 1006.28 hPa
2021-05-14 12:51:30 12.26 ℃ 100 % 1006.27 hPa
2021-05-14 12:41:30 12.37 ℃ 100 % 1006.21 hPa
2021-05-14 12:31:30 12.62 ℃ 100 % 1006.14 hPa
2021-05-14 12:21:30 12.6 ℃ 100 % 1006.06 hPa
2021-05-14 12:11:30 12.5 ℃ 100 % 1006.15 hPa
2021-05-14 12:01:30 12.34 ℃ 100 % 1006.15 hPa
2021-05-14 11:51:30 12.36 ℃ 100 % 1006.15 hPa
2021-05-14 11:41:30 12.06 ℃ 100 % 1006.14 hPa
2021-05-14 11:31:30 12.1 ℃ 100 % 1006.15 hPa
2021-05-14 11:21:30 11.93 ℃ 100 % 1006.13 hPa
2021-05-14 11:11:30 11.68 ℃ 100 % 1006.07 hPa
2021-05-14 11:01:30 11.78 ℃ 100 % 1005.97 hPa
2021-05-14 10:51:30 11.68 ℃ 100 % 1005.96 hPa
2021-05-14 10:41:30 11.52 ℃ 100 % 1005.92 hPa
2021-05-14 10:31:30 11.47 ℃ 100 % 1005.91 hPa
2021-05-14 10:21:30 11.43 ℃ 100 % 1005.95 hPa
2021-05-14 10:11:30 11.39 ℃ 100 % 1006 hPa
2021-05-14 10:01:30 11.39 ℃ 100 % 1005.97 hPa
2021-05-14 09:51:31 11.4 ℃ 100 % 1005.93 hPa
2021-05-14 09:41:30 11.45 ℃ 100 % 1005.84 hPa
2021-05-14 09:31:30 11.33 ℃ 100 % 1005.78 hPa
2021-05-14 09:21:30 11.44 ℃ 100 % 1005.74 hPa
2021-05-14 09:11:30 11.45 ℃ 100 % 1005.68 hPa
2021-05-14 09:01:30 11.43 ℃ 100 % 1005.67 hPa
2021-05-14 08:51:30 11.29 ℃ 100 % 1005.64 hPa
2021-05-14 08:41:30 11.25 ℃ 100 % 1005.6 hPa
2021-05-14 08:31:30 11.14 ℃ 100 % 1005.57 hPa
2021-05-14 08:21:30 11.08 ℃ 100 % 1005.51 hPa
2021-05-14 08:11:30 10.94 ℃ 100 % 1005.47 hPa
2021-05-14 08:01:30 10.82 ℃ 100 % 1005.45 hPa
2021-05-14 07:51:30 10.8 ℃ 100 % 1005.46 hPa
2021-05-14 07:41:30 10.8 ℃ 100 % 1005.47 hPa
2021-05-14 07:31:30 10.87 ℃ 100 % 1005.41 hPa
2021-05-14 07:21:30 10.91 ℃ 100 % 1005.38 hPa
2021-05-14 07:11:30 11.06 ℃ 100 % 1005.37 hPa
2021-05-14 07:01:30 10.86 ℃ 100 % 1005.35 hPa
2021-05-14 06:51:31 10.59 ℃ 100 % 1005.34 hPa
2021-05-14 06:41:30 10.7 ℃ 100 % 1005.32 hPa
2021-05-14 06:31:31 10.64 ℃ 100 % 1005.36 hPa
2021-05-14 06:21:31 10.35 ℃ 100 % 1005.37 hPa
2021-05-14 06:11:31 10.41 ℃ 100 % 1005.4 hPa
2021-05-14 06:01:31 10.4 ℃ 100 % 1005.36 hPa
2021-05-14 05:51:31 10.38 ℃ 100 % 1005.35 hPa
2021-05-14 05:41:31 10.38 ℃ 100 % 1005.37 hPa
2021-05-14 05:31:31 10.4 ℃ 100 % 1005.43 hPa
2021-05-14 05:21:31 10.5 ℃ 100 % 1005.54 hPa
2021-05-14 05:11:31 10.72 ℃ 100 % 1005.53 hPa
2021-05-14 05:01:31 10.65 ℃ 100 % 1005.54 hPa
2021-05-14 04:51:31 10.63 ℃ 100 % 1005.59 hPa
2021-05-14 04:41:31 10.55 ℃ 100 % 1005.63 hPa
2021-05-14 04:31:31 10.64 ℃ 100 % 1005.64 hPa
2021-05-14 04:21:31 10.67 ℃ 100 % 1005.65 hPa
2021-05-14 04:11:31 10.7 ℃ 100 % 1005.73 hPa
2021-05-14 04:01:31 10.85 ℃ 100 % 1005.81 hPa
2021-05-14 03:51:31 10.8 ℃ 100 % 1005.86 hPa
2021-05-14 03:41:31 10.74 ℃ 100 % 1005.89 hPa
2021-05-14 03:31:31 10.53 ℃ 100 % 1005.86 hPa
2021-05-14 03:21:31 10.47 ℃ 100 % 1005.89 hPa
2021-05-14 03:11:31 10.23 ℃ 100 % 1006 hPa
2021-05-14 03:01:31 10.32 ℃ 100 % 1006.08 hPa
2021-05-14 02:51:31 10.18 ℃ 100 % 1006.13 hPa
2021-05-14 02:41:31 10.13 ℃ 100 % 1006.11 hPa
2021-05-14 02:31:31 10.14 ℃ 100 % 1006.16 hPa
2021-05-14 02:21:31 10.3 ℃ 100 % 1006.14 hPa
2021-05-14 02:11:31 10.44 ℃ 100 % 1006.17 hPa
2021-05-14 02:01:31 10.53 ℃ 100 % 1006.23 hPa
2021-05-14 01:51:33 10.53 ℃ 100 % 1006.31 hPa
2021-05-14 01:41:31 10.68 ℃ 100 % 1006.38 hPa
2021-05-14 01:31:31 10.66 ℃ 100 % 1006.45 hPa
2021-05-14 01:21:31 10.77 ℃ 100 % 1006.49 hPa
2021-05-14 01:11:31 10.82 ℃ 100 % 1006.56 hPa
2021-05-14 01:01:32 10.86 ℃ 100 % 1006.58 hPa
2021-05-14 00:51:31 10.84 ℃ 100 % 1006.6 hPa
2021-05-14 00:41:31 10.75 ℃ 100 % 1006.64 hPa
2021-05-14 00:31:31 10.88 ℃ 100 % 1006.67 hPa
2021-05-14 00:21:31 11.05 ℃ 100 % 1006.69 hPa
2021-05-14 00:11:31 11.26 ℃ 100 % 1006.7 hPa
2021-05-14 00:01:31 11.55 ℃ 100 % 1006.71 hPa
2021-05-13 23:51:31 12.16 ℃ 100 % 1006.74 hPa
2021-05-13 23:41:31 12.58 ℃ 100 % 1006.78 hPa
2021-05-13 23:31:31 12.65 ℃ 100 % 1006.76 hPa
2021-05-13 23:21:32 12.73 ℃ 100 % 1006.76 hPa
2021-05-13 23:11:31 12.75 ℃ 100 % 1006.76 hPa
2021-05-13 23:01:31 12.94 ℃ 100 % 1006.78 hPa
2021-05-13 22:51:32 12.66 ℃ 100 % 1006.82 hPa
2021-05-13 22:41:31 12.61 ℃ 100 % 1006.84 hPa
2021-05-13 22:31:31 12.66 ℃ 100 % 1006.86 hPa
2021-05-13 22:21:31 12.63 ℃ 100 % 1006.84 hPa
2021-05-13 22:11:31 12.78 ℃ 100 % 1006.83 hPa
2021-05-13 22:01:31 12.63 ℃ 100 % 1006.85 hPa
2021-05-13 21:51:31 12.24 ℃ 100 % 1006.85 hPa
2021-05-13 21:41:31 12.17 ℃ 100 % 1006.82 hPa
2021-05-13 21:31:31 12.35 ℃ 100 % 1006.8 hPa
2021-05-13 21:21:31 12.38 ℃ 100 % 1006.74 hPa
2021-05-13 21:11:31 12.19 ℃ 100 % 1006.73 hPa
2021-05-13 21:01:31 12.5 ℃ 100 % 1006.75 hPa
2021-05-13 20:51:31 12.65 ℃ 100 % 1006.78 hPa
2021-05-13 20:41:31 12.9 ℃ 100 % 1006.81 hPa
2021-05-13 20:31:32 13.04 ℃ 100 % 1006.87 hPa
2021-05-13 20:21:32 12.95 ℃ 100 % 1006.92 hPa
2021-05-13 20:11:31 13.29 ℃ 100 % 1006.9 hPa
2021-05-13 20:01:31 13.39 ℃ 100 % 1006.88 hPa
2021-05-13 19:51:32 13.45 ℃ 100 % 1006.89 hPa
2021-05-13 19:41:31 13.38 ℃ 100 % 1006.8 hPa
2021-05-13 19:31:32 13.35 ℃ 100 % 1006.77 hPa
2021-05-13 19:21:32 12.74 ℃ 100 % 1006.74 hPa
2021-05-13 19:11:32 12.46 ℃ 100 % 1006.76 hPa
2021-05-13 19:01:32 12.09 ℃ 100 % 1006.73 hPa
2021-05-13 18:51:32 12.22 ℃ 100 % 1006.79 hPa
2021-05-13 18:41:32 12.35 ℃ 100 % 1006.87 hPa
2021-05-13 18:31:32 12.62 ℃ 100 % 1006.94 hPa
2021-05-13 18:21:32 12.98 ℃ 100 % 1007 hPa
2021-05-13 18:11:32 13.37 ℃ 100 % 1007.07 hPa
2021-05-13 18:01:32 13.13 ℃ 100 % 1007.14 hPa
2021-05-13 17:51:32 13.09 ℃ 100 % 1007.22 hPa
2021-05-13 17:41:32 13.27 ℃ 100 % 1007.34 hPa
2021-05-13 17:31:32 12.95 ℃ 100 % 1007.43 hPa
2021-05-13 17:21:32 13.04 ℃ 100 % 1007.55 hPa
2021-05-13 17:11:32 13.57 ℃ 100 % 1007.64 hPa
2021-05-13 17:01:32 14.01 ℃ 100 % 1007.76 hPa
2021-05-13 16:51:32 14.3 ℃ 100 % 1007.85 hPa
2021-05-13 16:41:32 14.24 ℃ 100 % 1007.96 hPa
2021-05-13 16:31:32 14.1 ℃ 100 % 1007.95 hPa
2021-05-13 16:21:32 13.47 ℃ 100 % 1007.87 hPa
2021-05-13 16:11:32 13.48 ℃ 100 % 1007.82 hPa
2021-05-13 16:01:32 13.24 ℃ 100 % 1007.87 hPa
2021-05-13 15:51:32 12.8 ℃ 100 % 1007.94 hPa
2021-05-13 15:41:32 12.41 ℃ 100 % 1007.97 hPa
2021-05-13 15:31:32 12.39 ℃ 100 % 1007.99 hPa
2021-05-13 15:21:32 12.27 ℃ 100 % 1008.08 hPa
2021-05-13 15:11:32 12.34 ℃ 100 % 1008.13 hPa
2021-05-13 15:01:32 12.42 ℃ 100 % 1008.21 hPa
2021-05-13 14:51:32 12.38 ℃ 100 % 1008.2 hPa
2021-05-13 14:41:32 12.37 ℃ 100 % 1008.21 hPa
2021-05-13 14:31:32 12.26 ℃ 100 % 1008.18 hPa
2021-05-13 14:21:32 12.39 ℃ 100 % 1008.16 hPa
2021-05-13 14:11:32 12.49 ℃ 100 % 1008.2 hPa
2021-05-13 14:01:32 12.6 ℃ 100 % 1008.24 hPa
2021-05-13 13:51:32 12.62 ℃ 100 % 1008.29 hPa
2021-05-13 13:41:32 12.39 ℃ 100 % 1008.32 hPa
2021-05-13 13:31:32 12.39 ℃ 100 % 1008.31 hPa
2021-05-13 13:21:32 12.36 ℃ 100 % 1008.29 hPa
2021-05-13 13:11:32 12.4 ℃ 100 % 1008.26 hPa
2021-05-13 13:01:32 12.56 ℃ 100 % 1008.32 hPa
2021-05-13 12:51:32 12.54 ℃ 100 % 1008.34 hPa
2021-05-13 12:41:32 12.58 ℃ 100 % 1008.37 hPa
2021-05-13 12:31:32 12.59 ℃ 100 % 1008.39 hPa
2021-05-13 12:21:32 12.43 ℃ 100 % 1008.42 hPa
2021-05-13 12:11:32 12.47 ℃ 100 % 1008.41 hPa
2021-05-13 12:01:32 12.31 ℃ 100 % 1008.51 hPa
2021-05-13 11:51:32 12.23 ℃ 100 % 1008.56 hPa
2021-05-13 11:41:32 12.16 ℃ 100 % 1008.61 hPa
2021-05-13 11:31:32 12.25 ℃ 100 % 1008.66 hPa
2021-05-13 11:21:32 12.21 ℃ 100 % 1008.77 hPa
2021-05-13 11:11:32 12.24 ℃ 100 % 1008.8 hPa
2021-05-13 11:01:32 12.37 ℃ 100 % 1008.87 hPa
2021-05-13 10:51:32 12.32 ℃ 100 % 1008.87 hPa
2021-05-13 10:41:32 12.22 ℃ 100 % 1008.78 hPa
2021-05-13 10:31:32 12.21 ℃ 100 % 1008.72 hPa
2021-05-13 10:21:32 12.06 ℃ 100 % 1008.66 hPa
2021-05-13 10:11:32 12.07 ℃ 100 % 1008.63 hPa
2021-05-13 10:01:32 12.26 ℃ 100 % 1008.62 hPa
2021-05-13 09:51:32 12.24 ℃ 100 % 1008.65 hPa
2021-05-13 09:41:32 12.39 ℃ 100 % 1008.81 hPa
2021-05-13 09:31:32 12.55 ℃ 100 % 1008.91 hPa
2021-05-13 09:21:32 12.41 ℃ 100 % 1008.99 hPa
2021-05-13 09:11:32 12.44 ℃ 100 % 1009.05 hPa
2021-05-13 09:01:32 12.13 ℃ 100 % 1009.11 hPa
2021-05-13 08:51:33 12 ℃ 100 % 1009.11 hPa
2021-05-13 08:41:33 11.5 ℃ 100 % 1009.09 hPa
2021-05-13 08:31:33 11.5 ℃ 100 % 1009.1 hPa
2021-05-13 08:21:33 11.58 ℃ 100 % 1009.19 hPa
2021-05-13 08:11:33 11.68 ℃ 100 % 1009.24 hPa
2021-05-13 08:01:33 11.6 ℃ 100 % 1009.3 hPa
2021-05-13 07:51:33 11.63 ℃ 100 % 1009.34 hPa
2021-05-13 07:41:33 11.65 ℃ 100 % 1009.39 hPa
2021-05-13 07:31:33 11.79 ℃ 100 % 1009.4 hPa
2021-05-13 07:21:33 11.58 ℃ 100 % 1009.46 hPa
2021-05-13 07:11:33 11.51 ℃ 100 % 1009.51 hPa
2021-05-13 07:01:33 11.58 ℃ 100 % 1009.58 hPa
2021-05-13 06:51:33 11.61 ℃ 100 % 1009.55 hPa
2021-05-13 06:41:33 11.54 ℃ 100 % 1009.59 hPa
2021-05-13 06:31:33 11.55 ℃ 100 % 1009.61 hPa
2021-05-13 06:21:33 11.5 ℃ 100 % 1009.68 hPa
2021-05-13 06:11:33 11.56 ℃ 100 % 1009.84 hPa
2021-05-13 06:01:33 11.62 ℃ 100 % 1010 hPa
2021-05-13 05:51:33 11.73 ℃ 100 % 1010.02 hPa
2021-05-13 05:41:33 12.02 ℃ 100 % 1010.06 hPa
2021-05-13 05:31:33 12.34 ℃ 100 % 1010.14 hPa
2021-05-13 05:21:33 12.37 ℃ 100 % 1010.2 hPa
2021-05-13 05:11:33 12.48 ℃ 100 % 1010.21 hPa
2021-05-13 05:01:33 12.46 ℃ 100 % 1010.27 hPa
2021-05-13 04:51:33 12.25 ℃ 100 % 1010.36 hPa
2021-05-13 04:41:33 12.08 ℃ 100 % 1010.39 hPa
2021-05-13 04:31:33 12.4 ℃ 100 % 1010.42 hPa
2021-05-13 04:21:33 12.23 ℃ 100 % 1010.41 hPa
2021-05-13 04:11:33 12.21 ℃ 100 % 1010.45 hPa
2021-05-13 04:01:33 12.27 ℃ 100 % 1010.53 hPa
2021-05-13 03:51:33 12.4 ℃ 100 % 1010.52 hPa
2021-05-13 03:41:33 12.34 ℃ 100 % 1010.53 hPa
2021-05-13 03:31:33 12.34 ℃ 100 % 1010.54 hPa
2021-05-13 03:21:33 12.27 ℃ 100 % 1010.51 hPa
2021-05-13 03:11:33 12.04 ℃ 100 % 1010.43 hPa
2021-05-13 03:01:33 12.01 ℃ 100 % 1010.47 hPa
2021-05-13 02:51:33 11.93 ℃ 100 % 1010.55 hPa
2021-05-13 02:41:33 11.9 ℃ 100 % 1010.63 hPa
2021-05-13 02:31:33 11.92 ℃ 100 % 1010.69 hPa
2021-05-13 02:21:33 12.19 ℃ 100 % 1010.73 hPa
2021-05-13 02:11:33 12.14 ℃ 100 % 1010.75 hPa
2021-05-13 02:01:33 12.11 ℃ 100 % 1010.73 hPa
2021-05-13 01:51:33 11.9 ℃ 100 % 1010.76 hPa
2021-05-13 01:41:33 12.05 ℃ 100 % 1010.8 hPa
2021-05-13 01:31:33 12.19 ℃ 100 % 1010.83 hPa
2021-05-13 01:21:33 11.95 ℃ 100 % 1010.88 hPa
2021-05-13 01:11:33 12.01 ℃ 100 % 1010.94 hPa
2021-05-13 01:01:33 11.98 ℃ 100 % 1010.98 hPa
2021-05-13 00:51:33 11.93 ℃ 100 % 1011 hPa
2021-05-13 00:41:33 11.79 ℃ 100 % 1011.01 hPa
2021-05-13 00:31:33 11.82 ℃ 100 % 1011.09 hPa
2021-05-13 00:21:33 11.86 ℃ 100 % 1011.11 hPa
2021-05-13 00:11:33 11.9 ℃ 100 % 1011.18 hPa
2021-05-13 00:01:33 12.01 ℃ 100 % 1011.32 hPa
2021-05-12 23:51:33 12.26 ℃ 100 % 1011.38 hPa
2021-05-12 23:41:33 12.35 ℃ 100 % 1011.5 hPa
2021-05-12 23:31:33 12.45 ℃ 100 % 1011.56 hPa
2021-05-12 23:21:33 12.64 ℃ 100 % 1011.64 hPa
2021-05-12 23:11:33 12.74 ℃ 100 % 1011.74 hPa
2021-05-12 23:01:33 12.97 ℃ 100 % 1011.86 hPa
2021-05-12 22:51:33 12.96 ℃ 100 % 1011.92 hPa
2021-05-12 22:41:33 12.86 ℃ 100 % 1011.96 hPa
2021-05-12 22:31:33 12.94 ℃ 100 % 1012.03 hPa
2021-05-12 22:21:33 13.15 ℃ 100 % 1012.07 hPa
2021-05-12 22:11:33 13.34 ℃ 100 % 1012.09 hPa
2021-05-12 22:01:34 13.23 ℃ 100 % 1012.12 hPa
2021-05-12 21:51:34 13.28 ℃ 100 % 1012.12 hPa
2021-05-12 21:41:34 13.35 ℃ 100 % 1012.1 hPa
2021-05-12 21:31:34 13.61 ℃ 100 % 1012.08 hPa
2021-05-12 21:21:34 13.77 ℃ 100 % 1012.01 hPa
2021-05-12 21:11:34 13.81 ℃ 100 % 1011.95 hPa
2021-05-12 21:01:34 13.82 ℃ 100 % 1011.87 hPa
2021-05-12 20:51:34 13.96 ℃ 100 % 1011.78 hPa
2021-05-12 20:41:34 14.16 ℃ 100 % 1011.69 hPa
2021-05-12 20:31:34 14.49 ℃ 100 % 1011.61 hPa
2021-05-12 20:21:34 14.59 ℃ 100 % 1011.54 hPa
2021-05-12 20:11:34 14.72 ℃ 100 % 1011.43 hPa
2021-05-12 20:01:34 14.99 ℃ 99.99 % 1011.33 hPa
2021-05-12 19:51:34 15.01 ℃ 99.99 % 1011.24 hPa
2021-05-12 19:41:34 15.31 ℃ 99.98 % 1011.16 hPa
2021-05-12 19:31:34 15.61 ℃ 99.96 % 1011.07 hPa
2021-05-12 19:21:35 15.7 ℃ 99.92 % 1010.97 hPa
2021-05-12 19:11:34 15.56 ℃ 99.84 % 1010.92 hPa
2021-05-12 19:01:34 15.63 ℃ 99.67 % 1010.91 hPa
2021-05-12 18:51:34 15.99 ℃ 99.34 % 1010.91 hPa
2021-05-12 18:41:34 16.32 ℃ 98.69 % 1010.87 hPa
2021-05-12 18:31:34 16.59 ℃ 97.38 % 1010.82 hPa
2021-05-12 18:21:34 16.8 ℃ 94.76 % 1010.81 hPa
2021-05-12 18:11:34 17.15 ℃ 89.94 % 1010.84 hPa
2021-05-12 18:01:34 17.79 ℃ 84.76 % 1010.8 hPa
2021-05-12 17:51:34 17.88 ℃ 83.74 % 1010.72 hPa
2021-05-12 17:41:34 17.77 ℃ 84.66 % 1010.67 hPa
2021-05-12 17:31:34 17.95 ℃ 84.35 % 1010.62 hPa
2021-05-12 17:21:34 17.8 ℃ 84.41 % 1010.56 hPa
2021-05-12 17:11:34 18.01 ℃ 82.75 % 1010.53 hPa
2021-05-12 17:01:34 18.13 ℃ 81.23 % 1010.5 hPa
2021-05-12 16:51:34 18.22 ℃ 79.14 % 1010.5 hPa
2021-05-12 16:41:34 18.42 ℃ 76.69 % 1010.43 hPa
2021-05-12 16:31:34 18.13 ℃ 78.43 % 1010.3 hPa
2021-05-12 16:21:34 18.22 ℃ 79.81 % 1010.35 hPa
2021-05-12 16:11:34 18.13 ℃ 81.11 % 1010.36 hPa
2021-05-12 16:01:34 17.97 ℃ 82.14 % 1010.34 hPa
2021-05-12 15:51:35 18.12 ℃ 81.14 % 1010.29 hPa
2021-05-12 15:41:34 17.98 ℃ 82.35 % 1010.32 hPa
2021-05-12 15:31:34 17.76 ℃ 83.48 % 1010.27 hPa
2021-05-12 15:21:34 17.87 ℃ 80.8 % 1010.16 hPa
2021-05-12 15:11:34 18.29 ℃ 77.18 % 1010.07 hPa
2021-05-12 15:01:34 17.94 ℃ 77.97 % 1009.97 hPa
2021-05-12 14:51:34 18.13 ℃ 77.65 % 1009.88 hPa
2021-05-12 14:41:34 17.94 ℃ 77.99 % 1009.85 hPa
2021-05-12 14:31:34 17.9 ℃ 76.54 % 1009.83 hPa
2021-05-12 14:21:34 18.28 ℃ 74.37 % 1009.77 hPa
2021-05-12 14:11:34 18.41 ℃ 74.58 % 1009.72 hPa
2021-05-12 14:01:34 18.18 ℃ 76.94 % 1009.72 hPa
2021-05-12 13:51:34 18.18 ℃ 77.3 % 1009.66 hPa
2021-05-12 13:41:34 18.2 ℃ 79.46 % 1009.61 hPa
2021-05-12 13:31:34 18.23 ℃ 82.7 % 1009.6 hPa
2021-05-12 13:21:34 18.06 ℃ 84.08 % 1009.61 hPa
2021-05-12 13:11:34 18.08 ℃ 84.22 % 1009.63 hPa
2021-05-12 13:01:34 17.69 ℃ 86.73 % 1009.61 hPa
2021-05-12 12:51:34 17.78 ℃ 87.4 % 1009.6 hPa
2021-05-12 12:41:34 17.57 ℃ 90.64 % 1009.59 hPa
2021-05-12 12:31:34 17.49 ℃ 93.39 % 1009.54 hPa
2021-05-12 12:21:34 17.26 ℃ 96.53 % 1009.43 hPa
2021-05-12 12:11:34 17.03 ℃ 100 % 1009.34 hPa
2021-05-12 12:01:34 16.9 ℃ 100 % 1009.3 hPa
2021-05-12 11:51:35 16.51 ℃ 100 % 1009.29 hPa
2021-05-12 11:41:34 16.42 ℃ 100 % 1009.21 hPa
2021-05-12 11:31:34 16.43 ℃ 100 % 1009.18 hPa
2021-05-12 11:21:35 16.42 ℃ 100 % 1009.22 hPa
2021-05-12 11:11:35 16.31 ℃ 100 % 1009.19 hPa
2021-05-12 11:01:35 15.99 ℃ 100 % 1009.18 hPa
2021-05-12 10:51:35 15.7 ℃ 100 % 1009.14 hPa
2021-05-12 10:41:35 15.33 ℃ 100 % 1009.08 hPa
2021-05-12 10:31:35 15.2 ℃ 100 % 1009.09 hPa
2021-05-12 10:21:35 15.06 ℃ 100 % 1009.04 hPa
2021-05-12 10:11:35 14.78 ℃ 100 % 1009.06 hPa
2021-05-12 10:01:35 14.31 ℃ 100 % 1009.07 hPa
2021-05-12 09:51:35 13.83 ℃ 100 % 1009.09 hPa
2021-05-12 09:41:35 13.69 ℃ 100 % 1009.08 hPa
2021-05-12 09:31:35 13.61 ℃ 100 % 1008.99 hPa
2021-05-12 09:21:35 13.19 ℃ 100 % 1008.89 hPa
2021-05-12 09:11:35 13.27 ℃ 100 % 1008.82 hPa
2021-05-12 09:01:35 13.23 ℃ 100 % 1008.71 hPa
2021-05-12 08:51:35 13.13 ℃ 100 % 1008.55 hPa
2021-05-12 08:41:35 13.1 ℃ 100 % 1008.37 hPa
2021-05-12 08:31:35 13.1 ℃ 100 % 1008.3 hPa
2021-05-12 08:21:35 13 ℃ 100 % 1008.21 hPa
2021-05-12 08:11:35 12.67 ℃ 100 % 1008.18 hPa
2021-05-12 08:01:35 12.53 ℃ 100 % 1008.18 hPa
2021-05-12 07:51:35 12.51 ℃ 100 % 1008.04 hPa
2021-05-12 07:41:35 12.31 ℃ 100 % 1007.92 hPa
2021-05-12 07:31:35 12.08 ℃ 100 % 1007.79 hPa
2021-05-12 07:21:35 11.89 ℃ 100 % 1007.65 hPa
2021-05-12 07:11:35 11.88 ℃ 100 % 1007.59 hPa
2021-05-12 07:01:35 11.84 ℃ 100 % 1007.63 hPa
2021-05-12 06:51:35 11.9 ℃ 100 % 1007.64 hPa
2021-05-12 06:41:35 11.93 ℃ 100 % 1007.62 hPa
2021-05-12 06:31:35 11.9 ℃ 100 % 1007.61 hPa
2021-05-12 06:21:35 11.98 ℃ 100 % 1007.54 hPa
2021-05-12 06:11:35 11.96 ℃ 100 % 1007.42 hPa
2021-05-12 06:01:35 12.17 ℃ 100 % 1007.41 hPa
2021-05-12 05:51:35 12.28 ℃ 100 % 1007.37 hPa
2021-05-12 05:41:35 12.22 ℃ 100 % 1007.37 hPa
2021-05-12 05:31:35 12.18 ℃ 100 % 1007.46 hPa
2021-05-12 05:21:38 12.02 ℃ 100 % 1007.42 hPa
2021-05-12 05:11:35 12.1 ℃ 100 % 1007.36 hPa
2021-05-12 05:01:35 12.21 ℃ 100 % 1007.27 hPa
2021-05-12 04:51:35 12.07 ℃ 100 % 1007.22 hPa
2021-05-12 04:41:35 11.88 ℃ 100 % 1007.12 hPa
2021-05-12 04:31:35 11.94 ℃ 100 % 1007.14 hPa
2021-05-12 04:21:35 11.91 ℃ 100 % 1007.21 hPa
2021-05-12 04:11:35 11.95 ℃ 100 % 1007.27 hPa
2021-05-12 04:01:35 11.99 ℃ 100 % 1007.32 hPa
2021-05-12 03:51:35 11.92 ℃ 100 % 1007.38 hPa
2021-05-12 03:41:35 11.95 ℃ 100 % 1007.45 hPa
2021-05-12 03:31:35 11.89 ℃ 100 % 1007.48 hPa
2021-05-12 03:21:35 11.83 ℃ 100 % 1007.48 hPa
2021-05-12 03:11:35 11.71 ℃ 100 % 1007.45 hPa
2021-05-12 03:01:35 11.79 ℃ 100 % 1007.44 hPa
2021-05-12 02:51:35 11.84 ℃ 100 % 1007.37 hPa
2021-05-12 02:41:35 11.86 ℃ 100 % 1007.44 hPa
2021-05-12 02:31:35 11.77 ℃ 100 % 1007.54 hPa
2021-05-12 02:21:35 11.83 ℃ 100 % 1007.65 hPa
2021-05-12 02:11:35 11.95 ℃ 100 % 1007.68 hPa
2021-05-12 02:01:35 12.02 ℃ 100 % 1007.72 hPa
2021-05-12 01:51:35 12.17 ℃ 100 % 1007.73 hPa
2021-05-12 01:41:35 12.09 ℃ 100 % 1007.76 hPa
2021-05-12 01:31:35 12.11 ℃ 100 % 1007.81 hPa
2021-05-12 01:21:35 12.28 ℃ 100 % 1007.86 hPa
2021-05-12 01:11:35 12.15 ℃ 100 % 1007.91 hPa
2021-05-12 01:01:35 11.9 ℃ 100 % 1007.97 hPa
2021-05-12 00:51:35 11.91 ℃ 100 % 1008.04 hPa
2021-05-12 00:41:35 11.8 ℃ 100 % 1008.14 hPa
2021-05-12 00:31:35 11.8 ℃ 100 % 1008.25 hPa
2021-05-12 00:21:35 11.82 ℃ 100 % 1008.36 hPa
2021-05-12 00:11:35 11.85 ℃ 100 % 1008.41 hPa
2021-05-12 00:01:36 11.95 ℃ 100 % 1008.43 hPa
2021-05-11 23:51:36 11.97 ℃ 100 % 1008.5 hPa
2021-05-11 23:41:36 11.93 ℃ 100 % 1008.61 hPa
2021-05-11 23:31:36 12 ℃ 100 % 1008.72 hPa
2021-05-11 23:21:36 11.96 ℃ 100 % 1008.78 hPa
2021-05-11 23:11:36 12 ℃ 100 % 1008.81 hPa
2021-05-11 23:01:36 11.96 ℃ 100 % 1008.85 hPa
2021-05-11 22:51:36 11.97 ℃ 100 % 1008.91 hPa
2021-05-11 22:41:36 11.89 ℃ 100 % 1009.03 hPa
2021-05-11 22:31:36 11.89 ℃ 100 % 1009.02 hPa
2021-05-11 22:21:36 11.88 ℃ 100 % 1009.03 hPa
2021-05-11 22:11:36 11.86 ℃ 100 % 1009.06 hPa
2021-05-11 22:01:36 11.84 ℃ 100 % 1009.15 hPa
2021-05-11 21:51:36 11.94 ℃ 100 % 1009.2 hPa
2021-05-11 21:41:36 11.99 ℃ 100 % 1009.26 hPa
2021-05-11 21:31:36 12.08 ℃ 100 % 1009.25 hPa
2021-05-11 21:21:36 11.92 ℃ 100 % 1009.17 hPa
2021-05-11 21:11:36 11.87 ℃ 100 % 1009.05 hPa
2021-05-11 21:01:36 11.9 ℃ 100 % 1008.99 hPa
2021-05-11 20:51:36 11.93 ℃ 100 % 1008.97 hPa
2021-05-11 20:41:36 12.01 ℃ 100 % 1009.07 hPa
2021-05-11 20:31:36 12.08 ℃ 100 % 1009.26 hPa
2021-05-11 20:21:36 12.15 ℃ 100 % 1009.41 hPa
2021-05-11 20:11:36 12.31 ℃ 100 % 1009.51 hPa
2021-05-11 20:01:36 12.39 ℃ 100 % 1009.55 hPa
2021-05-11 19:51:36 12.54 ℃ 100 % 1009.61 hPa
2021-05-11 19:41:36 12.64 ℃ 100 % 1009.66 hPa
2021-05-11 19:31:36 12.8 ℃ 100 % 1009.74 hPa
2021-05-11 19:21:36 12.98 ℃ 100 % 1009.82 hPa
2021-05-11 19:11:36 13.05 ℃ 100 % 1009.73 hPa
2021-05-11 19:01:36 13.04 ℃ 100 % 1009.7 hPa
2021-05-11 18:51:36 13.12 ℃ 100 % 1009.81 hPa
2021-05-11 18:41:36 13.23 ℃ 100 % 1009.85 hPa
2021-05-11 18:31:36 13.42 ℃ 100 % 1009.89 hPa
2021-05-11 18:21:36 13.51 ℃ 100 % 1009.89 hPa
2021-05-11 18:11:36 13.25 ℃ 100 % 1009.92 hPa
2021-05-11 18:01:36 13.04 ℃ 100 % 1010.04 hPa
2021-05-11 17:51:36 13.06 ℃ 100 % 1010.14 hPa
2021-05-11 17:41:36 13.12 ℃ 100 % 1010.11 hPa
2021-05-11 17:31:36 13.27 ℃ 100 % 1010.13 hPa
2021-05-11 17:21:36 13.42 ℃ 100 % 1009.99 hPa
2021-05-11 17:11:36 13.37 ℃ 100 % 1009.95 hPa
2021-05-11 17:01:36 13.27 ℃ 100 % 1009.87 hPa
2021-05-11 16:51:36 13.39 ℃ 100 % 1009.68 hPa
2021-05-11 16:41:36 13.31 ℃ 100 % 1009.68 hPa
2021-05-11 16:31:36 13.47 ℃ 100 % 1009.82 hPa
2021-05-11 16:21:36 13.49 ℃ 100 % 1009.96 hPa
2021-05-11 16:11:36 13.61 ℃ 100 % 1010 hPa
2021-05-11 16:01:36 13.49 ℃ 100 % 1010.02 hPa
2021-05-11 15:51:36 13.28 ℃ 100 % 1010.06 hPa
2021-05-11 15:41:36 13.12 ℃ 100 % 1010.09 hPa
2021-05-11 15:31:36 12.91 ℃ 100 % 1010.31 hPa
2021-05-11 15:21:36 12.93 ℃ 100 % 1010.43 hPa
2021-05-11 15:11:36 12.86 ℃ 100 % 1010.49 hPa
2021-05-11 15:01:36 12.72 ℃ 100 % 1010.61 hPa
2021-05-11 14:51:36 12.89 ℃ 100 % 1010.89 hPa
2021-05-11 14:41:36 12.89 ℃ 100 % 1010.87 hPa
2021-05-11 14:31:36 12.96 ℃ 100 % 1010.88 hPa
2021-05-11 14:21:36 12.98 ℃ 100 % 1010.8 hPa
2021-05-11 14:11:36 13.03 ℃ 100 % 1010.69 hPa
2021-05-11 14:01:37 12.85 ℃ 100 % 1010.6 hPa
2021-05-11 13:51:36 12.76 ℃ 100 % 1010.57 hPa
2021-05-11 13:41:36 12.56 ℃ 100 % 1010.5 hPa
2021-05-11 13:31:37 12.31 ℃ 100 % 1010.4 hPa
2021-05-11 13:21:37 12.16 ℃ 100 % 1010.41 hPa
2021-05-11 13:11:37 12.35 ℃ 100 % 1010.59 hPa
2021-05-11 13:01:37 12.41 ℃ 100 % 1010.77 hPa
2021-05-11 12:51:37 12.21 ℃ 100 % 1010.79 hPa
2021-05-11 12:41:37 12.28 ℃ 100 % 1010.81 hPa
2021-05-11 12:31:37 12.4 ℃ 100 % 1010.84 hPa
2021-05-11 12:21:37 12.4 ℃ 100 % 1010.76 hPa
2021-05-11 12:11:37 12.44 ℃ 100 % 1010.94 hPa
2021-05-11 12:01:37 12.61 ℃ 100 % 1011.12 hPa
2021-05-11 11:51:37 12.7 ℃ 100 % 1011.19 hPa
2021-05-11 11:41:37 12.72 ℃ 100 % 1011.32 hPa
2021-05-11 11:31:37 12.66 ℃ 100 % 1011.6 hPa
2021-05-11 11:21:37 12.69 ℃ 100 % 1011.63 hPa
2021-05-11 11:11:37 12.69 ℃ 100 % 1011.73 hPa
2021-05-11 11:01:37 12.6 ℃ 100 % 1011.67 hPa
2021-05-11 10:51:37 12.44 ℃ 100 % 1011.72 hPa
2021-05-11 10:41:37 12.3 ℃ 100 % 1011.96 hPa
2021-05-11 10:31:37 12.4 ℃ 100 % 1012.1 hPa
2021-05-11 10:21:37 12.36 ℃ 100 % 1012.06 hPa
2021-05-11 10:11:37 12.34 ℃ 100 % 1012.14 hPa
2021-05-11 10:01:37 12.28 ℃ 100 % 1012.15 hPa
2021-05-11 09:51:37 12.17 ℃ 100 % 1012.25 hPa
2021-05-11 09:41:37 12.08 ℃ 100 % 1012.27 hPa
2021-05-11 09:31:37 12.01 ℃ 100 % 1012.26 hPa
2021-05-11 09:21:37 12 ℃ 100 % 1012.32 hPa
2021-05-11 09:11:37 11.9 ℃ 100 % 1012.4 hPa
2021-05-11 09:01:37 11.84 ℃ 100 % 1012.52 hPa
2021-05-11 08:51:37 11.92 ℃ 100 % 1012.66 hPa
2021-05-11 08:41:37 11.85 ℃ 100 % 1012.63 hPa
2021-05-11 08:31:37 11.9 ℃ 100 % 1012.59 hPa
2021-05-11 08:21:37 11.94 ℃ 100 % 1012.57 hPa
2021-05-11 08:11:37 11.96 ℃ 100 % 1012.5 hPa
2021-05-11 08:01:37 11.88 ℃ 100 % 1012.46 hPa
2021-05-11 07:51:37 11.86 ℃ 100 % 1012.41 hPa
2021-05-11 07:41:37 11.94 ℃ 100 % 1012.37 hPa
2021-05-11 07:31:37 11.93 ℃ 100 % 1012.2 hPa
2021-05-11 07:21:37 11.9 ℃ 100 % 1012.09 hPa
2021-05-11 07:11:37 11.77 ℃ 100 % 1011.95 hPa
2021-05-11 07:01:37 11.72 ℃ 100 % 1011.98 hPa
2021-05-11 06:51:37 11.83 ℃ 100 % 1012.12 hPa
2021-05-11 06:41:37 11.88 ℃ 100 % 1012.24 hPa
2021-05-11 06:31:37 12.09 ℃ 100 % 1012.27 hPa
2021-05-11 06:21:37 11.79 ℃ 100 % 1011.94 hPa
2021-05-11 06:11:37 11.72 ℃ 100 % 1011.92 hPa
2021-05-11 06:01:37 11.78 ℃ 100 % 1012.03 hPa
2021-05-11 05:51:37 11.82 ℃ 100 % 1012.16 hPa
2021-05-11 05:41:37 11.82 ℃ 100 % 1012.31 hPa
2021-05-11 05:31:37 11.99 ℃ 100 % 1012.3 hPa
2021-05-11 05:21:37 12.11 ℃ 100 % 1012.37 hPa
2021-05-11 05:11:37 12.23 ℃ 100 % 1012.39 hPa
2021-05-11 05:01:37 12.29 ℃ 100 % 1012.45 hPa
2021-05-11 04:51:37 12.2 ℃ 100 % 1012.43 hPa
2021-05-11 04:41:37 12.16 ℃ 100 % 1012.42 hPa
2021-05-11 04:31:37 12.09 ℃ 100 % 1012.33 hPa
2021-05-11 04:21:37 12.16 ℃ 100 % 1012.36 hPa
2021-05-11 04:11:37 12.27 ℃ 100 % 1012.46 hPa
2021-05-11 04:01:37 12.35 ℃ 100 % 1012.35 hPa
2021-05-11 03:51:37 12.39 ℃ 100 % 1012.32 hPa
2021-05-11 03:41:37 12.48 ℃ 100 % 1012.51 hPa
2021-05-11 03:31:37 12.66 ℃ 100 % 1012.61 hPa
2021-05-11 03:21:37 12.75 ℃ 100 % 1012.69 hPa
2021-05-11 03:11:37 12.9 ℃ 100 % 1012.77 hPa
2021-05-11 03:01:38 13.01 ℃ 100 % 1012.74 hPa
2021-05-11 02:51:38 13.23 ℃ 100 % 1012.9 hPa
2021-05-11 02:41:38 13.34 ℃ 100 % 1012.81 hPa
2021-05-11 02:31:38 13.49 ℃ 100 % 1012.8 hPa
2021-05-11 02:21:38 13.7 ℃ 100 % 1012.61 hPa
2021-05-11 02:11:38 13.61 ℃ 99.99 % 1012.37 hPa
2021-05-11 02:01:38 13.69 ℃ 99.98 % 1012.28 hPa
2021-05-11 01:51:38 13.83 ℃ 99.97 % 1012.27 hPa
2021-05-11 01:41:38 14.1 ℃ 99.93 % 1012.37 hPa
2021-05-11 01:31:38 14.29 ℃ 99.86 % 1012.36 hPa
2021-05-11 01:21:38 14.41 ℃ 99.73 % 1012.26 hPa
2021-05-11 01:11:38 14.58 ℃ 99.45 % 1012.07 hPa
2021-05-11 01:01:38 14.75 ℃ 98.91 % 1011.95 hPa
2021-05-11 00:51:38 15.05 ℃ 97.82 % 1011.93 hPa
2021-05-11 00:41:38 14.86 ℃ 97.52 % 1012.03 hPa
2021-05-11 00:31:38 14.91 ℃ 98.64 % 1012.03 hPa
2021-05-11 00:21:38 15.07 ℃ 99.64 % 1012.04 hPa
2021-05-11 00:11:38 15.17 ℃ 100 % 1012 hPa
2021-05-11 00:01:38 15.23 ℃ 99.99 % 1011.92 hPa
2021-05-10 23:51:38 15.27 ℃ 99.99 % 1011.9 hPa
2021-05-10 23:41:38 15.3 ℃ 99.98 % 1011.93 hPa
2021-05-10 23:31:38 15.39 ℃ 99.95 % 1012.02 hPa
2021-05-10 23:21:38 15.46 ℃ 99.9 % 1012.03 hPa
2021-05-10 23:11:38 15.56 ℃ 99.81 % 1011.99 hPa
2021-05-10 23:01:38 15.77 ℃ 99.61 % 1011.96 hPa
2021-05-10 22:51:38 15.95 ℃ 99.22 % 1011.92 hPa
2021-05-10 22:41:38 16.07 ℃ 98.45 % 1011.88 hPa
2021-05-10 22:31:38 16.36 ℃ 96.89 % 1011.86 hPa
2021-05-10 22:21:38 16.38 ℃ 96.2 % 1011.79 hPa
2021-05-10 22:11:38 16.55 ℃ 93.74 % 1011.86 hPa
2021-05-10 22:01:38 16.83 ℃ 90.03 % 1011.84 hPa
2021-05-10 21:51:38 16.98 ℃ 88.41 % 1011.76 hPa
2021-05-10 21:41:38 17.13 ℃ 87.37 % 1011.69 hPa
2021-05-10 21:31:38 17.54 ℃ 84.75 % 1011.65 hPa
2021-05-10 21:21:38 17.65 ℃ 83.79 % 1011.59 hPa
2021-05-10 21:11:38 17.84 ℃ 82.33 % 1011.47 hPa
2021-05-10 21:01:38 18.14 ℃ 80.56 % 1011.36 hPa
2021-05-10 20:51:38 18.7 ℃ 77.05 % 1011.27 hPa
2021-05-10 20:41:39 19.2 ℃ 73.51 % 1011.19 hPa
2021-05-10 20:31:38 19.19 ℃ 73.35 % 1011.08 hPa
2021-05-10 20:21:38 18.95 ℃ 73.65 % 1011.01 hPa
2021-05-10 20:11:38 18.41 ℃ 75.85 % 1010.88 hPa
2021-05-10 20:01:38 18.16 ℃ 77.42 % 1010.71 hPa
2021-05-10 19:51:38 18.34 ℃ 78.68 % 1010.54 hPa
2021-05-10 19:41:38 18.46 ℃ 81.31 % 1010.38 hPa
2021-05-10 19:31:38 18.53 ℃ 81.14 % 1010.28 hPa
2021-05-10 19:21:38 18.58 ℃ 80.65 % 1010.18 hPa
2021-05-10 19:11:38 18.64 ℃ 80.35 % 1010.19 hPa
2021-05-10 19:01:38 18.85 ℃ 80.12 % 1010.24 hPa
2021-05-10 18:51:38 18.85 ℃ 80.1 % 1010.15 hPa
2021-05-10 18:41:38 18.82 ℃ 80.46 % 1010.1 hPa
2021-05-10 18:31:38 18.77 ℃ 81.52 % 1009.98 hPa
2021-05-10 18:21:38 19.03 ℃ 79.86 % 1009.77 hPa
2021-05-10 18:11:38 19.33 ℃ 76.7 % 1009.49 hPa
2021-05-10 18:01:38 19.48 ℃ 77.29 % 1009.44 hPa
2021-05-10 17:51:38 19.5 ℃ 78.37 % 1009.34 hPa
2021-05-10 17:41:38 19.68 ℃ 78.71 % 1009.15 hPa
2021-05-10 17:31:39 19.77 ℃ 81.38 % 1009.05 hPa
2021-05-10 17:21:38 19.86 ℃ 86.76 % 1008.89 hPa
2021-05-10 17:11:39 20.15 ℃ 86.52 % 1008.65 hPa
2021-05-10 17:01:38 20.28 ℃ 85.49 % 1008.48 hPa
2021-05-10 16:51:38 20.52 ℃ 83.01 % 1008.25 hPa
2021-05-10 16:41:38 20.97 ℃ 77.91 % 1007.93 hPa
2021-05-10 16:31:39 21.51 ℃ 71.83 % 1007.64 hPa
2021-05-10 16:21:38 21.94 ℃ 66.86 % 1007.26 hPa
2021-05-10 16:11:38 22.51 ℃ 62.27 % 1007 hPa
2021-05-10 16:01:38 22.16 ℃ 63.78 % 1006.87 hPa
2021-05-10 15:51:38 22.34 ℃ 64.98 % 1006.72 hPa
2021-05-10 15:41:39 22.38 ℃ 65.86 % 1006.57 hPa
2021-05-10 15:31:39 22.38 ℃ 66.95 % 1006.41 hPa
2021-05-10 15:21:39 22.42 ℃ 68.41 % 1006.22 hPa
2021-05-10 15:11:39 22.79 ℃ 65.3 % 1005.97 hPa
2021-05-10 15:01:39 23.69 ℃ 57.19 % 1005.68 hPa
2021-05-10 14:51:39 25.21 ℃ 45.21 % 1005.28 hPa
2021-05-10 14:41:39 25.56 ℃ 44.31 % 1005.06 hPa
2021-05-10 14:31:39 26.1 ℃ 42.08 % 1004.93 hPa
2021-05-10 14:21:39 26.88 ℃ 40.35 % 1004.75 hPa
2021-05-10 14:11:39 27.22 ℃ 40.24 % 1004.62 hPa
2021-05-10 14:01:39 27.16 ℃ 40.56 % 1004.5 hPa
2021-05-10 13:51:39 27.19 ℃ 40.49 % 1004.46 hPa
2021-05-10 13:41:39 26.94 ℃ 41.4 % 1004.47 hPa
2021-05-10 13:31:39 26.67 ℃ 43.85 % 1004.45 hPa
2021-05-10 13:21:39 26.25 ℃ 46.34 % 1004.47 hPa
2021-05-10 13:11:39 25.79 ℃ 48.16 % 1004.51 hPa
2021-05-10 13:01:39 24.98 ℃ 49.52 % 1004.55 hPa
2021-05-10 12:51:39 24.73 ℃ 49.84 % 1004.44 hPa
2021-05-10 12:41:39 24.88 ℃ 49.66 % 1004.38 hPa
2021-05-10 12:31:39 25.16 ℃ 48.11 % 1004.32 hPa
2021-05-10 12:21:39 25.54 ℃ 47.23 % 1004.24 hPa
2021-05-10 12:11:39 25.69 ℃ 46.44 % 1004.17 hPa
2021-05-10 12:01:39 26.09 ℃ 45.54 % 1004.06 hPa
2021-05-10 11:51:39 26.22 ℃ 46.35 % 1003.95 hPa
2021-05-10 11:41:39 26.15 ℃ 45.99 % 1003.84 hPa
2021-05-10 11:31:39 25.65 ℃ 46.2 % 1003.79 hPa
2021-05-10 11:21:39 25.44 ℃ 46.48 % 1003.71 hPa
2021-05-10 11:11:39 25.12 ℃ 47.57 % 1003.7 hPa
2021-05-10 11:01:39 24.49 ℃ 49.49 % 1003.79 hPa
2021-05-10 10:51:39 24 ℃ 50.71 % 1003.82 hPa
2021-05-10 10:41:39 23.37 ℃ 52.69 % 1003.82 hPa
2021-05-10 10:31:39 22.78 ℃ 54.84 % 1003.78 hPa
2021-05-10 10:21:39 22.52 ℃ 55.76 % 1003.74 hPa
2021-05-10 10:11:39 22.21 ℃ 57.21 % 1003.74 hPa
2021-05-10 10:01:39 21.96 ℃ 58.28 % 1003.76 hPa
2021-05-10 09:51:39 21.78 ℃ 60 % 1003.75 hPa
2021-05-10 09:41:39 21.09 ℃ 62.03 % 1003.69 hPa
2021-05-10 09:31:39 20.81 ℃ 62.36 % 1003.62 hPa
2021-05-10 09:21:39 20.6 ℃ 62.35 % 1003.54 hPa
2021-05-10 09:11:39 20.6 ℃ 61.23 % 1003.43 hPa
2021-05-10 09:01:39 20.47 ℃ 61.15 % 1003.37 hPa
2021-05-10 08:51:39 20.36 ℃ 61.26 % 1003.3 hPa
2021-05-10 08:41:39 20.12 ℃ 62.21 % 1003.29 hPa
2021-05-10 08:31:39 20.18 ℃ 61.97 % 1003.29 hPa
2021-05-10 08:21:39 20.21 ℃ 61.72 % 1003.3 hPa
2021-05-10 08:11:39 20.27 ℃ 61.45 % 1003.3 hPa
2021-05-10 08:01:39 20.34 ℃ 61.3 % 1003.37 hPa
2021-05-10 07:51:39 20.48 ℃ 59.87 % 1003.45 hPa
2021-05-10 07:41:39 20.55 ℃ 60.07 % 1003.51 hPa
2021-05-10 07:31:39 20.39 ℃ 60.2 % 1003.48 hPa
2021-05-10 07:21:39 20.19 ℃ 60.5 % 1003.49 hPa
2021-05-10 07:11:39 20.23 ℃ 60.48 % 1003.42 hPa
2021-05-10 07:01:39 20.54 ℃ 58.66 % 1003.35 hPa
2021-05-10 06:51:39 20.8 ℃ 56.84 % 1003.27 hPa
2021-05-10 06:41:39 20.89 ℃ 56.51 % 1003.22 hPa
2021-05-10 06:31:39 20.89 ℃ 56.65 % 1003.11 hPa
2021-05-10 06:21:39 20.78 ℃ 57.01 % 1003.01 hPa
2021-05-10 06:11:39 20.32 ℃ 59.07 % 1002.91 hPa
2021-05-10 06:01:39 19.92 ℃ 61.37 % 1002.9 hPa
2021-05-10 05:51:39 19.63 ℃ 63.46 % 1002.77 hPa
2021-05-10 05:41:39 19.47 ℃ 64.23 % 1002.64 hPa
2021-05-10 05:31:39 19.57 ℃ 64.04 % 1002.53 hPa
2021-05-10 05:21:39 19.59 ℃ 63.98 % 1002.48 hPa
2021-05-10 05:11:39 19.74 ℃ 63.43 % 1002.42 hPa
2021-05-10 05:01:39 19.86 ℃ 62.75 % 1002.32 hPa
2021-05-10 04:51:39 20.18 ℃ 61.09 % 1002.22 hPa
2021-05-10 04:41:39 20.17 ℃ 61.33 % 1002.16 hPa
2021-05-10 04:31:39 20.26 ℃ 60.87 % 1002.11 hPa
2021-05-10 04:21:39 20.39 ℃ 60.2 % 1002.06 hPa
2021-05-10 04:11:39 20.56 ℃ 59.51 % 1002.06 hPa
2021-05-10 04:01:39 20.58 ℃ 59.47 % 1002.04 hPa
2021-05-10 03:51:40 20.63 ℃ 59.89 % 1002.06 hPa
2021-05-10 03:41:40 20.57 ℃ 61.43 % 1002.03 hPa
2021-05-10 03:31:40 20.67 ℃ 62.15 % 1002.02 hPa
2021-05-10 03:21:40 20.76 ℃ 62.79 % 1001.92 hPa
2021-05-10 03:11:40 20.72 ℃ 64.67 % 1001.87 hPa
2021-05-10 03:01:40 20.75 ℃ 66.02 % 1001.85 hPa
2021-05-10 02:51:40 20.73 ℃ 67.96 % 1001.81 hPa
2021-05-10 02:41:40 20.65 ℃ 71.12 % 1001.82 hPa
2021-05-10 02:31:40 20.74 ℃ 72.93 % 1001.82 hPa
2021-05-10 02:21:40 20.71 ℃ 74.6 % 1001.78 hPa
2021-05-10 02:11:40 20.73 ℃ 76.48 % 1001.73 hPa
2021-05-10 02:01:40 20.91 ℃ 75.95 % 1001.7 hPa
2021-05-10 01:51:40 21 ℃ 75.55 % 1001.73 hPa
2021-05-10 01:41:40 20.98 ℃ 76.03 % 1001.75 hPa
2021-05-10 01:31:40 21.08 ℃ 75.69 % 1001.77 hPa
2021-05-10 01:21:40 21.21 ℃ 75.19 % 1001.85 hPa
2021-05-10 01:11:40 21.19 ℃ 75.59 % 1001.86 hPa
2021-05-10 01:01:40 21.22 ℃ 75.78 % 1001.95 hPa
2021-05-10 00:51:40 21.36 ℃ 75.14 % 1002.01 hPa
2021-05-10 00:41:40 21.47 ℃ 74.53 % 1002.02 hPa
2021-05-10 00:31:40 21.55 ℃ 74.17 % 1002.04 hPa
2021-05-10 00:21:40 21.61 ℃ 73.75 % 1002.08 hPa
2021-05-10 00:11:40 21.67 ℃ 73.3 % 1002.14 hPa
2021-05-10 00:01:40 21.82 ℃ 72.2 % 1002.17 hPa
2021-05-09 23:51:40 21.97 ℃ 71.01 % 1002.22 hPa
2021-05-09 23:41:40 22.13 ℃ 69.94 % 1002.26 hPa
2021-05-09 23:31:40 22.19 ℃ 69.36 % 1002.23 hPa
2021-05-09 23:21:40 22.24 ℃ 68.82 % 1002.21 hPa
2021-05-09 23:11:40 22.22 ℃ 68.73 % 1002.21 hPa
2021-05-09 23:01:40 22.16 ℃ 68.1 % 1002.18 hPa
2021-05-09 22:51:40 22.12 ℃ 66.81 % 1002.19 hPa
2021-05-09 22:41:40 22.14 ℃ 65.01 % 1002.19 hPa
2021-05-09 22:31:40 22.18 ℃ 62.62 % 1002.18 hPa
2021-05-09 22:21:40 22.22 ℃ 60.46 % 1002.21 hPa
2021-05-09 22:11:40 22.28 ℃ 58.22 % 1002.19 hPa
2021-05-09 22:01:40 22.42 ℃ 55.66 % 1002.15 hPa
2021-05-09 21:51:41 22.51 ℃ 53.65 % 1002.2 hPa
2021-05-09 21:41:40 22.67 ℃ 51.55 % 1002.22 hPa
2021-05-09 21:31:40 22.77 ℃ 49.69 % 1002.17 hPa
2021-05-09 21:21:40 22.89 ℃ 48.06 % 1002.21 hPa
2021-05-09 21:11:40 23.03 ℃ 46.95 % 1002.27 hPa
2021-05-09 21:01:41 23.23 ℃ 46.05 % 1002.39 hPa
2021-05-09 20:51:40 23.36 ℃ 45.42 % 1002.46 hPa
2021-05-09 20:41:40 23.56 ℃ 44.77 % 1002.56 hPa
2021-05-09 20:31:40 23.73 ℃ 44.18 % 1002.6 hPa
2021-05-09 20:21:40 23.8 ℃ 44.13 % 1002.67 hPa
2021-05-09 20:11:40 23.84 ℃ 44.63 % 1002.8 hPa
2021-05-09 20:01:40 23.86 ℃ 45.87 % 1003.01 hPa
2021-05-09 19:51:40 23.8 ℃ 47.49 % 1003.2 hPa
2021-05-09 19:41:40 23.78 ℃ 48.32 % 1003.5 hPa
2021-05-09 19:31:40 23.69 ℃ 49.29 % 1003.68 hPa
2021-05-09 19:21:40 23.66 ℃ 50.01 % 1003.79 hPa
2021-05-09 19:11:40 23.63 ℃ 51.02 % 1003.88 hPa
2021-05-09 19:01:40 23.66 ℃ 51.92 % 1003.92 hPa
2021-05-09 18:51:40 23.72 ℃ 53.1 % 1003.99 hPa
2021-05-09 18:41:40 23.61 ℃ 55.13 % 1004 hPa
2021-05-09 18:31:40 23.66 ℃ 56.78 % 1004.15 hPa
2021-05-09 18:21:40 23.75 ℃ 58.14 % 1004.44 hPa
2021-05-09 18:11:40 23.71 ℃ 59.11 % 1004.66 hPa
2021-05-09 18:01:40 23.61 ℃ 57.99 % 1004.88 hPa
2021-05-09 17:51:40 23.86 ℃ 54.36 % 1005.11 hPa
2021-05-09 17:41:40 23.85 ℃ 52.78 % 1004.91 hPa
2021-05-09 17:31:40 24.2 ℃ 49.09 % 1004.49 hPa
2021-05-09 17:21:40 24.73 ℃ 43.2 % 1004.79 hPa
2021-05-09 17:11:41 25.2 ℃ 39.47 % 1004.92 hPa
2021-05-09 17:01:40 25.53 ℃ 37.86 % 1004.69 hPa
2021-05-09 16:51:40 25.66 ℃ 37.17 % 1004.67 hPa
2021-05-09 16:41:40 25.56 ℃ 37.39 % 1004.7 hPa
2021-05-09 16:31:42 25.66 ℃ 37.92 % 1004.83 hPa
2021-05-09 16:21:40 25.49 ℃ 39.5 % 1005.09 hPa
2021-05-09 16:11:41 25.34 ℃ 41.95 % 1005.31 hPa
2021-05-09 16:01:41 25.52 ℃ 43.59 % 1005.55 hPa
2021-05-09 15:51:41 25.31 ℃ 44.46 % 1005.79 hPa
2021-05-09 15:41:41 25.23 ℃ 43.66 % 1006.06 hPa
2021-05-09 15:31:41 25.14 ℃ 43.25 % 1006.2 hPa
2021-05-09 15:21:41 24.8 ℃ 44 % 1006.1 hPa
2021-05-09 15:11:41 24.73 ℃ 43.15 % 1005.95 hPa
2021-05-09 15:01:41 24.69 ℃ 42.64 % 1005.86 hPa
2021-05-09 14:51:41 24.82 ℃ 41.15 % 1005.84 hPa
2021-05-09 14:41:42 24.79 ℃ 41.22 % 1005.89 hPa
2021-05-09 14:31:41 24.7 ℃ 41.58 % 1005.95 hPa
2021-05-09 14:21:41 24.74 ℃ 41.98 % 1006.01 hPa
2021-05-09 14:11:41 24.64 ℃ 42.84 % 1006.05 hPa
2021-05-09 14:01:41 24.58 ℃ 42.94 % 1006.11 hPa
2021-05-09 13:51:41 24.38 ℃ 44.25 % 1006.14 hPa
2021-05-09 13:41:41 24.35 ℃ 45.23 % 1006.11 hPa
2021-05-09 13:31:41 24.25 ℃ 46.92 % 1006.02 hPa
2021-05-09 13:21:41 24.07 ℃ 48.92 % 1005.95 hPa
2021-05-09 13:11:41 23.93 ℃ 50.46 % 1005.8 hPa
2021-05-09 13:01:41 23.77 ℃ 51.66 % 1005.74 hPa
2021-05-09 12:51:41 23.56 ℃ 51.76 % 1005.81 hPa
2021-05-09 12:41:41 23.25 ℃ 52.98 % 1005.94 hPa
2021-05-09 12:31:41 22.9 ℃ 54.53 % 1006.05 hPa
2021-05-09 12:21:41 22.52 ℃ 56.5 % 1006.15 hPa
2021-05-09 12:11:41 22.3 ℃ 59.78 % 1006.22 hPa
2021-05-09 12:01:41 22.17 ℃ 64.03 % 1006.27 hPa
2021-05-09 11:51:41 21.85 ℃ 66.05 % 1006.41 hPa
2021-05-09 11:41:41 21.9 ℃ 65.88 % 1006.52 hPa
2021-05-09 11:31:41 21.87 ℃ 64.7 % 1006.59 hPa
2021-05-09 11:21:41 21.88 ℃ 65.33 % 1006.71 hPa
2021-05-09 11:11:41 21.55 ℃ 67.75 % 1006.76 hPa
2021-05-09 11:01:41 21.13 ℃ 67.59 % 1006.79 hPa
2021-05-09 10:51:41 21.04 ℃ 68.09 % 1006.88 hPa
2021-05-09 10:41:41 20.88 ℃ 69.39 % 1006.92 hPa
2021-05-09 10:31:41 20.62 ℃ 71.12 % 1006.92 hPa
2021-05-09 10:21:41 20.22 ℃ 74.88 % 1006.98 hPa
2021-05-09 10:11:41 19.94 ℃ 77.67 % 1006.95 hPa
2021-05-09 10:01:41 19.77 ℃ 79.72 % 1006.94 hPa
2021-05-09 09:51:41 19.59 ℃ 78.98 % 1007 hPa
2021-05-09 09:41:41 19.47 ℃ 81.02 % 1006.98 hPa
2021-05-09 09:31:41 19.18 ℃ 81.95 % 1006.99 hPa
2021-05-09 09:21:41 19.03 ℃ 81.47 % 1006.96 hPa
2021-05-09 09:11:41 18.64 ℃ 84.08 % 1006.94 hPa
2021-05-09 09:01:41 18.37 ℃ 86.54 % 1006.97 hPa
2021-05-09 08:51:41 18.02 ℃ 88.89 % 1006.98 hPa
2021-05-09 08:41:41 17.61 ℃ 90.23 % 1007.02 hPa
2021-05-09 08:31:41 16.93 ℃ 95.91 % 1007.06 hPa
2021-05-09 08:21:41 16.2 ℃ 98.44 % 1007.11 hPa
2021-05-09 08:11:41 15.71 ℃ 100 % 1007.18 hPa
2021-05-09 08:01:41 15.33 ℃ 100 % 1007.18 hPa
2021-05-09 07:51:41 15.3 ℃ 100 % 1007.18 hPa
2021-05-09 07:41:41 15.23 ℃ 100 % 1007.17 hPa
2021-05-09 07:31:41 14.56 ℃ 100 % 1007.17 hPa
2021-05-09 07:21:41 14.32 ℃ 100 % 1007.19 hPa
2021-05-09 07:11:41 14.05 ℃ 100 % 1007.2 hPa
2021-05-09 07:01:42 13.64 ℃ 100 % 1007.23 hPa
2021-05-09 06:51:42 13.56 ℃ 100 % 1007.25 hPa
2021-05-09 06:41:42 13.31 ℃ 100 % 1007.26 hPa
2021-05-09 06:31:42 13.12 ℃ 100 % 1007.27 hPa
2021-05-09 06:21:41 13.05 ℃ 100 %